[[{"header":{"parameterUnit":"m.s-1","parameterCategory":1,"la1":31.0,"la2":29.5877,"lo1":-88.7671,"lo2":-86.6584,"dy":0.0162,"dx":0.0185,"nx":115,"ny":88,"refTime":"2024-06-12T18:00:00:Z","depth":0,"parameterNumber":2,"parameterNumberName":"U-component_of_WINDS"},"data":[0.0,0.0,0.0,0.0,0.0,0.0,0.0,0.0,0.0,0.0,0.0,0.0,0.0,0.0,0.0,0.0,0.0,0.0,0.0,0.0,0.0,0.0,0.0,0.0,0.0,0.0,0.0,0.0,0.0,0.0,0.0,0.0,0.0,0.0,0.0,0.0,0.0,0.0,0.0,0.0,0.0,0.0,0.0,0.0,0.0,0.0,0.0,0.0,0.0,0.0,0.0,0.0,0.0,0.0,0.0,0.0,0.0,0.0,0.0,0.0,0.0,0.0,0.0,0.0,0.0,0.0,0.0,0.0,0.0,0.0,0.0,0.0,0.0,0.0,0.0,0.0,0.0,0.0,0.0,0.0,0.0,0.0,0.0,0.0,0.0,0.0,0.0,0.0,0.0,0.0,0.0,0.0,0.0,0.0,0.0,0.0,0.0,0.0,0.0,0.0,0.0,0.0,0.0,0.0,0.0,0.0,0.0,0.0,0.0,0.0,0.0,0.0,0.0,0.0,0.0,0.0,0.0,0.0,0.0,0.0,0.0,0.0,0.0,0.0,0.0,0.0,0.0,0.0,0.0,0.0,0.0,0.0,0.0,0.0,0.0,0.0,0.0,0.0,0.0,0.0,0.0,0.0,0.0,0.0,0.0,0.0,0.0,0.0,0.0,0.0,0.0,0.0,0.0,0.0,0.0,0.0,0.0,0.0,0.0,0.0,0.0,0.0,0.0,0.0,0.0,0.0,0.0,0.0,0.0,0.0,0.0,0.0,0.0,0.0,0.0,0.0,0.0,0.0,0.0,0.0,0.0,0.0,0.0,0.0,0.0,0.0,0.0,0.0,0.0,0.0,0.0,0.0,0.0,0.0,0.0,0.0,0.0,0.0,0.0,0.0,0.0,0.0,0.0,0.0,0.0,0.0,0.0,0.0,0.0,0.0,0.0,0.0,0.0,0.0,0.0,0.0,0.0,0.0,0.0,0.0,0.0,0.0,0.0,0.0,0.0,0.0,0.0,0.0,0.0,0.0,0.0,0.0,0.0,0.0,0.0,0.0,0.0,0.0,0.0,0.0,0.0,0.0,0.0,0.0,0.0,0.0,0.0,0.0,0.0,0.0,0.0,0.0,0.0,0.0,0.0,0.0,0.0,0.0,0.0,0.0,0.0,0.0,0.0,0.0,0.0,0.0,0.0,0.0,0.0,0.0,0.0,0.0,0.0,0.0,0.0,0.0,0.0,0.0,0.0,0.0,0.0,0.0,0.0,0.0,0.0,0.0,0.0,0.0,0.0,0.0,0.0,0.0,0.0,0.0,0.0,0.0,0.0,0.0,0.0,0.0,0.0,0.0,0.0,0.0,0.0,0.0,0.0,0.0,0.0,0.0,0.0,0.0,0.0,0.0,0.0,0.0,0.0,0.0,0.0,0.0,0.0,0.0,0.0,0.0,0.0,0.0,0.0,0.0,0.0,0.0,0.0,0.0,0.0,0.0,0.0,0.0,0.0,0.0,0.0,0.0,0.0,0.0,0.0,0.0,0.0,0.0,0.0,0.0,0.0,0.0,0.0,0.0,0.0,0.0,0.0,0.0,0.0,0.0,0.0,0.0,0.0,0.0,0.0,0.0,0.0,0.0,0.0,0.0,0.0,0.0,0.0,0.0,0.0,0.0,0.0,0.0,0.0,0.0,0.0,0.0,0.0,0.0,0.0,0.0,0.0,0.0,0.0,0.0,0.0,0.0,0.0,0.0,0.0,0.0,0.0,0.0,0.0,0.0,0.0,0.0,0.0,0.0,0.0,0.0,0.0,0.0,0.0,0.0,0.0,0.0,0.0,0.0,0.0,0.0,0.0,0.0,0.0,0.0,0.0,0.0,0.0,0.0,0.0,0.0,0.0,0.0,0.0,0.0,0.0,0.0,0.0,0.0,0.0,0.0,0.0,0.0,0.0,0.0,0.0,0.0,0.0,0.0,0.0,0.0,0.0,0.0,0.0,0.0,0.0,0.0,0.0,0.0,0.0,0.0,0.0,0.0,0.0,0.0,0.0,0.0,0.0,0.0,0.0,0.0,0.0,0.0,0.0,0.0,0.0,0.0,0.0,0.0,0.0,0.0,0.0,0.0,0.0,0.0,0.0,0.0,0.0,0.0,0.0,0.0,0.0,0.0,0.0,0.0,0.0,0.0,0.0,0.0,0.0,0.0,0.0,0.0,0.0,0.0,0.0,0.0,0.0,0.0,0.0,0.0,0.0,0.0,0.0,0.0,0.0,0.0,0.0,0.0,0.0,0.0,0.0,0.0,0.0,0.0,0.0,0.0,0.0,0.0,0.0,0.0,0.0,0.0,0.0,0.0,0.0,0.0,0.0,0.0,0.0,0.0,0.0,0.0,0.0,0.0,0.0,0.0,0.0,0.0,0.0,0.0,0.0,0.0,0.0,0.0,0.0,0.0,0.0,0.0,0.0,0.0,0.0,0.0,0.0,0.0,0.0,0.0,0.0,0.0,0.0,0.0,0.0,0.0,0.0,0.0,0.0,0.0,0.0,0.0,0.0,0.0,0.0,0.0,0.0,0.0,0.0,0.0,0.0,0.0,0.0,0.0,0.0,0.0,0.0,0.0,0.0,0.0,0.0,0.0,0.0,0.0,0.0,0.0,0.0,0.0,0.0,0.0,0.0,0.0,0.0,0.0,0.0,0.0,0.0,0.0,0.0,0.0,0.0,0.0,0.0,0.0,0.0,0.0,0.0,0.0,0.0,0.0,0.0,0.0,0.0,0.0,0.0,0.0,0.0,0.0,0.0,0.0,0.0,0.0,0.0,0.0,0.0,0.0,0.0,0.0,0.0,0.0,0.0,0.0,0.0,0.0,0.0,0.0,0.0,0.0,0.0,0.0,0.0,0.0,0.0,0.0,0.0,0.0,0.0,0.0,0.0,0.0,0.0,0.0,0.0,0.0,0.0,0.0,0.0,0.0,0.0,0.0,0.0,0.0,0.0,0.0,0.0,0.0,0.0,0.0,0.0,0.0,0.0,0.0,0.0,0.0,0.0,0.0,0.0,0.0,0.0,0.0,0.0,0.0,0.0,0.0,0.0,0.0,0.0,0.0,0.0,0.0,0.0,0.0,0.0,0.0,0.0,0.0,0.0,0.0,0.0,0.0,0.0,0.0,0.0,0.0,0.0,0.0,0.0,0.0,0.0,0.0,0.0,0.0,0.0,0.0,0.0,0.0,0.0,0.0,0.0,0.0,0.0,0.0,0.0,0.0,0.0,0.0,0.0,0.0,0.0,0.0,0.0,0.0,0.0,0.0,0.0,0.0,0.0,0.0,0.0,0.0,0.0,0.0,0.0,0.0,0.0,0.0,0.0,0.0,0.0,0.0,0.0,0.0,0.0,0.0,0.0,0.0,0.0,0.0,0.0,0.0,0.0,0.0,0.0,0.0,0.0,0.0,0.0,0.0,0.0,0.0,0.0,0.0,0.0,0.0,0.0,0.0,0.0,0.0,0.0,0.0,0.0,0.0,0.0,0.0,0.0,0.0,0.0,0.0,0.0,0.0,0.0,0.0,0.0,0.0,0.0,0.0,0.0,0.0,0.0,0.0,0.0,0.0,0.0,0.0,0.0,0.0,0.0,0.0,0.0,0.0,0.0,0.0,0.0,0.0,0.0,0.0,0.0,0.0,0.0,0.0,0.0,0.0,0.0,0.0,0.0,0.0,0.0,0.0,0.0,0.0,0.0,0.0,0.0,0.0,0.0,0.0,0.0,0.0,0.0,0.0,0.0,0.0,0.0,0.0,0.0,0.0,0.0,0.0,0.0,0.0,0.0,0.0,0.0,0.0,0.0,0.0,0.0,0.0,0.0,0.0,0.0,0.0,0.0,0.0,0.0,0.0,0.0,0.0,0.0,0.0,0.0,0.0,0.0,0.0,0.0,0.0,0.0,0.0,0.0,0.0,0.0,0.0,0.0,0.0,0.0,0.0,0.0,0.0,0.0,0.0,0.0,0.0,0.0,0.0,0.0,0.0,0.0,0.0,0.0,0.0,0.0,0.0,0.0,0.0,0.0,0.0,0.0,0.0,0.0,0.0,0.0,0.0,0.0,0.0,0.0,0.0,0.0,0.0,0.0,0.0,0.0,0.0,0.0,0.0,0.0,0.0,0.0,0.0,0.0,0.0,0.0,0.0,0.0,0.0,0.0,0.0,0.0,0.0,0.0,0.0,0.0,0.0,0.0,0.0,0.0,0.0,0.0,0.0,0.0,0.0,0.0,0.0,0.0,0.0,0.0,0.0,1.2056,0.0,0.0,0.0,0.0,0.0,0.0,0.0,0.0,0.0,0.0,0.0,0.0,0.0,0.0,0.0,0.0,0.0,0.0,0.0,0.0,0.0,0.0,0.0,0.0,0.0,0.0,0.0,0.0,0.0,0.0,0.0,0.0,0.0,0.0,0.0,0.0,0.0,0.0,0.0,0.0,0.0,0.0,0.0,0.0,0.0,0.0,0.0,0.0,0.0,0.0,0.0,0.0,0.0,0.0,0.0,0.0,0.0,0.0,0.0,0.0,0.0,0.0,0.0,0.0,0.0,0.0,0.0,0.0,0.0,0.0,0.0,0.0,0.0,0.0,0.0,0.0,0.0,0.0,0.0,0.0,0.0,0.0,0.0,0.0,0.0,0.0,0.0,0.0,0.0,0.0,0.0,0.0,0.0,0.0,0.0,0.0,0.0,0.0,0.0,0.0,0.0,0.0,0.0,0.0,0.0,0.0,0.0,0.0,0.0,0.0,1.3005,1.2818,1.2609,1.2404,1.2215,0.0,0.0,0.0,0.0,0.0,0.0,0.0,0.0,0.0,0.0,0.0,0.0,0.0,0.0,0.0,0.0,0.0,0.0,0.0,0.0,0.0,0.0,0.0,0.0,0.0,0.0,0.0,0.0,0.0,0.0,0.0,0.0,0.0,0.0,0.0,0.0,0.0,0.0,0.0,0.0,0.0,0.0,0.0,0.0,0.0,0.0,0.0,0.0,0.0,0.0,0.0,0.0,0.0,0.0,0.0,0.0,0.0,0.0,0.0,0.0,0.0,0.0,0.0,0.0,0.0,0.0,0.0,0.0,0.0,0.0,0.0,0.0,0.0,0.0,0.0,0.0,0.0,0.0,0.0,0.0,0.0,0.0,0.0,0.0,0.0,0.0,0.0,0.0,0.0,0.0,0.0,0.0,0.0,0.0,0.0,0.0,0.0,0.0,0.0,0.0,0.0,0.0,0.0,0.0,0.0,0.0,0.0,0.0,0.0,0.0,0.0,0.0,1.276,1.2598,1.2447,0.0,0.0,0.0,0.0,0.0,0.0,0.0,0.0,0.0,0.0,0.0,0.0,0.0,0.0,0.0,0.0,0.0,0.0,0.0,0.0,0.0,0.0,0.0,0.0,0.0,0.0,0.0,0.0,0.0,0.0,0.0,0.0,0.0,0.0,0.0,0.0,0.0,0.0,0.0,0.0,0.0,0.0,0.0,0.0,0.0,0.0,0.0,0.0,0.0,0.0,0.0,0.0,0.0,0.0,0.0,0.0,0.0,0.0,0.0,0.0,0.0,0.0,0.0,0.0,0.0,0.0,0.0,0.0,0.0,0.0,0.0,0.0,0.0,0.0,0.0,0.0,0.0,0.0,0.0,0.0,0.0,0.0,0.0,0.0,0.0,0.0,0.0,0.0,0.0,0.0,0.0,0.0,0.0,0.0,0.0,0.0,0.0,0.0,0.0,0.0,0.0,0.0,0.0,0.0,0.0,0.0,0.0,0.0,0.0,0.0,1.3018,1.3415,1.3239,0.0,1.3109,0.0,0.0,0.0,0.0,0.0,0.0,0.0,0.0,0.0,0.0,0.0,0.0,0.0,0.0,0.0,0.0,0.0,0.0,0.0,0.0,0.0,0.0,0.0,0.0,0.0,0.0,0.0,0.0,0.0,0.0,0.0,0.0,0.0,0.0,0.0,0.0,0.0,0.0,0.0,0.0,0.0,0.0,0.0,0.0,0.0,0.0,0.0,0.0,0.0,0.0,0.0,0.0,0.0,0.0,0.0,0.0,0.0,0.0,0.0,0.0,0.0,0.0,0.0,0.0,0.0,0.0,0.0,0.0,0.0,0.0,0.0,0.0,0.0,0.0,0.0,0.0,0.0,0.0,0.0,0.0,0.0,0.0,0.0,0.0,0.0,0.0,0.0,0.0,0.0,0.0,0.0,0.0,0.0,0.0,0.0,0.0,0.0,0.0,0.0,0.0,0.0,0.0,0.0,0.0,0.0,0.0,0.0,0.0,0.0,0.0,1.344,1.3484,1.3303,1.3211,0.0,0.0,0.0,0.0,0.0,0.0,0.0,0.0,0.0,0.0,0.0,0.0,0.0,0.0,0.0,0.0,0.0,0.0,0.0,0.0,0.0,0.0,0.0,0.0,0.0,0.0,0.0,0.0,0.0,0.0,0.0,0.0,0.0,0.0,0.0,0.0,0.0,0.0,0.0,0.0,0.0,0.0,0.0,0.0,0.0,0.0,0.0,0.0,0.0,0.0,0.0,0.0,0.0,0.0,0.0,0.0,0.0,0.0,0.0,0.0,0.0,0.0,0.0,0.0,0.0,0.0,0.0,0.0,0.0,0.0,0.0,0.0,0.0,0.0,0.0,0.0,0.0,0.0,0.0,0.0,0.0,0.0,0.0,0.0,0.0,0.0,0.0,0.0,0.0,0.0,0.0,0.0,0.0,0.0,0.0,0.0,0.0,0.0,0.0,0.0,0.0,0.0,0.0,0.0,0.0,0.0,0.0,0.0,0.0,0.0,1.367,1.3706,1.3691,1.3548,1.3303,1.2949,0.0,0.0,0.0,0.0,0.0,0.0,0.0,0.0,0.0,0.0,0.0,0.0,0.0,0.0,0.0,0.0,0.0,0.0,0.0,0.0,0.0,0.0,0.0,0.0,0.0,0.0,0.0,0.0,0.0,0.0,0.0,0.0,0.0,0.0,0.0,0.0,0.0,0.0,0.0,0.0,0.0,0.0,0.0,0.0,0.0,0.0,0.0,0.0,0.0,0.0,0.0,0.0,0.0,0.0,0.0,0.0,0.0,0.0,0.0,0.0,0.0,0.0,0.0,0.0,0.0,0.0,0.0,0.0,0.0,0.0,0.0,0.0,0.0,0.0,0.0,0.0,0.0,0.0,0.0,0.0,0.0,0.0,0.0,0.0,0.0,0.0,0.0,0.0,0.0,0.0,0.0,0.0,0.0,0.0,0.0,0.0,0.0,0.0,0.0,0.0,0.0,0.0,0.0,0.0,0.0,0.0,0.0,0.0,0.0,1.3927,1.3729,1.4165,1.4166,1.3559,0.0,0.0,0.0,0.0,0.0,0.0,0.0,0.0,0.0,0.0,0.0,0.0,0.0,0.0,0.0,0.0,0.0,0.0,0.0,0.0,0.0,0.0,0.0,0.0,0.0,0.0,0.0,0.0,0.0,0.0,0.0,0.0,0.0,0.0,0.0,0.0,0.0,0.0,0.0,0.0,0.0,0.0,0.0,0.0,0.0,0.0,0.0,0.0,0.0,0.0,0.0,0.0,0.0,0.0,0.0,0.0,0.0,0.0,0.0,0.0,0.0,0.0,0.0,0.0,0.0,0.0,0.0,0.0,0.0,0.0,0.0,0.0,0.0,0.0,0.0,0.0,0.0,0.0,0.0,0.0,0.0,0.0,0.0,0.0,0.0,0.0,0.0,0.0,0.0,0.0,0.0,0.0,0.0,0.0,0.0,0.0,0.0,0.0,0.0,0.0,0.0,0.0,0.0,0.0,0.0,0.0,0.0,0.0,0.0,1.3687,1.3551,1.3929,1.4769,1.4015,1.3328,0.0,0.0,0.0,0.0,0.0,0.0,0.0,0.0,0.0,0.0,0.0,0.0,0.0,0.0,0.0,0.0,0.0,0.0,0.0,0.0,0.0,0.0,0.0,0.0,0.0,0.0,0.0,0.0,0.0,0.0,0.0,0.0,0.0,0.0,0.0,0.0,0.0,0.0,0.0,0.0,0.0,0.0,0.0,0.0,0.0,0.0,0.0,0.0,0.0,0.0,0.0,0.0,0.0,0.0,0.0,0.0,0.0,0.0,0.0,0.0,0.0,0.0,0.0,0.0,0.0,0.0,0.0,0.0,0.0,0.0,0.0,0.0,0.0,0.0,0.0,0.0,0.0,0.0,0.0,0.0,0.0,0.0,0.0,0.0,0.0,0.0,0.0,0.0,0.0,0.0,0.0,0.0,0.0,0.0,0.0,0.0,0.0,0.0,0.0,0.0,0.0,0.0,0.0,0.0,0.0,0.0,0.0,0.0,0.0,1.3516,0.0,1.4288,0.0,1.397,1.3183,0.0,0.0,0.0,0.0,0.0,0.0,0.0,0.0,0.0,0.0,0.0,0.0,0.0,0.0,0.0,0.0,0.0,0.0,0.0,0.0,0.0,0.0,0.0,0.0,0.0,0.0,0.0,0.0,0.0,0.0,0.0,0.0,0.0,0.0,0.0,0.0,0.0,0.0,0.0,0.0,0.0,0.0,0.0,0.0,0.0,0.0,0.0,0.0,0.0,0.0,0.0,0.0,0.0,0.0,0.0,0.0,0.0,0.0,0.0,0.0,0.0,0.0,0.0,0.0,0.0,0.0,0.0,0.0,0.0,0.0,0.0,0.0,0.0,0.0,0.0,0.0,0.0,0.0,0.0,0.0,0.0,0.0,0.0,0.0,0.0,0.0,0.0,0.0,0.0,0.0,0.0,0.0,0.0,0.0,0.0,0.0,0.0,0.0,0.0,0.0,0.0,0.0,0.0,0.0,0.0,0.0,0.0,0.0,1.3533,1.4341,1.4813,1.4761,1.4145,1.4069,1.3156,0.0,0.0,0.0,0.0,0.0,0.0,0.0,0.0,0.0,0.0,0.0,0.0,0.0,0.0,0.0,0.0,0.0,0.0,0.0,0.0,0.0,0.0,0.0,0.0,0.0,0.0,0.0,0.0,0.0,0.0,0.0,0.0,0.0,0.0,0.0,0.0,0.0,0.0,0.0,0.0,0.0,0.0,0.0,0.0,0.0,0.0,0.0,0.0,0.0,0.0,0.0,0.0,0.0,0.0,0.0,0.0,0.0,0.0,0.0,0.0,0.0,0.0,0.0,0.0,0.0,0.0,0.0,0.0,0.0,0.0,0.0,0.0,0.0,0.0,0.0,0.0,0.0,0.0,0.0,0.0,0.0,0.0,0.0,0.0,0.0,0.0,0.0,0.0,0.0,0.0,0.0,0.0,0.0,0.0,0.0,0.0,0.0,0.0,0.0,0.0,0.0,0.0,0.0,0.0,0.0,0.0,0.0,0.0,0.0,1.3932,1.4507,1.4788,1.4698,1.3816,1.3036,0.0,0.0,0.0,0.0,0.0,0.0,0.0,0.0,0.0,0.0,0.0,0.0,0.0,0.0,0.0,0.0,0.0,0.0,0.0,0.0,0.0,0.0,0.0,0.0,0.0,0.0,0.0,0.0,0.0,0.0,0.0,0.0,0.0,0.0,0.0,0.0,0.0,0.0,0.0,0.0,0.0,0.0,0.0,0.0,0.0,0.0,0.0,0.0,0.0,0.0,0.0,0.0,0.0,0.0,0.0,0.0,0.0,0.0,0.0,0.0,0.0,0.0,0.0,0.0,0.0,0.0,0.0,0.0,0.0,0.0,0.0,0.0,0.0,0.0,0.0,0.0,0.0,0.0,0.0,0.0,0.0,0.0,0.0,0.0,0.0,0.0,0.0,0.0,0.0,0.0,0.0,0.0,0.0,0.0,0.0,0.0,0.0,0.0,0.0,0.0,0.0,0.0,0.0,0.0,0.0,0.0,0.0,0.0,0.0,1.4802,1.5122,1.5196,1.4958,1.3891,1.323,1.2981,0.0,0.0,0.0,0.0,0.0,0.0,0.0,0.0,0.0,0.0,0.0,0.0,0.0,0.0,0.0,0.0,0.0,0.0,0.0,0.0,0.0,0.0,0.0,0.0,0.0,0.0,0.0,0.0,0.0,0.0,0.0,0.0,0.0,0.0,0.0,0.0,0.0,0.0,0.0,0.0,0.0,0.0,0.0,0.0,0.0,0.0,0.0,0.0,0.0,0.0,0.0,0.0,0.0,0.0,0.0,0.0,0.0,0.0,0.0,0.0,0.0,0.0,0.0,0.0,0.0,0.0,0.0,0.0,0.0,0.0,0.0,0.0,0.0,0.0,0.0,0.0,0.0,0.0,0.0,0.0,0.0,0.0,0.0,0.0,0.0,0.0,0.0,0.0,0.0,0.0,0.0,0.0,0.0,0.0,0.0,0.0,0.0,0.0,0.0,0.0,0.0,0.0,0.0,0.0,0.0,0.0,0.0,0.0,1.6644,1.6513,1.5981,1.5046,1.4363,1.3715,0.0,0.0,0.0,0.0,0.0,0.0,0.0,0.0,0.0,0.0,0.0,0.0,0.0,0.0,0.0,0.0,0.0,0.0,0.0,0.0,0.0,0.0,0.0,0.0,0.0,0.0,0.0,0.0,0.0,0.0,0.0,0.0,0.0,0.0,0.0,0.0,0.0,0.0,0.0,0.0,0.0,0.0,0.0,0.0,0.0,0.0,0.0,0.0,0.0,0.0,0.0,0.0,0.0,0.0,0.0,0.0,0.0,0.0,0.0,0.0,0.0,0.0,0.0,0.0,0.0,0.0,0.0,0.0,0.0,0.0,0.0,0.0,0.0,0.0,0.0,0.0,0.0,0.0,0.0,0.0,0.0,0.0,0.0,0.0,0.0,0.0,0.0,0.0,0.0,0.0,0.0,0.0,0.0,0.0,0.0,0.0,0.0,0.0,0.0,0.0,0.0,0.0,0.0,0.0,0.0,0.0,0.0,0.0,0.0,1.7317,1.7819,1.7482,1.6286,1.5612,1.4756,0.0,0.0,0.0,0.0,0.0,0.0,0.0,0.0,0.0,0.0,0.0,0.0,0.0,0.0,0.0,0.0,0.0,0.0,0.0,0.0,0.0,0.0,0.0,0.0,0.0,0.0,0.0,0.0,0.0,0.0,0.0,0.0,0.0,0.0,0.0,0.0,0.0,0.0,0.0,0.0,0.0,0.0,0.0,0.0,0.0,0.0,0.0,0.0,0.0,0.0,0.0,0.0,0.0,0.0,0.0,0.0,0.0,0.0,0.0,0.0,0.0,0.0,0.0,0.0,0.0,0.0,0.0,0.0,0.0,0.0,0.0,0.0,0.0,0.0,0.0,0.0,0.0,0.0,0.0,0.0,0.0,0.0,0.0,0.0,0.0,0.0,0.0,0.0,0.0,0.0,0.0,0.0,0.0,0.0,0.0,0.0,0.0,0.0,0.0,0.0,0.0,0.0,0.0,0.0,0.0,0.0,0.0,0.0,1.7306,1.8217,1.8809,1.8687,1.7761,1.6713,1.5572,0.0,0.0,0.0,0.0,0.0,0.0,0.0,0.0,0.0,0.0,0.0,0.0,0.0,0.0,0.0,0.0,0.0,0.0,0.0,0.0,0.0,0.0,0.0,0.0,0.0,0.0,0.0,0.0,0.0,0.0,0.0,0.0,0.0,0.0,0.0,0.0,0.0,0.0,0.0,0.0,0.0,0.0,0.0,0.0,0.0,0.0,0.0,0.0,0.0,0.0,0.0,0.0,0.0,0.0,0.0,0.0,0.0,0.0,0.0,0.0,0.0,0.0,0.0,0.0,0.0,0.0,0.0,0.0,0.0,0.0,0.0,0.0,0.0,0.0,0.0,0.0,0.0,0.0,0.0,0.0,0.0,0.0,0.0,0.0,0.0,0.0,0.0,0.0,0.0,0.0,0.0,0.0,0.0,0.0,0.0,0.0,0.0,0.0,0.0,0.0,0.0,0.0,0.0,0.0,0.0,0.0,0.0,0.0,1.8108,1.9086,1.955,1.9621,1.9177,1.7615,1.6178,0.0,0.0,0.0,0.0,0.0,0.0,0.0,0.0,0.0,0.0,0.0,0.0,0.0,0.0,0.0,0.0,0.0,0.0,0.0,0.0,0.0,0.0,0.0,0.0,0.0,0.0,0.0,0.0,0.0,0.0,0.0,0.0,0.0,0.0,0.0,0.0,0.0,0.0,0.0,0.0,0.0,0.0,0.0,0.0,0.0,0.0,0.0,0.0,0.0,0.0,0.0,0.0,0.0,0.0,0.0,0.0,0.0,0.0,0.0,0.0,0.0,0.0,0.0,0.0,0.0,0.0,0.0,0.0,0.0,0.0,0.0,0.0,0.0,0.0,0.0,0.0,0.0,0.0,0.0,0.0,0.0,0.0,0.0,0.0,0.0,0.0,0.0,0.0,0.0,0.0,0.0,0.0,0.0,0.0,0.0,0.0,0.0,0.0,0.0,0.0,0.0,0.0,0.0,0.0,0.0,0.0,0.0,0.0,1.8559,1.9109,2.0062,2.0127,1.9227,1.7837,1.6615,0.0,0.0,0.0,0.0,0.0,0.0,0.0,0.0,0.0,0.0,0.0,0.0,0.0,0.0,0.0,0.0,0.0,0.0,0.0,0.0,0.0,0.0,0.0,0.0,0.0,0.0,0.0,0.0,0.0,0.0,0.0,0.0,0.0,0.0,0.0,0.0,0.0,0.0,0.0,0.0,0.0,0.0,0.0,0.0,0.0,0.0,0.0,0.0,1.1656,0.0,0.0,0.0,0.0,0.0,0.0,0.0,0.0,0.0,0.0,0.0,0.0,0.0,0.0,0.0,0.0,0.0,0.0,0.0,0.0,0.0,0.0,0.0,0.0,0.0,0.0,0.0,0.0,0.0,0.0,0.0,0.0,0.0,0.0,0.0,0.0,0.0,0.0,0.0,0.0,0.0,0.0,0.0,0.0,0.0,0.0,0.0,0.0,0.0,0.0,0.0,0.0,0.0,0.0,0.0,0.0,0.0,0.0,0.0,1.9212,1.9614,2.0396,2.044,1.9646,1.8062,1.6877,0.0,0.0,0.0,0.0,0.0,0.0,0.0,0.0,0.0,0.0,0.0,0.0,0.0,0.0,0.0,0.0,0.0,0.0,0.0,0.0,0.0,0.0,0.0,0.0,0.0,0.0,0.0,0.0,0.0,0.0,0.0,0.0,0.0,0.0,0.0,0.0,0.0,0.0,0.0,0.0,0.0,0.0,0.0,0.0,0.0,0.0,0.0,0.0,0.0,0.0,0.0,0.0,0.0,0.0,0.0,0.0,0.0,0.0,0.0,0.0,0.0,0.0,0.0,0.0,0.0,0.0,0.0,0.0,0.0,0.0,0.0,0.0,0.0,0.0,0.0,0.0,0.0,0.0,0.0,0.0,0.0,0.0,0.0,0.0,0.0,0.0,0.0,0.0,0.0,0.0,0.0,0.0,0.0,0.0,0.0,0.0,0.0,0.0,0.0,0.0,0.0,0.0,0.0,0.0,0.0,0.0,0.0,1.8578,1.9828,2.0272,2.0603,2.0653,2.027,1.8444,1.7218,1.6768,0.0,0.0,0.0,0.0,0.0,0.0,0.0,0.0,0.0,0.0,0.0,0.0,0.0,0.0,0.0,0.0,0.0,0.0,0.0,0.0,0.0,0.0,0.0,0.0,0.0,0.0,0.0,0.0,0.0,0.0,0.0,0.0,0.0,0.0,0.0,0.0,0.0,0.0,1.2083,1.3112,0.0,0.0,0.0,0.0,0.0,0.0,0.0,0.0,1.3186,0.0,0.0,0.0,0.0,0.0,0.0,0.0,0.0,0.0,0.0,0.0,0.0,0.0,0.0,0.0,0.0,0.0,0.0,0.0,0.0,0.0,0.0,0.0,0.0,0.0,0.0,0.0,0.0,0.0,0.0,0.0,0.0,0.0,0.0,0.0,0.0,0.0,0.0,0.0,0.0,0.0,0.0,0.0,0.0,0.0,0.0,0.0,0.0,0.0,0.0,0.0,0.0,0.0,0.0,0.0,0.0,1.731,1.8826,1.9935,2.0597,2.0738,2.0769,2.0663,1.9243,1.803,1.7073,0.0,0.0,0.0,0.0,0.0,0.0,0.0,0.0,0.0,0.0,0.0,0.0,0.0,0.0,0.0,0.0,0.0,0.0,0.0,0.0,0.0,0.0,0.0,0.0,0.0,0.0,0.0,0.0,0.0,0.0,0.0,0.0,0.0,0.0,0.0,0.0,0.0,0.0,0.0,1.3365,1.3791,0.0,0.0,0.0,0.0,0.0,0.0,0.0,0.0,1.3454,0.0,0.0,0.0,0.0,0.0,0.0,0.0,0.0,0.0,0.0,0.0,0.0,0.0,0.0,0.0,0.0,0.0,0.0,0.0,0.0,0.0,0.0,0.0,0.0,0.0,0.0,0.0,0.0,0.0,0.0,0.0,0.0,0.0,0.0,0.0,0.0,0.0,0.0,0.0,0.0,0.0,0.0,0.0,0.0,0.0,0.0,0.0,0.0,0.0,0.0,0.0,0.0,0.0,0.0,0.0,1.7955,1.9068,1.9968,2.0731,2.0779,2.0624,2.0212,1.8564,1.7522,0.0,0.0,0.0,0.0,0.0,0.0,0.0,0.0,0.0,0.0,0.0,0.0,0.0,0.0,0.0,0.0,0.0,0.0,0.0,0.0,0.0,0.0,0.0,0.0,0.0,0.0,0.0,0.0,0.0,0.0,0.0,0.0,0.0,0.0,0.0,0.0,0.0,0.0,0.0,0.0,1.3874,1.421,1.4215,0.0,0.0,0.0,0.0,0.0,0.0,1.4037,1.3981,0.0,0.0,0.0,0.0,0.0,0.0,0.0,0.0,0.0,0.0,0.0,0.0,0.0,0.0,0.0,0.0,0.0,0.0,0.0,0.0,0.0,0.0,0.0,0.0,0.0,0.0,0.0,0.0,0.0,0.0,0.0,0.0,0.0,0.0,0.0,0.0,0.0,0.0,0.0,0.0,0.0,0.0,0.0,0.0,0.0,0.0,0.0,0.0,0.0,0.0,0.0,0.0,0.0,0.0,0.0,1.8433,1.9227,2.0027,2.0866,2.0835,2.0474,1.9792,1.8065,1.7076,0.0,0.0,0.0,0.0,0.0,0.0,0.0,0.0,0.0,0.0,0.0,0.0,0.0,0.0,0.0,0.0,0.0,0.0,0.0,0.0,0.0,0.0,0.0,0.0,0.0,0.0,0.0,0.0,0.0,0.0,0.0,0.0,0.0,0.0,0.0,0.0,0.0,0.0,0.0,0.0,0.0,1.4751,1.4624,1.4707,0.0,0.0,0.0,0.0,1.4367,1.4515,0.0,0.0,0.0,0.0,0.0,0.0,0.0,0.0,0.0,0.0,0.0,0.0,0.0,0.0,0.0,0.0,0.0,0.0,0.0,0.0,0.0,0.0,0.0,0.0,0.0,0.0,0.0,0.0,0.0,0.0,0.0,0.0,0.0,0.0,0.0,0.0,0.0,0.0,0.0,0.0,0.0,0.0,0.0,0.0,0.0,0.0,0.0,0.0,0.0,0.0,0.0,0.0,0.0,0.0,0.0,0.0,1.8436,1.9224,2.0127,2.1145,2.095,2.058,2.0143,1.9053,1.7774,0.0,0.0,0.0,0.0,0.0,0.0,0.0,0.0,0.0,0.0,0.0,0.0,0.0,0.0,0.0,0.0,0.0,0.0,0.0,0.0,0.0,0.0,0.0,0.0,0.0,0.0,0.0,0.0,0.0,0.0,0.0,0.0,0.0,0.0,0.0,0.0,0.0,0.0,0.0,0.0,0.0,1.5213,1.4668,1.5051,1.5405,0.0,0.0,1.5566,1.6019,1.5407,0.0,0.0,0.0,0.0,0.0,0.0,0.0,0.0,0.0,0.0,0.0,0.0,0.0,0.0,0.0,0.0,0.0,0.0,0.0,0.0,0.0,0.0,0.0,0.0,0.0,0.0,0.0,0.0,0.0,0.0,0.0,0.0,0.0,0.0,0.0,0.0,0.0,0.0,0.0,0.0,0.0,0.0,0.0,0.0,0.0,0.0,0.0,0.0,0.0,0.0,0.0,0.0,0.0,0.0,0.0,1.6564,1.9012,1.9442,2.0161,2.1228,2.097,2.0608,2.0193,1.8505,1.7234,0.0,0.0,0.0,0.0,0.0,0.0,0.0,0.0,0.0,0.0,0.0,0.0,0.0,0.0,0.0,0.0,0.0,0.0,0.0,0.0,0.0,0.0,0.0,0.0,0.0,0.0,0.0,0.0,0.0,0.0,0.0,0.0,0.0,0.0,0.0,0.0,0.0,0.0,0.0,0.0,0.0,0.0,1.5614,1.5859,0.0,0.0,0.0,1.5985,1.5897,0.0,0.0,0.0,0.0,0.0,0.0,0.0,0.0,0.0,0.0,0.0,0.0,0.0,0.0,0.0,0.0,0.0,0.0,0.0,0.0,0.0,0.0,0.0,0.0,0.0,0.0,0.0,0.0,0.0,0.0,0.0,0.0,0.0,0.0,0.0,0.0,0.0,0.0,0.0,0.0,0.0,0.0,0.0,0.0,0.0,0.0,0.0,0.0,0.0,0.0,0.0,0.0,0.0,0.0,0.0,0.0,0.0,1.9521,1.9584,2.0102,2.1134,2.0917,2.0562,2.0072,1.8036,0.0,0.0,0.0,0.0,0.0,0.0,0.0,0.0,0.0,0.0,0.0,0.0,0.0,0.0,0.0,0.0,0.0,0.0,0.0,0.0,0.0,0.0,0.0,0.0,0.0,0.0,0.0,0.941,0.0,0.0,0.0,0.0,0.0,0.0,0.0,0.0,0.0,0.0,0.0,0.0,0.0,0.0,1.5888,1.6341,1.6521,1.6598,0.0,0.0,1.6446,1.5996,1.598,1.5698,0.0,0.0,0.0,0.0,0.0,0.0,0.0,0.0,0.0,0.0,0.0,0.0,0.0,0.0,0.0,0.0,0.0,0.0,0.0,0.0,0.0,0.0,0.0,0.0,0.0,0.0,0.0,0.0,0.0,0.0,0.0,0.0,0.0,0.0,0.0,0.0,0.0,0.0,0.0,0.0,0.0,0.0,0.0,0.0,0.0,0.0,0.0,0.0,0.0,0.0,0.0,0.0,0.0,0.0,0.0,1.9488,1.9584,2.0009,2.0792,2.0811,2.0453,1.9736,1.8381,1.7079,0.0,0.0,0.0,0.0,0.0,0.0,0.0,0.0,0.0,0.0,0.0,0.0,0.0,0.0,0.0,0.0,0.0,0.0,0.0,0.0,0.0,0.0,0.0,0.0,0.0,0.0,0.0,0.0,0.0,0.0,0.0,0.0,0.0,0.0,0.0,0.0,0.0,0.0,0.0,0.0,0.0,1.6364,1.6393,1.6825,1.7146,0.0,1.7146,1.7139,1.7081,1.7081,1.6586,1.5122,0.0,0.0,0.0,0.0,0.0,0.0,0.0,0.0,0.0,0.0,0.0,0.0,0.0,0.0,0.0,0.0,0.0,0.0,0.0,0.0,0.0,0.0,0.0,0.0,0.0,0.0,0.0,0.0,0.0,0.0,0.0,0.0,0.0,0.0,0.0,0.0,0.0,0.0,0.0,0.0,0.0,0.0,0.0,0.0,0.0,0.0,0.0,0.0,0.0,0.0,0.0,0.0,0.0,1.7168,1.9558,2.0048,2.0552,2.1075,2.0909,2.055,2.0008,1.8493,1.7112,0.0,0.0,0.0,0.0,0.0,0.0,0.0,0.0,0.0,0.0,0.0,0.0,0.0,0.0,0.0,0.0,0.0,0.0,0.0,0.0,0.0,0.0,0.0,0.0,0.0,0.0,0.0,0.0,1.135,1.1769,1.1251,0.0,0.0,0.0,0.0,0.0,0.0,0.0,0.0,0.0,0.0,1.6516,1.6856,1.7078,0.0,0.0,1.7217,1.7217,1.7217,1.6963,1.6565,1.5927,1.5451,0.0,0.0,0.0,0.0,0.0,0.0,0.0,0.0,0.0,0.0,0.0,0.0,0.0,0.0,0.0,0.0,0.0,0.0,0.0,0.0,0.0,0.0,0.0,0.0,0.0,0.0,0.0,0.0,0.0,0.0,0.0,0.0,0.0,0.0,0.0,0.0,0.0,0.0,0.0,0.0,0.0,0.0,0.0,0.0,0.0,0.0,0.0,0.0,0.0,0.0,0.0,0.0,1.7458,1.9571,2.032,2.0904,2.1305,2.0978,2.0608,2.0177,1.8587,1.7175,0.0,0.0,0.0,0.0,0.0,0.0,0.0,0.0,0.0,0.0,0.0,0.0,0.0,0.0,0.0,0.0,0.0,0.0,0.0,0.0,0.0,0.0,0.0,0.0,0.0,0.0,0.0,0.0,1.1793,1.1979,1.1037,0.0,0.0,0.0,0.0,0.0,0.0,0.0,0.0,0.0,0.0,1.6595,1.712,1.7217,1.7275,1.7439,1.7322,1.7209,1.7251,1.6955,1.6591,1.6206,0.0,0.0,0.0,0.0,0.0,0.0,0.0,0.0,0.0,0.0,0.0,0.0,0.0,0.0,0.0,0.0,0.0,0.0,0.0,0.0,0.0,0.0,0.0,0.0,0.0,0.0,0.0,1.3413,0.0,0.0,1.3186,0.0,0.0,0.0,0.0,0.0,0.0,0.0,0.0,0.0,0.0,0.0,0.0,0.0,0.0,0.0,0.0,0.0,0.0,0.0,0.0,0.0,0.0,1.7477,1.9578,2.0336,2.09,2.1285,2.0966,2.0593,2.0173,1.8564,1.7377,1.664,0.0,0.0,0.0,0.0,0.0,0.0,0.0,0.0,0.0,0.0,0.0,0.0,0.0,0.0,0.0,0.0,0.0,0.0,0.0,0.0,0.0,0.0,0.0,0.0,0.0,0.0,1.2412,1.2188,1.1597,0.0,0.0,0.0,0.0,0.0,0.0,0.0,0.0,0.0,0.0,1.6393,1.6613,1.7133,1.723,1.7465,1.8001,1.7596,1.7265,1.7388,1.7271,1.6817,0.0,0.0,0.0,0.0,0.0,0.0,0.0,0.0,0.0,0.0,0.0,0.0,0.0,0.0,0.0,0.0,0.0,0.0,0.0,0.0,0.0,0.0,0.0,0.0,0.0,0.0,0.0,1.5293,1.4816,0.0,0.0,0.0,0.0,0.0,0.0,0.0,0.0,0.0,0.0,0.0,1.8508,1.8538,0.0,0.0,0.0,0.0,0.0,0.0,0.0,0.0,0.0,0.0,0.0,0.0,1.7893,1.9555,2.0804,2.1401,2.1293,2.0974,2.0593,2.0184,1.9019,1.7452,1.5486,0.0,0.0,0.0,0.0,0.0,0.0,0.0,0.0,0.0,0.0,0.0,0.0,0.0,0.0,0.0,0.0,0.0,0.0,0.0,0.0,0.0,0.0,0.0,0.0,0.0,1.276,0.0,0.0,0.0,0.0,0.0,0.0,0.0,0.0,0.0,0.0,0.0,1.6467,1.6877,1.7596,1.7985,1.7831,1.81,1.8401,0.0,0.0,0.0,0.0,0.0,0.0,0.0,0.0,0.0,0.0,0.0,0.0,0.0,0.0,1.8034,1.6878,1.5632,1.4785,1.492,0.0,0.0,0.0,0.0,0.0,0.0,0.0,0.0,0.0,0.0,0.0,0.0,0.0,0.0,1.6752,0.0,1.6246,0.0,0.0,0.0,0.0,0.0,0.0,0.0,0.0,1.8627,1.9346,1.9985,1.9985,1.974,0.0,1.928,1.8396,0.0,0.0,0.0,0.0,0.0,0.0,0.0,0.0,1.8393,1.9604,2.1048,2.1644,2.1301,2.097,2.0613,2.0193,1.923,1.7584,1.523,1.3508,1.2331,0.0,0.0,0.0,0.0,0.0,0.0,0.0,0.0,0.0,0.0,0.0,0.0,0.0,0.0,0.0,0.0,0.0,0.0,0.0,0.0,0.0,0.0,0.0,1.3388,0.0,0.0,0.0,0.0,0.0,0.0,0.0,0.0,0.0,1.6124,1.6927,1.7578,1.7761,1.8435,1.8767,1.8427,0.0,0.0,0.0,0.0,0.0,0.0,0.0,1.7514,1.7243,1.7387,1.7646,1.7946,1.8501,1.8934,1.9022,0.0,0.0,1.7543,1.6344,1.557,1.5741,1.5181,1.4702,1.4854,1.4892,1.4886,0.0,0.0,0.0,0.0,0.0,0.0,0.0,0.0,1.7852,1.7804,0.0,1.7689,0.0,0.0,0.0,0.0,0.0,1.7879,0.0,0.0,2.0704,2.1391,2.0755,2.0735,2.0742,2.0731,2.0722,2.0323,1.9505,1.7547,0.0,0.0,0.0,0.0,0.0,0.0,1.8893,1.965,2.1043,2.1621,2.1298,2.095,2.0572,2.0167,1.9217,1.7815,1.5998,1.5236,1.413,1.2471,1.1123,0.0,0.0,0.0,0.0,0.0,0.0,0.0,0.0,0.0,0.0,0.0,0.0,0.0,0.0,0.0,0.0,0.0,0.0,0.0,0.0,1.39,0.0,0.0,0.0,0.0,0.0,0.0,0.0,0.0,0.0,0.0,1.7416,1.7813,1.8349,1.8858,0.0,0.0,0.0,0.0,1.8957,1.9,1.852,1.8197,1.8158,1.8075,1.786,1.7354,0.0,0.0,1.9483,1.9963,2.0084,1.9586,1.9463,1.9379,1.9015,1.7733,1.6928,1.7278,1.6255,1.5434,1.575,1.5924,1.5907,2.035,0.0,0.0,0.0,0.0,1.9161,1.9611,2.0564,2.0217,1.972,1.9116,1.9111,0.0,0.0,0.0,0.0,0.0,0.0,1.9571,2.0078,2.0731,2.1182,2.147,2.149,2.1477,2.1497,2.1494,2.1113,2.038,1.9767,1.8587,1.6915,0.0,0.0,0.0,0.0,1.9529,2.0038,2.0977,2.1285,2.0946,2.0559,2.0206,1.9843,1.9107,1.8456,1.7864,1.6182,1.4912,1.4162,1.2878,0.0,0.0,0.0,0.0,0.0,0.0,0.0,0.0,0.0,0.0,0.0,0.0,0.0,0.0,0.0,0.0,0.0,0.0,0.0,1.3572,1.3829,1.3857,0.0,0.0,0.0,0.0,0.0,0.0,0.0,0.0,0.0,1.9588,1.9466,1.9362,0.0,0.0,2.0183,2.0196,2.0085,2.0177,2.0625,2.0151,0.0,1.9159,1.88,1.8499,1.8304,1.8644,1.9036,1.9357,1.9291,1.9246,1.9384,1.9159,1.8892,1.8787,1.845,1.8193,1.8235,1.769,1.7224,1.733,1.738,1.7355,2.1698,2.0328,2.0594,2.0985,2.1383,2.1135,2.1507,2.2303,2.1951,2.1434,2.0855,2.0767,2.0005,1.8749,1.8468,0.0,0.0,0.0,2.0419,2.1149,2.1129,2.1365,2.1785,2.1785,2.1785,2.1785,2.1785,2.1584,2.1136,2.1146,2.0357,1.8799,0.0,0.0,1.8155,1.9399,2.0086,2.0245,2.0933,2.1075,2.0579,2.0189,1.9911,1.9697,1.9305,1.8976,1.8679,1.7132,1.5951,1.5283,1.3985,1.2738,0.0,0.0,0.0,0.0,0.0,0.0,0.0,0.0,0.0,0.0,0.0,1.18,1.1446,0.0,0.0,0.0,1.263,1.3349,1.4049,1.4552,0.0,0.0,0.0,0.0,0.0,0.0,0.0,1.838,1.9519,2.0466,2.0962,2.0903,2.0825,2.0826,2.1139,2.1283,2.1017,0.0,2.0817,2.0675,2.0301,1.9917,1.9512,1.9231,1.9086,1.9233,1.9083,1.9149,1.9581,1.9439,1.937,1.957,1.9447,1.9269,1.9258,1.9416,1.9413,1.9058,1.8909,1.8847,1.8828,1.8701,1.8552,2.2449,2.2522,2.3113,2.3316,2.3217,2.323,2.3243,2.3255,2.3113,2.2926,2.2663,2.2504,2.1888,2.091,2.0243,0.0,2.0954,2.0958,2.1341,2.1987,2.1974,2.1971,2.1974,2.1925,2.1888,2.188,2.1825,2.1785,2.1785,2.1785,2.1439,2.0714,2.009,1.9593,1.9306,2.0193,2.0555,2.027,2.0876,2.0873,2.0193,1.9867,1.9718,1.9718,1.9718,1.9389,1.8706,1.799,1.7041,1.5836,1.4589,1.3334,1.2128,0.0,0.0,0.0,0.0,0.0,0.0,0.0,0.0,0.0,0.0,0.0,0.0,0.0,0.0,0.0,1.3676,0.0,1.4734,1.5746,0.0,0.0,0.0,1.734,1.7465,1.8892,1.9683,1.9237,0.0,0.0,2.1701,2.2066,2.2398,2.2449,2.2365,2.2122,2.1534,2.1352,2.0904,1.991,1.9601,1.9546,1.953,1.9483,1.9577,1.9933,1.9736,1.9616,1.9979,2.0077,2.008,2.0077,2.011,2.0088,2.0099,2.0478,2.0659,1.9779,1.987,2.0132,2.0096,1.9799,1.9509,2.382,2.3835,2.3981,2.3489,2.2557,2.2808,2.2896,2.2887,2.3401,2.3475,2.331,2.3556,2.3504,2.3213,2.3019,2.3036,2.3222,2.3222,2.3309,2.3466,2.3474,2.3487,2.3437,2.2915,2.2629,2.26,2.2057,2.1785,2.1785,2.1785,2.1458,2.0838,2.1114,2.095,2.0356,2.062,2.0723,2.0655,2.0535,2.0258,1.9831,1.9733,1.9718,1.9718,1.9718,1.9389,1.8704,1.8037,1.7094,1.5849,1.5015,1.3983,1.2741,1.1605,0.0,0.0,0.0,0.0,0.0,0.0,0.0,0.0,0.0,1.2859,1.2102,0.0,1.351,0.0,1.443,1.5184,1.6167,1.6358,0.0,0.0,1.7813,1.8418,1.9718,2.0222,2.0746,2.1498,2.2054,2.2512,2.2772,2.2476,2.2427,2.2856,2.2189,2.1725,2.1924,2.1161,2.0613,2.0633,2.0246,1.9954,1.9921,1.9935,1.9976,2.0069,2.0009,1.9979,2.0088,2.011,2.011,2.011,2.011,2.011,2.0121,2.0808,2.1306,2.1109,2.0888,2.0711,2.0702,2.0615,2.044,2.5199,2.5184,2.5226,2.4805,2.4076,2.3658,2.3443,2.3453,2.3818,2.3838,2.3585,2.3561,2.3551,2.3524,2.3452,2.3431,2.3419,2.3431,2.3525,2.3723,2.3727,2.3827,2.398,2.3578,2.3388,2.3371,2.2981,2.2782,2.2745,2.2451,2.2101,2.1726,2.1486,2.1229,2.0967,2.1005,2.095,2.079,2.0245,1.9898,1.9712,1.9718,1.9718,1.9718,1.9718,1.9384,1.8736,1.8185,1.7294,1.6082,1.5469,1.4545,1.3191,1.2511,1.1889,0.0,0.0,0.0,0.0,0.0,0.0,0.0,0.0,0.0,0.0,0.0,1.4057,1.4882,1.5577,1.636,1.7307,1.7713,1.827,1.9169,1.9473,2.0093,2.1321,2.1662,2.2074,2.2675,2.2982,2.327,2.3541,2.3021,2.2706,2.305,2.2038,2.1369,2.1596,2.1078,2.0665,2.0643,2.0332,2.011,2.011,2.011,2.011,2.011,2.011,2.011,2.011,2.011,2.011,2.011,2.011,2.0186,2.0437,2.1049,2.1645,2.1863,2.1874,2.1848,2.1837,2.1664,2.1415,2.6364,2.6317,2.6364,2.6391,2.631,2.5087,2.4558,2.4574,2.4548,2.442,2.4135,2.3567,2.3344,2.3315,2.3158,2.306,2.3005,2.3047,2.3244,2.359,2.3599,2.3782,2.412,2.4067,2.4063,2.4063,2.4013,2.3988,2.3984,2.3282,2.2928,2.2836,2.164,2.1171,2.1392,2.1328,2.1082,2.0674,2.0026,1.9718,1.9718,1.9718,1.9718,1.9718,1.9718,1.9335,1.86,1.8316,1.7593,1.6375,1.5978,1.5157,1.3789,1.3593,1.2914,0.0,1.1437,0.0,0.0,0.0,0.0,0.0,0.0,0.0,0.0,1.4732,1.5014,1.6099,1.693,1.7669,1.8257,1.9296,2.0171,2.0733,2.1302,2.1858,2.244,2.2923,2.3228,2.3321,2.3764,2.4083,2.3905,2.3389,2.2967,2.2698,2.1709,2.0956,2.0961,2.0926,2.0682,2.0164,2.011,2.011,2.0121,2.0172,2.0216,2.0143,2.0205,2.0183,2.011,2.0175,2.0227,2.0238,2.0314,2.0483,2.0927,2.1378,2.1839,2.2195,2.2588,2.289,2.2859,2.261,2.2382,2.6391,2.6364,2.6391,2.6391,2.6376,2.6114,2.6006,2.6013,2.6325,2.6551,2.6646,2.5971,2.5657,2.5624,2.5293,2.4953,2.4665,2.4865,2.4852,2.4604,2.461,2.4659,2.4707,2.4502,2.442,2.4384,2.4115,2.3988,2.3988,2.3533,2.3134,2.2802,2.2482,2.2236,2.2017,0.0,0.0,0.0,1.9769,1.9718,1.9718,1.9718,1.9718,1.9718,1.9718,0.0,1.7974,1.8329,1.7878,1.6425,1.6669,0.0,0.0,0.0,0.0,0.0,0.0,0.0,0.0,0.0,0.0,0.0,1.5291,1.5034,1.5114,1.626,1.7193,1.765,1.8238,1.8819,1.9409,2.0117,2.0739,2.1296,2.1884,2.2439,2.2974,2.3144,2.3372,2.3876,2.4018,2.3894,2.3354,2.271,2.2094,2.1608,2.0792,2.0324,2.0318,2.0324,2.0245,2.0107,2.0121,2.0121,2.011,2.047,2.0607,2.0301,2.0492,2.0555,2.0249,2.0492,2.0724,2.0744,2.1063,2.1291,2.1439,2.1835,2.2112,2.2275,2.2648,2.301,2.301,2.2926,2.2761,2.7386,2.7386,2.7386,2.7386,0.0,2.7401,2.7374,2.7352,2.691,2.6781,2.687,2.6443,2.6244,2.6223,2.5622,2.5231,2.5041,2.4785,2.4664,2.4648,2.4624,2.4719,2.4907,2.4762,2.4707,2.4696,2.4528,2.4444,2.4423,2.3872,2.3506,2.3285,2.2728,2.2378,2.2199,2.1701,2.0884,1.9723,1.9718,1.9718,1.9718,1.9718,1.9718,1.9718,1.9718,0.0,0.0,0.0,0.0,0.0,0.0,0.0,0.0,0.0,0.0,1.4758,1.4393,1.4315,1.4624,1.4899,1.5435,1.632,1.6629,1.6604,1.6172,1.7468,1.8471,1.8883,1.9204,1.9689,2.0551,2.0904,2.1433,2.223,2.2609,2.3027,2.3523,2.3648,2.3764,2.4019,2.4118,2.3844,2.3185,2.2508,2.185,2.1187,2.0534,2.0121,2.011,2.011,2.011,2.0132,2.0361,2.05,2.0525,2.0904,2.1172,2.0959,2.1076,2.1028,2.0577,2.0902,2.1198,2.0995,2.1045,2.1202,2.1444,2.1443,2.1518,2.2038,2.2148,2.224,2.2468,2.2553,2.2593,2.8417,2.8417,2.8417,2.8417,2.8417,2.8417,2.8417,2.8328,0.0,0.0,0.0,2.651,2.6397,2.6357,2.5645,2.5273,2.5137,2.4537,2.431,2.443,2.4367,2.4472,2.4653,2.4754,2.4799,2.4784,2.4863,2.4902,2.4872,2.4207,2.3886,2.3795,2.2915,2.2394,2.2273,2.2023,2.1266,2.0118,1.9953,1.9803,1.9718,1.9718,1.9718,1.9718,1.9718,1.9384,1.8724,1.8803,1.8559,1.7923,1.7989,1.7867,1.7483,1.7097,1.6701,1.6312,1.6031,1.5833,1.5758,1.5854,1.6131,1.667,1.7758,1.8179,1.7682,1.8519,1.931,1.9923,2.0035,2.0473,2.1401,2.1707,2.2165,2.3105,2.3301,2.3562,2.4019,2.4118,2.4041,2.3966,2.3894,2.3595,2.2781,2.2229,2.1726,2.1146,2.0611,2.0292,2.0336,2.0347,2.0292,2.0322,2.0705,2.1025,2.1091,2.1413,2.1667,2.1566,2.1625,2.1555,2.1255,2.1479,2.1653,2.1454,2.1239,2.1438,2.1584,2.1273,2.1007,2.1772,2.1558,2.1347,2.1788,2.1835,2.192,2.8417,2.8417,2.8417,2.8417,2.8417,2.8417,2.8417,2.839,2.819,2.8134,2.8082,2.7492,2.7234,2.7211,2.6756,2.6313,2.588,2.5973,2.5504,2.4587,2.4576,2.4273,2.3819,2.4198,2.4385,2.44,2.4734,2.4902,2.4863,2.4455,2.422,2.4158,2.3678,2.3151,2.267,2.2584,2.2174,2.143,2.0857,2.0284,1.9718,1.9718,1.9718,1.9718,1.9718,1.9389,1.8747,1.925,1.925,1.8619,1.9106,1.9148,1.8521,1.8163,1.7692,1.7116,1.7207,1.7149,1.6837,1.7225,1.7594,1.7888,1.8905,1.9525,1.946,1.9577,1.9923,2.0504,2.0949,2.1322,2.1551,2.2374,2.2967,2.3236,2.3667,2.3999,2.4118,2.4118,2.3887,2.3354,2.3242,2.2776,2.1761,2.1384,2.1277,2.0997,2.091,2.0946,2.1254,2.1041,2.082,2.0842,2.1192,2.1457,2.159,2.1898,2.2084,2.1664,2.2029,2.216,2.1708,2.2269,2.2715,2.2704,2.2841,2.2941,2.2676,2.2209,2.1711,2.1523,2.1253,2.1165,2.1299,2.0953,2.077,2.8417,2.8417,2.8417,2.8417,2.8417,2.8417,2.8417,2.8417,2.8417,2.8417,2.8381,2.8079,2.795,2.79,2.7351,2.6995,2.6744,2.6445,2.5996,2.5483,2.5385,2.5129,2.4712,2.4686,2.4724,2.4764,2.4436,2.4415,2.4567,2.4157,2.3925,2.3899,2.3707,2.3465,2.3201,2.3186,2.2867,2.2233,2.1231,2.0553,2.0263,1.9878,1.9718,1.9718,1.9718,1.9564,1.926,1.9534,1.9549,1.9245,1.953,1.9564,1.9251,1.8896,1.8456,1.795,1.7772,1.7683,1.7601,1.8084,1.8574,1.8988,1.9499,1.9936,2.025,2.0281,2.0543,2.1067,2.1387,2.1779,2.2341,2.2896,2.3334,2.3646,2.3934,2.4105,2.4118,2.4118,2.383,2.3222,2.3103,2.2679,2.1608,2.1481,2.1434,2.1321,2.1451,2.1865,2.2505,2.2445,2.206,2.1484,2.1669,2.2062,2.2333,2.2742,2.3037,2.3142,2.334,2.3265,2.2894,2.3352,2.3613,2.3455,2.3526,2.3463,2.3169,2.2213,2.1646,2.1575,2.0684,2.042,2.0625,2.043,2.0235,2.8417,2.8417,2.8417,2.8417,2.8421,2.8547,2.8544,2.8411,2.8417,2.8417,2.8417,2.8417,2.8417,2.835,2.7851,2.7599,2.7493,2.6945,2.6562,2.6375,2.6289,2.6028,2.5659,2.5313,2.5195,2.5164,2.4446,2.4173,2.4318,2.3952,2.3692,2.3606,2.3589,2.3589,2.3589,2.3589,2.3361,2.2853,2.1749,2.1067,2.0907,2.0408,2.0079,1.9923,1.9923,1.9863,1.9718,1.9718,1.9718,1.9718,1.9857,1.9928,1.9925,1.9678,1.9368,1.9031,1.8588,1.8355,1.845,1.885,1.9309,1.9754,1.9917,2.0197,2.064,2.0824,2.1047,2.144,2.1636,2.2126,2.2954,2.334,2.3601,2.4045,2.4118,2.4118,2.4103,2.396,2.3662,2.3095,2.2789,2.2348,2.188,2.1702,2.1794,2.2067,2.2397,2.2938,2.3545,2.3758,2.3366,2.2707,2.2542,2.29,2.3291,2.3605,2.3985,2.4473,2.4452,2.4192,2.3974,2.4279,2.4486,2.4154,2.3989,2.3873,2.36,2.2361,2.1541,2.1481,2.0495,1.9706,2.0264,2.0177,2.0059,2.8417,2.8417,2.8417,2.8417,2.8473,2.9021,2.8922,2.8467,2.8417,2.8417,2.8488,2.8417,2.8427,2.8396,2.8313,2.8213,2.8106,2.8042,2.7621,2.6977,2.6923,2.6591,2.604,2.5683,2.5512,2.5451,2.5037,2.4633,2.4354,2.4245,2.4015,2.3638,2.3589,2.3606,2.3595,2.36,2.3581,2.351,2.2842,2.2228,2.164,2.1555,2.1211,2.0633,2.0603,2.0304,1.9823,1.9718,1.9718,1.9748,2.0294,2.0593,2.0601,2.0665,2.0707,2.0627,2.02,1.9843,1.9516,1.9616,1.976,1.9839,2.0314,2.0634,2.0739,2.1165,2.1433,2.1623,2.2035,2.2571,2.3151,2.3687,2.4,2.4071,2.4118,2.4118,2.4039,2.3566,2.3035,2.269,2.1974,2.1311,2.1509,2.1618,2.2094,2.3222,2.3672,2.4107,2.4459,2.4712,2.4832,2.4366,2.4216,2.4186,2.4319,2.4365,2.4496,2.4561,2.4539,2.454,2.4617,2.4824,2.5075,2.4968,2.5032,2.4822,2.4141,2.292,2.178,2.1491,2.065,1.9676,1.9902,1.9981,2.0167,2.8417,2.8417,2.8417,2.8417,2.8458,2.8692,2.8882,2.9005,2.8999,2.9206,2.9553,2.9578,2.9153,2.8433,2.8417,2.836,2.8311,2.8317,2.8133,2.7837,2.7821,2.759,2.7142,2.6403,2.6075,2.6006,2.5274,2.4784,2.4574,2.4271,2.4015,2.3866,2.3839,2.3845,2.3855,2.3839,2.3792,2.3713,2.3556,2.3259,2.2787,2.2084,2.157,2.1331,2.1291,2.1191,2.0926,2.0891,2.0886,2.0896,2.1166,2.1286,2.1291,2.1337,2.1273,2.1022,2.062,2.0174,1.9745,2.0103,2.0334,2.0321,2.0851,2.1184,2.1204,2.1694,2.2165,2.2492,2.2713,2.3106,2.364,2.3954,2.4118,2.4118,2.4118,2.4118,2.409,2.3508,2.2915,2.2367,2.1788,2.1521,2.1916,2.2575,2.3458,2.4449,2.4882,2.5217,2.6045,2.621,2.6243,2.6405,2.6224,2.5642,2.5158,2.4921,2.504,2.525,2.5327,2.5327,2.5327,2.5437,2.56,2.5569,2.567,2.5731,2.5681,2.4351,2.3093,2.2302,2.1016,2.0049,2.0137,2.0235,2.045,2.8417,2.8436,2.859,2.8553,2.8427,2.8611,2.8959,2.9362,2.9387,2.9784,3.0371,3.0402,2.9879,2.9021,2.8769,2.8769,2.8901,2.8753,2.8661,2.8667,2.8661,2.8487,2.8041,2.7256,2.6731,2.6471,2.5685,2.5084,2.4741,2.425,2.3987,2.3987,2.3987,2.3987,2.3987,2.3972,2.3898,2.3818,2.3866,2.3782,2.3487,2.2692,2.2139,2.1989,2.1979,2.1894,2.1704,2.1704,2.1704,2.1704,2.1869,2.1969,2.1984,2.1997,2.1786,2.1228,2.078,2.0398,2.0065,2.0445,2.0765,2.0929,2.1296,2.1583,2.1825,2.2283,2.276,2.3112,2.336,2.3653,2.4013,2.4118,2.4118,2.4118,2.4119,2.415,2.4128,2.3516,2.2982,2.267,2.2143,2.1964,2.2677,2.3745,2.4799,2.5432,2.5784,2.6177,2.7227,2.7241,2.7245,2.7643,2.7415,2.692,2.5972,2.582,2.5938,2.6,2.6099,2.5818,2.5832,2.5748,2.5485,2.5146,2.5714,2.5965,2.5741,2.4887,2.3598,2.291,2.176,2.065,2.0835,2.082,2.0762,2.8417,2.8528,2.9107,2.899,2.8482,2.9092,2.9362,2.9464,2.9439,2.9799,3.0356,3.0402,3.0356,3.0186,2.9569,2.967,3.0122,2.9615,2.9307,2.9245,2.9307,2.9002,2.8389,2.8056,2.7504,2.6844,2.6521,2.5819,2.4817,2.4321,2.3987,2.4069,2.4136,2.4064,2.4049,2.3984,2.3823,2.3829,2.375,2.3632,2.3606,2.3531,2.3198,2.2724,2.2643,2.2383,2.1854,2.1734,2.1734,2.1719,2.2323,2.2648,2.2662,2.2753,2.2372,2.1507,2.0971,2.069,2.0633,2.0706,2.0923,2.1348,2.1544,2.1773,2.2329,2.2865,2.3211,2.3222,2.3748,2.4061,2.4121,2.4141,2.4134,2.4141,2.4224,2.4284,2.4325,2.3568,2.3396,2.364,2.2843,2.2666,2.3748,2.4794,2.5529,2.6081,2.6533,2.6964,2.7239,2.7513,2.7573,2.7507,2.761,2.7693,2.721,2.6802,2.6898,2.6887,2.6424,2.5946,2.559,2.5274,2.4935,2.4659,2.4925,2.5158,2.5335,2.4598,2.313,2.2302,2.196,2.1386,2.1403,2.1307,2.124,2.9307,2.9654,2.947,2.9507,2.9716,2.9953,3.0039,3.0024,3.0048,3.0162,3.0371,3.0402,3.0402,3.0356,2.9707,2.9538,2.9762,2.994,2.9584,2.8907,2.9199,2.903,2.8408,2.7874,2.7498,2.7252,2.7338,2.7221,2.68,2.6373,2.5945,2.5598,2.5537,2.5311,2.4912,2.4783,2.4546,2.4097,2.4041,2.3999,2.3922,2.393,2.3819,2.3543,2.3366,2.3151,2.2936,2.2916,2.2927,2.2917,2.3177,2.3271,2.3249,2.3025,2.2592,2.1902,2.141,2.1028,2.0801,2.1027,2.127,2.1511,2.221,2.2642,2.2977,2.3512,2.391,2.3957,2.4189,2.4411,2.439,2.4304,2.4288,2.441,2.4482,2.4637,2.471,2.4062,2.3626,2.411,2.3676,2.3725,2.4601,2.5457,2.6192,2.696,2.7301,2.7558,2.7908,2.8121,2.8124,2.8066,2.8149,2.8231,2.8111,2.749,2.7184,2.7133,2.6846,2.6393,2.5998,2.56,2.5274,2.4509,2.4477,2.4659,2.4967,2.4598,2.3085,2.2415,2.202,2.1915,2.1865,2.1757,2.1679,2.9993,3.0279,2.9916,2.9977,3.0371,3.0402,3.0531,3.0661,3.05,3.0531,3.0661,3.05,3.0402,3.0331,2.9916,2.9578,2.9461,2.9854,2.9578,2.8815,2.919,2.9052,2.8452,2.8165,2.7934,2.7785,2.7986,2.813,2.8061,2.764,2.7167,2.673,2.653,2.6155,2.5722,2.5613,2.5303,2.4912,2.4841,2.4802,2.4669,2.4732,2.4631,2.4347,2.4161,2.3939,2.3753,2.3691,2.3664,2.3669,2.3674,2.3632,2.3577,2.3157,2.2748,2.2348,2.1799,2.1402,2.1263,2.1444,2.1695,2.2041,2.2774,2.3339,2.3557,2.4081,2.4358,2.4421,2.4506,2.4613,2.4635,2.4543,2.45,2.4625,2.4809,2.4996,2.5167,2.4592,2.4312,2.4443,2.4649,2.495,2.5511,2.6195,2.689,2.7649,2.7808,2.813,2.8416,2.85,2.85,2.85,2.8451,2.8461,2.8381,2.7998,2.7785,2.7703,2.7255,2.6805,2.6226,2.5873,2.5285,2.452,2.4262,2.4445,2.4416,2.4188,2.362,2.2846,2.2594,2.2465,2.2353,2.2197,2.2118,3.0408,3.05,3.0408,3.047,3.0577,3.0593,3.0852,3.1188,3.0713,3.0775,3.1043,3.0615,3.0279,3.0309,3.0101,2.9885,2.9393,2.9369,2.9344,2.9208,2.9347,2.9024,2.8442,2.8882,2.8929,2.8538,2.8501,2.8519,2.8599,2.8128,2.774,2.738,2.694,2.6668,2.6412,2.628,2.6202,2.6032,2.5915,2.5918,2.599,2.5887,2.5604,2.5089,2.5001,2.4716,2.4145,2.3911,2.3782,2.3782,2.3782,2.3728,2.3589,2.3196,2.291,2.2826,2.2142,2.1931,2.2236,2.2062,2.2379,2.2991,2.3413,2.3779,2.4164,2.4445,2.4591,2.4585,2.4688,2.4717,2.4859,2.4947,2.4883,2.4715,2.5232,2.5436,2.5221,2.5189,2.5106,2.4848,2.5336,2.6021,2.6322,2.683,2.7455,2.7685,2.7962,2.8226,2.8322,2.8368,2.8452,2.85,2.85,2.85,2.85,2.848,2.8471,2.8361,2.7733,2.7174,2.6361,2.583,2.5009,2.4252,2.3658,2.3798,2.382,2.3627,2.3679,2.3153,2.3066,2.2908,2.2771,2.2606,2.2548,3.1014,3.1696,3.1281,3.1366,3.1751,3.1782,3.1681,3.1395,3.1151,3.0973,3.0615,2.9999,2.9707,2.9615,2.9261,2.8929,2.8713,2.8713,2.8722,2.8805,2.9175,2.9036,2.8559,2.8636,2.9085,2.974,3.0252,3.0449,3.0373,3.0188,2.9748,2.8892,2.8544,2.7965,2.7124,2.7022,2.6842,2.637,2.6307,2.6257,2.6221,2.6257,2.6177,2.5981,2.5874,2.575,2.5593,2.4457,2.3833,2.3848,2.3813,2.3834,2.3781,2.3394,2.3318,2.3599,2.3125,2.3047,2.3571,2.3569,2.3594,2.4014,2.4205,2.4329,2.4488,2.4635,2.4734,2.481,2.5164,2.5521,2.5618,2.5949,2.594,2.5561,2.5704,2.601,2.6102,2.6007,2.5844,2.5691,2.5901,2.6373,2.6928,2.7385,2.7339,2.7577,2.7577,2.7553,2.7844,2.7976,2.8152,2.8404,2.844,2.85,2.85,2.85,2.85,2.85,2.8109,2.7296,2.6495,2.5799,2.4935,2.4048,2.3452,2.3178,2.3189,2.3222,2.332,2.332,2.3098,2.3043,2.3062,2.2974,2.2849,3.1845,3.2412,3.2011,3.2061,3.2396,3.2411,3.2167,3.1765,3.1503,3.1142,3.0698,3.007,2.9624,2.9362,2.8953,2.8636,2.8433,2.8417,2.8417,2.8442,2.8784,2.8769,2.8476,2.8682,2.9322,3.0331,3.1059,3.1395,3.138,3.1127,3.059,2.9839,2.9285,2.8621,2.7836,2.7771,2.7525,2.7192,2.7159,2.7113,2.7092,2.7134,2.7017,2.6805,2.6692,2.6552,2.6293,2.524,2.4699,2.4627,2.4433,2.4271,2.4261,2.4043,2.4015,2.423,2.4285,2.4379,2.4848,2.4597,2.457,2.4764,2.4726,2.4658,2.4692,2.4799,2.491,2.525,2.5585,2.5982,2.6232,2.6529,2.6693,2.6619,2.6606,2.6664,2.686,2.6484,2.618,2.6139,2.6454,2.6902,2.7157,2.7411,2.7195,2.7361,2.7133,2.6955,2.7351,2.758,2.789,2.819,2.838,2.8428,2.8488,2.85,2.85,2.85,2.8431,2.7458,2.6535,2.6007,2.5284,2.4048,2.3244,2.3146,2.3135,2.3124,2.3178,2.3112,2.3112,2.3091,2.3091,2.3091,2.3004,3.2904,3.2722,3.2724,3.2679,3.2642,3.2651,3.2635,3.2451,3.1888,3.1626,3.1426,3.0775,3.0147,2.9645,2.9436,2.9015,2.8559,2.8417,2.8417,2.8417,2.8488,2.8442,2.8473,2.8999,2.9615,3.027,3.0957,3.1272,3.1204,3.0747,3.0371,3.0085,2.9122,2.8452,2.8313,2.839,2.831,2.8211,2.8267,2.8258,2.8258,2.8298,2.8057,2.7494,2.743,2.7143,2.6635,2.6396,2.6247,2.6098,2.5397,2.5057,2.4969,2.4998,2.5011,2.5064,2.538,2.578,2.5909,2.5426,2.5094,2.5438,2.5085,2.4827,2.4821,2.5014,2.5308,2.5737,2.6022,2.6321,2.674,2.7004,2.7263,2.7676,2.7519,2.7311,2.7031,2.653,2.6203,2.6347,2.7007,2.7483,2.7027,2.7267,2.7169,2.6964,2.6751,2.6688,2.688,2.7111,2.752,2.7854,2.8142,2.8356,2.8404,2.85,2.85,2.85,2.85,2.7866,2.6835,2.6256,2.5231,2.4015,2.3222,2.3135,2.3112,2.3112,2.3112,2.3112,2.3112,2.3112,2.3112,2.3112,2.3112,3.4294,3.4137,3.4052,3.3987,3.3943,3.3958,3.3928,3.3843,3.3166,3.282,3.262,3.1635,3.105,3.0773,2.9806,2.9292,2.9036,2.8605,2.8417,2.8417,2.8417,2.8417,2.8535,2.9076,2.9461,2.9747,3.0329,3.0667,3.0661,3.0454,3.0118,2.9648,2.9276,2.883,2.8498,2.8417,2.8417,2.8417,2.8417,2.8417,2.8417,2.8417,2.8334,2.8181,2.8113,2.8015,2.7831,2.7831,2.7246,2.6279,2.6119,2.6014,2.5942,2.5938,2.6073,2.6412,2.6646,2.7015,2.7265,2.6572,2.6158,2.6232,2.5474,2.4942,2.4955,2.539,2.5704,2.6064,2.6619,2.7257,2.7494,2.7846,2.8343,2.8728,2.8013,2.7399,2.7391,2.6744,2.6238,2.6652,2.6946,2.6994,2.6895,2.6697,2.6541,2.6313,2.6075,2.5934,2.6255,2.6517,2.6854,2.7493,2.7878,2.8152,2.8332,2.8452,2.85,2.85,2.849,2.8421,2.7428,2.6618,2.5158,2.3605,2.3266,2.3112,2.3112,2.3112,2.3112,2.3112,2.3112,2.3112,2.3112,2.3112,2.3112,3.5046,3.4904,3.4737,3.4635,3.457,3.4519,3.4489,3.442,3.4074,3.3674,3.3282,3.2628,3.1912,3.1312,3.0298,2.9648,2.9322,2.8692,2.8433,2.8417,2.8417,2.8417,2.8504,2.8858,2.8984,2.9061,2.9676,2.9931,2.9977,2.9971,2.9747,2.943,2.9113,2.8775,2.8442,2.8417,2.8417,2.8417,2.8417,2.8417,2.8417,2.8417,2.8417,2.8396,2.8417,2.8417,2.8396,2.8402,2.796,2.7264,2.6967,2.6805,2.6732,2.6767,2.6907,2.7228,2.7502,2.7903,2.7966,2.7219,2.6653,2.6539,2.5827,2.5465,2.5486,2.5928,2.6321,2.6755,2.7366,2.7767,2.8139,2.8622,2.9092,2.9233,2.8388,2.7832,2.8121,2.7138,2.6691,2.6799,2.6895,2.6796,2.6628,2.6274,2.6021,2.5793,2.5576,2.5588,2.5733,2.5937,2.625,2.6878,2.7541,2.7866,2.8154,2.831,2.8488,2.85,2.85,2.848,2.7723,2.6772,2.5284,2.3918,2.3441,2.3112,2.3112,2.3112,2.3112,2.3112,2.3112,2.3112,2.3112,2.3112,2.3112,3.5483,3.5308,3.5177,3.5055,3.4972,3.4801,3.4881,3.4751,3.4659,3.4282,3.3728,3.3413,3.249,3.147,3.0529,2.991,2.9347,2.8713,2.8473,2.8417,2.8417,2.8417,2.8433,2.8479,2.8535,2.859,2.9039,2.9239,2.9307,2.9301,2.9301,2.9107,2.8673,2.8479,2.8417,2.8417,2.8417,2.8417,2.8417,2.8417,2.8417,2.8417,2.8417,2.8417,2.8417,2.8417,2.8417,2.8417,2.8334,2.8381,2.7821,2.7493,2.7355,2.7441,2.7451,2.7505,2.7967,2.8338,2.821,2.734,2.675,2.6723,2.6266,2.5963,2.6063,2.6544,2.7052,2.7434,2.774,2.8133,2.8636,2.9195,2.9575,2.9629,2.9123,2.8645,2.8462,2.7625,2.6873,2.6823,2.6799,2.6544,2.6205,2.5985,2.5841,2.5567,2.5363,2.5411,2.5495,2.5661,2.5913,2.6262,2.6926,2.7592,2.788,2.8156,2.8358,2.85,2.85,2.8361,2.7642,2.6639,2.5358,2.4306,2.3626,2.3233,2.3112,2.3112,2.3112,2.3112,2.3112,2.3112,2.3112,2.3112,2.3112,3.6493,3.6025,3.6388,3.6524,3.648,3.6305,3.6182,3.6105,3.5513,3.5136,3.4706,3.3383,3.2536,3.2112,3.0612,2.9522,2.9415,2.8799,2.8417,2.8417,2.8417,2.8411,2.8421,2.8458,2.8433,2.8461,2.8522,2.8636,2.8652,2.8692,2.8615,2.8611,2.855,2.8417,2.8417,2.8417,2.8417,2.8417,2.8417,2.8417,2.8417,2.8417,2.8417,2.8417,2.8417,2.8417,2.8417,2.8417,2.8417,2.8365,2.8251,2.8086,2.8062,2.811,2.8101,2.812,2.8221,2.8411,2.8241,2.7512,2.6924,2.7269,2.6693,2.609,2.6618,2.7168,2.7526,2.7792,2.8125,2.8649,2.9227,2.942,2.9955,3.0292,2.9574,2.8831,2.8917,2.7851,2.6789,2.6424,2.6277,2.6093,2.5588,2.5543,2.5435,2.5306,2.5294,2.5294,2.5363,2.5447,2.5721,2.6021,2.6628,2.7339,2.7796,2.8106,2.837,2.85,2.85,2.8471,2.7753,2.6866,2.5704,2.4648,2.368,2.3386,2.3124,2.3112,2.3112,2.3112,2.3112,2.3112,2.3112,2.3112,2.3112,3.6148,3.5852,3.6015,3.612,3.609,3.5927,3.5993,3.612,3.5796,3.5559,3.5144,3.3605,3.3066,3.3174,3.1349,3.0366,2.999,2.8959,2.8417,2.8417,2.8433,2.8575,2.8861,2.8836,2.8765,2.8504,2.8417,2.8417,2.8417,2.8448,2.8442,2.8417,2.8433,2.8417,2.8417,2.8448,2.8417,2.8417,2.8417,2.8417,2.8417,2.8417,2.8417,2.8417,2.8417,2.8417,2.8417,2.8417,2.8417,2.8417,2.8417,2.8417,2.8417,2.8417,2.8411,2.8417,2.8417,2.8605,2.8507,2.8149,2.7755,2.8002,2.7475,2.7293,2.7392,2.7786,2.8077,2.8248,2.8676,2.9255,2.9843,3.0259,3.0739,3.0857,3.0218,2.9431,2.8915,2.7613,2.6457,2.6105,2.5889,2.5664,2.5399,2.5318,2.5294,2.5294,2.5294,2.5294,2.5294,2.5411,2.5673,2.6024,2.6547,2.7114,2.7652,2.8058,2.8416,2.85,2.85,2.85,2.8219,2.7255,2.6225,2.5179,2.4134,2.3353,2.3112,2.3112,2.3112,2.3112,2.3112,2.3112,2.3112,2.3112,2.3112,3.5338,3.5229,3.5159,3.515,3.513,3.5145,3.5398,3.5746,3.5802,3.5743,3.5282,3.4098,3.3775,3.3751,3.2357,3.1565,3.0949,2.9941,2.9172,2.895,2.8922,2.9169,2.9476,2.9501,2.9353,2.8732,2.8861,2.8852,2.8842,2.8698,2.8852,2.8673,2.8738,2.8805,2.8658,2.8698,2.8775,2.8704,2.8673,2.8535,2.8433,2.8417,2.8417,2.8417,2.8417,2.8417,2.8417,2.8417,2.8417,2.8417,2.8417,2.8417,2.8417,2.8411,2.8513,2.8535,2.8642,2.8851,2.914,2.8938,2.8657,2.8654,2.8601,2.8374,2.8091,2.8351,2.8663,2.8921,2.9282,2.9893,3.0464,3.0825,3.1146,3.1153,3.0704,2.9796,2.861,2.7104,2.6278,2.5892,2.5652,2.5411,2.5351,2.5294,2.5294,2.5306,2.5306,2.5351,2.5375,2.551,2.5844,2.6277,2.6847,2.7399,2.7938,2.8118,2.8452,2.85,2.85,2.85,2.8431,2.7561,2.6547,2.5631,2.468,2.3843,2.32,2.3112,2.3112,2.3112,2.3112,2.3112,2.3112,2.3112,2.3112,3.5038,3.4525,3.5098,3.5351,3.538,3.5603,3.5738,3.592,3.6167,3.6022,3.5437,3.4667,3.3997,3.3582,3.2766,3.1974,3.1542,3.0733,3.0313,2.9977,2.9901,3.0061,3.0168,3.0224,3.0168,3.0109,3.0054,3.0061,2.9947,3.0054,2.963,2.9424,2.9707,2.9738,2.9485,2.967,2.9624,2.9282,2.923,2.903,2.8713,2.8611,2.8611,2.8627,2.8652,2.8596,2.8513,2.8458,2.8417,2.8417,2.8417,2.8464,2.855,2.855,2.8765,2.9052,2.9215,2.9368,2.9559,2.9524,2.9098,2.8732,2.8747,2.8725,2.8642,2.8961,2.9268,2.9558,2.993,3.05,3.1074,3.1246,3.1282,3.1082,3.0365,2.9372,2.8216,2.7136,2.6107,2.5742,2.549,2.5294,2.5294,2.5294,2.5294,2.5363,2.5447,2.5603,2.5769,2.5952,2.6231,2.6724,2.7243,2.7794,2.832,2.8368,2.85,2.85,2.85,2.85,2.8279,2.7662,2.6835,2.609,2.5126,2.4134,2.3626,2.3298,2.3112,2.3112,2.3112,2.3113,2.3112,2.3112,2.3112,3.4422,3.3868,3.4539,3.4832,3.4917,3.5297,3.5662,3.5902,3.6035,3.6068,3.5722,3.5014,3.4759,3.4644,3.3905,3.312,3.2411,3.1219,3.0753,3.0417,3.0402,3.0637,3.0874,3.0914,3.116,3.1329,3.1421,3.0984,3.0457,3.0371,3.0261,3.0094,3.0285,3.0224,3.0033,3.0177,3.0239,2.9953,2.9885,2.9756,2.9433,2.9408,2.9408,2.9424,2.9408,2.943,2.943,2.9424,2.9455,2.9476,2.9467,2.9445,2.9408,2.9408,2.9421,2.9513,2.9738,3.0102,3.0343,3.0485,3.0242,2.9678,2.959,2.9413,2.9226,2.935,2.9806,3.0332,3.0595,3.111,3.1689,3.1486,3.1336,3.1111,3.0271,2.9271,2.8376,2.7523,2.6674,2.5835,2.5541,2.5391,2.5294,2.5294,2.5294,2.5399,2.5555,2.5865,2.6166,2.6421,2.67,2.7205,2.7688,2.801,2.8428,2.8464,2.85,2.85,2.85,2.85,2.8421,2.7946,2.7419,2.6784,2.5726,2.4637,2.4015,2.368,2.3407,2.3167,2.3255,2.3309,2.3167,2.3112,2.3309,3.4207,3.3767,3.4137,3.4374,3.4575,3.492,3.5406,3.5831,3.5932,3.6044,3.6114,3.5429,3.5445,3.5822,3.5322,3.4428,3.3544,3.1898,3.1384,3.0946,3.0946,3.1166,3.1457,3.1657,3.1811,3.2097,3.2198,3.185,3.116,3.0984,3.0784,3.0722,3.0685,3.0685,3.067,3.0876,3.0731,3.063,3.0608,3.0584,3.0432,3.0402,3.0402,3.0402,3.0402,3.0331,3.0233,3.0217,3.0233,3.0248,3.0294,3.034,3.0395,3.0538,3.036,3.0006,3.0322,3.0859,3.1223,3.1528,3.1099,3.0088,3.0498,3.0216,2.9832,2.9833,3.0368,3.1214,3.1499,3.1621,3.197,3.1766,3.1391,3.0943,3.0266,2.9383,2.8586,2.7801,2.7134,2.6418,2.583,2.5516,2.5446,2.5579,2.564,2.5808,2.5976,2.6445,2.6745,2.6938,2.7241,2.7712,2.8118,2.8308,2.8488,2.8476,2.85,2.85,2.85,2.85,2.85,2.8401,2.7886,2.7389,2.6474,2.5463,2.4765,2.4231,2.4112,2.3962,2.3713,2.3626,2.3712,2.3972,2.4263,3.5228,3.5101,3.4516,3.4659,3.52,3.5171,3.5415,3.5956,3.6366,3.6175,3.5822,3.6022,3.5961,3.5791,3.6045,3.5383,3.4482,3.3666,3.2774,3.2013,3.1951,3.2004,3.2227,3.2275,3.222,3.2411,3.2411,3.2343,3.1967,3.1967,3.1773,3.1465,3.169,3.1874,3.1351,3.1659,3.185,3.1395,3.1281,3.1021,3.0602,3.0525,3.054,3.0509,3.0525,3.0586,3.0654,3.067,3.0608,3.0568,3.05,3.0432,3.0479,3.0997,3.121,3.1195,3.1265,3.1355,3.1597,3.182,3.1471,3.0496,3.0628,3.0486,3.0254,3.0558,3.1277,3.1956,3.2065,3.1983,3.2051,3.201,3.1499,3.0848,3.0147,2.9213,2.8394,2.8234,2.7541,2.699,2.641,2.5903,2.562,2.5826,2.6033,2.6205,2.6445,2.6926,2.7298,2.7457,2.7649,2.8082,2.8274,2.8452,2.85,2.85,2.85,2.85,2.85,2.85,2.85,2.85,2.85,2.7906,2.7061,2.6505,2.6007,2.5537,2.5105,2.4797,2.4595,2.4509,2.4456,2.4776,2.5094,3.6136,3.5377,3.5061,3.5331,3.5903,3.5784,3.6024,3.647,3.6638,3.6477,3.6153,3.633,3.6315,3.6053,3.5706,3.5029,3.4412,3.3796,3.3065,3.2565,3.242,3.2411,3.2396,3.2405,3.2411,3.2411,3.2411,3.2411,3.2411,3.2389,3.2189,3.2066,3.222,3.2259,3.1919,3.2251,3.2204,3.2026,3.195,3.1828,3.1613,3.1529,3.1514,3.1498,3.1492,3.1461,3.1467,3.1544,3.1522,3.1529,3.1522,3.1544,3.1575,3.1813,3.1965,3.195,3.195,3.198,3.2031,3.1993,3.1404,3.0859,3.081,3.0641,3.0658,3.1228,3.1847,3.2146,3.2196,3.2051,3.1698,3.1377,3.0761,3.0178,2.9794,2.9233,2.8528,2.841,2.8045,2.7514,2.7039,2.6631,2.6232,2.6193,2.6442,2.6676,2.695,2.7358,2.7707,2.7926,2.8128,2.8368,2.8452,2.8488,2.85,2.85,2.85,2.85,2.85,2.85,2.85,2.85,2.85,2.85,2.7987,2.7531,2.7182,2.6505,2.5767,2.56,2.5526,2.5453,2.5379,2.5379,2.5746,3.7008,3.5914,3.5726,3.6035,3.6629,3.6335,3.6485,3.693,3.6777,3.6623,3.6538,3.6499,3.6499,3.6345,3.5583,3.5121,3.472,3.3481,3.2882,3.2682,3.2482,3.2411,3.2411,3.2411,3.2411,3.2427,3.2411,3.2411,3.2411,3.2405,3.2389,3.2411,3.2358,3.2374,3.2389,3.2389,3.2343,3.2343,3.2334,3.2312,3.2297,3.2312,3.2328,3.2358,3.2411,3.2411,3.2411,3.2343,3.2321,3.2305,3.2259,3.222,3.2266,3.2251,3.2312,3.2358,3.2451,3.2652,3.2567,3.2402,3.1931,3.1519,3.1134,3.0988,3.1463,3.1983,3.2187,3.2187,3.1956,3.1712,3.1323,3.0825,3.0269,2.9762,2.9268,2.8893,2.8646,2.8609,2.8506,2.8105,2.7736,2.7591,2.7194,2.6793,2.6836,2.7121,2.7457,2.7815,2.8056,2.8272,2.8368,2.85,2.85,2.85,2.85,2.85,2.85,2.85,2.85,2.85,2.85,2.85,2.85,2.85,2.85,2.8309,2.7824,2.708,2.6422,2.6432,2.6443,2.6391,2.6339,2.6298,2.6494,3.7901,3.7304,3.6597,3.6723,3.7299,3.6531,3.6494,3.6938,3.677,3.6631,3.6515,3.6499,3.6499,3.6407,3.6191,3.5753,3.5352,3.469,3.3936,3.326,3.2782,3.2666,3.2682,3.2704,3.2596,3.2581,3.2719,3.2689,3.2519,3.2788,3.2596,3.2411,3.2482,3.2435,3.2482,3.2589,3.2651,3.2651,3.262,3.2521,3.2505,3.2512,3.2504,3.2497,3.2451,3.2411,3.2442,3.2612,3.2689,3.2689,3.2719,3.2719,3.2796,3.2766,3.2781,3.2851,3.3121,3.3359,3.3411,3.3171,3.2871,3.2334,3.1836,3.1541,3.1915,3.2078,3.2187,3.2078,3.1743,3.1363,3.107,3.073,3.0011,2.9675,2.9322,2.926,2.9062,2.8945,2.8835,2.8592,2.8486,2.8471,2.8427,2.8092,2.7533,2.7746,2.7854,2.82,2.8248,2.8416,2.844,2.85,2.85,2.85,2.85,2.85,2.85,2.85,2.85,2.85,2.85,2.85,2.85,2.85,2.85,2.85,2.8471,2.7854,2.7428,2.7397,2.7357,2.7296,2.7336,2.7367,2.7622,3.7676,3.7471,3.7187,3.716,3.7267,3.6517,3.6434,3.6753,3.6731,3.6616,3.6499,3.6499,3.6499,3.6407,3.603,3.5768,3.5421,3.4813,3.4367,3.4136,3.3813,3.3689,3.3674,3.3612,3.372,3.3635,3.365,3.3689,3.3736,3.3543,3.3673,3.3527,3.2913,3.2782,3.2844,3.3066,3.3236,3.3421,3.3229,3.3006,3.3013,3.3013,3.302,3.3006,3.3559,3.365,3.3735,3.3705,3.3689,3.3643,3.362,3.3573,3.3543,3.3558,3.3551,3.3582,3.3905,3.4198,3.4334,3.3937,3.3127,3.2598,3.2373,3.2397,3.2273,3.2191,3.1942,3.1703,3.1422,3.1083,3.0223,2.9979,2.9681,2.9561,2.9534,2.9545,2.9536,2.9455,2.9567,2.951,2.9578,2.9643,2.9567,2.9467,2.8849,2.8377,2.8459,2.85,2.85,2.85,2.85,2.85,2.85,2.85,2.85,2.85,2.85,2.85,2.85,2.85,2.85,2.85,2.85,2.85,2.85,2.85,2.85,2.85,2.8319,2.8027,2.8059,2.8179,2.8281,2.8291,2.8381,3.751,3.751,3.751,3.7427,3.7213,3.6678,3.6561,3.673,3.6685,3.6592,3.6499,3.6499,3.6499,3.6345,3.6068,3.5845,3.5683,3.5206,3.4913,3.4682,3.4544,3.452,3.4489,3.4428,3.4297,3.4489,3.4489,3.4405,3.4343,3.4459,3.4551,3.4297,3.3743,3.3528,3.359,3.3775,3.4006,3.4213,3.4067,3.3721,3.3728,3.3713,3.3728,3.3752,3.4151,3.4313,3.432,3.4282,3.4328,3.4328,3.4366,3.4428,3.4459,3.4489,3.4489,3.4566,3.4751,3.5044,3.5071,3.4703,3.3832,3.3612,3.3057,3.2819,3.2421,3.2054,3.1617,3.111,3.0988,3.0671,2.9743,2.9903,2.9952,2.9933,2.9911,2.9935,3.0071,3.0076,3.0337,3.049,3.047,3.0257,3.0325,3.0151,2.9569,2.9029,2.8917,2.8786,2.85,2.85,2.85,2.85,2.85,2.85,2.85,2.85,2.85,2.85,2.85,2.85,2.85,2.85,2.85,2.85,2.85,2.85,2.85,2.85,2.85,2.8461,2.848,2.8461,2.8451,2.8401,2.8431,3.751,3.751,3.751,3.7502,3.7443,3.7128,3.6953,3.6877,3.6639,3.6515,3.6499,3.6499,3.6499,3.6484,3.6345,3.6315,3.6215,3.5737,3.5476,3.5391,3.5083,3.4698,3.4667,3.4744,3.4913,3.4574,3.4728,3.4852,3.469,3.4844,3.5075,3.5221,3.4829,3.4428,3.4505,3.4489,3.4505,3.452,3.4544,3.4482,3.4467,3.4451,3.4459,3.4513,3.4728,3.4882,3.4898,3.4898,3.4913,3.4905,3.4874,3.4867,3.4836,3.4805,3.4775,3.4775,3.5237,3.5498,3.5507,3.5399,3.5159,3.4817,3.4086,3.3228,3.2424,3.1816,3.1149,3.0637,3.0491,3.0459,3.031,3.0328,3.0283,3.0391,3.0383,3.0505,3.0667,3.0817,3.1087,3.1236,3.085,3.0563,3.0743,3.0702,3.0161,2.972,2.9496,2.9157,2.8776,2.8659,2.8707,2.85,2.85,2.85,2.85,2.85,2.85,2.85,2.85,2.85,2.85,2.85,2.85,2.85,2.85,2.85,2.85,2.85,2.85,2.85,2.85,2.849,2.85,2.85,2.85,3.751,3.751,3.751,3.751,3.7458,3.7136,3.6877,3.6677,3.6561,3.6499,3.6499,3.6499,3.6499,3.6499,3.6499,3.6499,3.6438,3.6392,3.6153,3.6107,3.5799,3.586,3.5783,3.5676,3.5753,3.5814,3.5814,3.5729,3.5883,3.5699,3.5837,3.6014,3.5799,3.5599,3.5298,3.5206,3.5322,3.5645,3.5468,3.516,3.516,3.516,3.5175,3.519,3.5522,3.5691,3.5676,3.5645,3.5645,3.5652,3.5645,3.5676,3.5691,3.5683,3.573,3.5768,3.6115,3.6153,3.6161,3.6103,3.585,3.5402,3.4832,3.3757,3.2591,3.2237,3.129,3.0351,3.0281,3.02,2.9893,3.0242,3.0427,3.0902,3.1056,3.1309,3.1499,3.1621,3.1798,3.1848,3.1639,3.1522,3.1586,3.1441,3.0944,3.0576,3.0339,2.9758,2.9304,2.9128,2.9079,2.8657,2.85,2.85,2.851,2.854,2.852,2.85,2.85,2.85,2.85,2.85,2.85,2.85,2.85,2.85,2.85,2.85,2.85,2.85,2.85,2.85,2.85,2.85,2.85,3.751,3.751,3.751,3.7428,3.7324,3.7083,3.6808,3.653,3.6499,3.6499,3.6499,3.6499,3.6499,3.6499,3.6499,3.6499,3.6499,3.6484,3.6484,3.6499,3.6484,3.6392,3.6407,3.6499,3.633,3.6499,3.6499,3.6453,3.6369,3.6453,3.6453,3.6422,3.6499,3.6168,3.5914,3.5899,3.5991,3.6215,3.5991,3.5853,3.5853,3.5845,3.5837,3.5945,3.6176,3.6438,3.6469,3.6499,3.6499,3.6499,3.6499,3.6499,3.6499,3.6499,3.6499,3.6499,3.6499,3.6484,3.6453,3.6453,3.6065,3.5478,3.5254,3.4326,3.2828,3.2026,3.1123,3.0375,3.0298,3.0298,3.0254,3.0612,3.1051,3.154,3.1635,3.1875,3.1929,3.2037,3.2065,3.2151,3.2178,3.2187,3.2187,3.2105,3.1776,3.1487,3.1209,3.0539,2.9912,2.9739,2.9574,2.9216,2.8895,2.8914,2.8806,2.861,2.858,2.851,2.854,2.859,2.85,2.85,2.85,2.85,2.85,2.85,2.85,2.85,2.85,2.85,2.85,2.85,2.85,2.85,2.85,3.751,3.751,3.751,3.7316,3.7045,3.6984,3.6793,3.6507,3.6499,3.6499,3.6499,3.6499,3.6499,3.6499,3.6499,3.6499,3.6499,3.6499,3.6499,3.6499,3.6499,3.6499,3.6499,3.6499,3.6499,3.6499,3.6499,3.6499,3.6499,3.6499,3.6499,3.6499,3.6499,3.6399,3.6353,3.6345,3.6392,3.643,3.6399,3.6292,3.6276,3.6361,3.6315,3.6376,3.6453,3.6499,3.6499,3.6499,3.6499,3.6499,3.6499,3.6499,3.6499,3.6499,3.6499,3.6499,3.6484,3.6361,3.6315,3.6284,3.5938,3.5256,3.4704,3.4087,3.3242,3.2031,3.1265,3.0743,3.0623,3.0892,3.1118,3.153,3.1942,3.2065,3.2065,3.2132,3.2146,3.2173,3.216,3.2187,3.2187,3.2187,3.2187,3.2159,3.2132,3.1991,3.1675,3.1398,3.0806,3.0406,3.0212,2.9967,2.9668,2.9457,2.9285,2.9118,2.8904,2.8912,2.8746,2.8736,2.864,2.852,2.85,2.85,2.85,2.85,2.85,2.85,2.85,2.85,2.85,2.85,2.85,2.85,2.85,3.751,3.751,3.751,3.736,3.7127,3.6884,3.6677,3.6515,3.6499,3.6499,3.6499,3.6499,3.6499,3.6499,3.6499,3.6499,3.6499,3.6499,3.6499,3.6499,3.6499,3.6499,3.6499,3.6499,3.6499,3.6499,3.6499,3.6499,3.6499,3.6499,3.6499,3.6499,3.6499,3.6499,3.6499,3.6499,3.6499,3.6499,3.6499,3.6499,3.6499,3.6499,3.6499,3.6499,3.6499,3.6499,3.6499,3.6499,3.6499,3.6499,3.6499,3.6499,3.6499,3.6499,3.6499,3.643,3.6138,3.5768,3.5706,3.536,3.5021,3.4775,3.4177,3.3447,3.2886,3.2447,3.1729,3.1379,3.1246,3.1561,3.1577,3.1843,3.2132,3.2187,3.2187,3.2187,3.2187,3.2187,3.2187,3.2187,3.2187,3.2187,3.2187,3.2187,3.2169,3.2187,3.2096,3.1877,3.1634,3.1199,3.0915,3.0661,3.0317,3.0072,3.0024,2.989,2.9564,2.9302,2.9175,2.8971,2.8727,2.862,2.854,2.85,2.85,2.85,2.85,2.85,2.85,2.85,2.85,2.85,2.85,2.85,2.85,3.751,3.751,3.751,3.736,3.7082,3.6754,3.6562,3.6507,3.6499,3.6499,3.6499,3.6499,3.6499,3.6499,3.6499,3.6499,3.6499,3.6499,3.6499,3.6499,3.6499,3.6499,3.6499,3.6499,3.6499,3.6499,3.6499,3.6499,3.6499,3.6499,3.6499,3.6499,3.6499,3.6499,3.6499,3.6499,3.6499,3.6499,3.6499,3.6499,3.6499,3.6499,3.6499,3.6469,3.6469,3.6469,3.6453,3.6438,3.6469,3.6499,3.6499,3.6499,3.6499,3.6499,3.6253,3.6122,3.5799,3.5383,3.5137,3.4798,3.4413,3.4136,3.3913,3.3594,3.3135,3.2751,3.2346,3.2049,3.2167,3.2245,3.2071,3.1942,3.2078,3.2187,3.2187,3.2187,3.2187,3.2187,3.2187,3.2187,3.2187,3.2187,3.2187,3.22,3.2187,3.2187,3.2187,3.2114,3.1986,3.1786,3.1583,3.1417,3.1009,3.0649,3.063,3.0548,3.0158,2.9871,2.9781,2.9513,2.9059,2.8882,2.8958,2.8755,2.85,2.8556,2.8624,2.8534,2.85,2.8561,2.8633,2.8585,2.8561,2.85,2.85,3.7495,3.7457,3.7435,3.7241,3.6961,3.6639,3.6507,3.6499,3.6499,3.6499,3.6499,3.6499,3.6499,3.6499,3.6499,3.6499,3.6499,3.6499,3.6499,3.6499,3.6499,3.6499,3.6499,3.6499,3.6499,3.6499,3.6499,3.6499,3.6499,3.6499,3.6499,3.6499,3.6499,3.6499,3.6499,3.6299,3.6299,3.6469,3.6261,3.6122,3.6384,3.6461,3.643,3.6376,3.6345,3.633,3.6284,3.6315,3.6399,3.6345,3.6284,3.6207,3.6161,3.6115,3.5814,3.5506,3.5168,3.4813,3.4505,3.4259,3.399,3.3898,3.4014,3.4062,3.382,3.3643,3.3391,3.3059,3.3122,3.2825,3.2593,3.2218,3.2146,3.2187,3.2187,3.2187,3.2187,3.2237,3.2304,3.2304,3.2277,3.2291,3.244,3.2467,3.2386,3.2304,3.22,3.22,3.2214,3.2146,3.2136,3.2022,3.1652,3.1283,3.1233,3.1097,3.069,3.045,3.047,3.0253,2.9939,2.9677,2.9413,2.929,2.9145,2.8833,2.8761,2.8745,2.8811,2.8945,2.8945,2.8753,2.8693,2.8765,2.8585,3.7412,3.7255,3.6998,3.6838,3.6747,3.6585,3.6499,3.6499,3.6499,3.6499,3.6499,3.6499,3.6499,3.6499,3.6499,3.6499,3.6499,3.6499,3.6499,3.6499,3.6499,3.6499,3.6499,3.6499,3.6499,3.6499,3.6499,3.6499,3.6499,3.6499,3.6499,3.6499,3.6499,3.6484,3.6361,3.6084,3.5984,3.6168,3.5637,3.5699,3.6199,3.5937,3.573,3.5737,3.5722,3.5483,3.5445,3.5529,3.5337,3.5113,3.4998,3.4959,3.4967,3.5013,3.4921,3.4682,3.4321,3.4006,3.3805,3.3728,3.3614,3.3775,3.4059,3.4582,3.48,3.4772,3.4584,3.4242,3.3831,3.3434,3.2983,3.2547,3.2187,3.2187,3.225,3.225,3.225,3.2345,3.244,3.2427,3.24,3.2508,3.2685,3.2712,3.259,3.2454,3.2291,3.2241,3.2341,3.2345,3.2467,3.2375,3.2195,3.194,3.1894,3.1911,3.1657,3.1504,3.1539,3.1228,3.086,3.073,3.0602,3.0179,2.9905,2.9623,2.9363,2.9164,2.9254,2.9376,2.945,2.933,2.9448,2.9544,2.9101,3.6911,3.6749,3.6729,3.6708,3.6677,3.6561,3.6499,3.6499,3.6499,3.6499,3.6499,3.6499,3.6499,3.6499,3.6499,3.6499,3.6499,3.6499,3.6499,3.6499,3.6499,3.6499,3.6499,3.6499,3.6499,3.6499,3.6499,3.6499,3.6499,3.6499,3.6499,3.6469,3.6453,3.6315,3.6099,3.5691,3.546,3.553,3.479,3.4975,3.5637,3.526,3.506,3.5067,3.4952,3.4744,3.4797,3.4905,3.4782,3.4613,3.459,3.4574,3.4613,3.4613,3.4359,3.4044,3.3667,3.3268,3.3129,3.3222,3.3398,3.3698,3.4482,3.516,3.5337,3.5301,3.5368,3.5006,3.429,3.3851,3.3129,3.2632,3.2309,3.2187,3.2508,3.2712,3.2712,3.2762,3.2816,3.283,3.2861,3.3001,3.3168,3.338,3.3285,3.3272,3.3014,3.2901,3.2878,3.2716,3.2783,3.2847,3.2748,3.2644,3.2578,3.2747,3.2868,3.2749,3.2557,3.2413,3.2173,3.2016,3.1795,3.1343,3.0899,3.0485,3.0223,2.9938,2.9739,2.9807,2.9905,2.9977,3.0122,3.0218,2.9833,3.6214,3.6196,3.6412,3.66,3.6662,3.6561,3.6499,3.6499,3.6499,3.6499,3.6499,3.6499,3.6499,3.6499,3.6499,3.6499,3.6499,3.6499,3.6499,3.6499,3.6499,3.6499,3.6499,3.6499,3.6499,3.6499,3.6499,3.6499,3.6499,3.6499,3.6469,3.6415,3.6238,3.6038,3.5552,3.5198,3.4967,3.469,3.4313,3.4205,3.4313,3.4337,3.4278,3.4278,3.4307,3.4269,3.4209,3.4299,3.4276,3.4143,3.3989,3.3958,3.3943,3.3881,3.3682,3.3352,3.3213,3.2875,3.2789,3.3275,3.3475,3.3913,3.499,3.5606,3.5783,3.5845,3.5916,3.5578,3.4863,3.4149,3.3456,3.2726,3.2436,3.239,3.2793,3.3133,3.3146,3.3061,3.2993,3.3033,3.3133,3.3273,3.3512,3.3727,3.3826,3.3867,3.3921,3.3908,3.3799,3.351,3.3398,3.3493,3.3516,3.3426,3.3273,3.3371,3.3593,3.3605,3.34,3.3473,3.3528,3.3532,3.3202,3.2452,3.2,3.161,3.1112,3.0764,3.0573,3.034,3.0552,3.0698,3.0661,3.071,3.0552,3.5578,3.5806,3.5758,3.603,3.6484,3.6476,3.6499,3.6499,3.6499,3.6499,3.6499,3.6499,3.6499,3.6499,3.6499,3.6499,3.6499,3.6499,3.6499,3.6499,3.6499,3.6499,3.6499,3.6499,3.6499,3.6499,3.6499,3.6484,3.6315,3.6361,3.6199,3.5722,3.5691,3.5337,3.469,3.4382,3.4082,3.3875,3.3411,3.3083,3.3465,3.3447,3.3259,3.3281,3.3361,3.2844,3.2641,3.3152,3.3119,3.299,3.292,3.2981,3.3027,3.3074,3.2913,3.2897,3.2759,3.2728,3.282,3.3574,3.3944,3.4398,3.5375,3.6153,3.6253,3.6261,3.6234,3.6085,3.5428,3.4723,3.3957,3.2957,3.2486,3.2789,3.3164,3.3372,3.3471,3.3042,3.2698,3.2739,3.282,3.3051,3.3327,3.3525,3.3683,3.3782,3.403,3.4057,3.4242,3.4111,3.3975,3.412,3.4239,3.4066,3.3886,3.3913,3.4064,3.4151,3.4295,3.4399,3.4673,3.515,3.4731,3.3617,3.3154,3.2845,3.2328,3.1437,3.1273,3.1094,3.1327,3.1453,3.1298,3.1141,3.0925]},{"header":{"parameterUnit":"m.s-1","parameterCategory":1,"la1":31.0,"la2":29.5877,"lo1":-88.7671,"lo2":-86.6584,"dy":0.0162,"dx":0.0185,"nx":115,"ny":88,"refTime":"2024-06-12T18:00:00:Z","depth":0,"parameterNumber":3,"parameterNumberName":"V-component_of_WINDS"},"data":[0.0,0.0,0.0,0.0,0.0,0.0,0.0,0.0,0.0,0.0,0.0,0.0,0.0,0.0,0.0,0.0,0.0,0.0,0.0,0.0,0.0,0.0,0.0,0.0,0.0,0.0,0.0,0.0,0.0,0.0,0.0,0.0,0.0,0.0,0.0,0.0,0.0,0.0,0.0,0.0,0.0,0.0,0.0,0.0,0.0,0.0,0.0,0.0,0.0,0.0,0.0,0.0,0.0,0.0,0.0,0.0,0.0,0.0,0.0,0.0,0.0,0.0,0.0,0.0,0.0,0.0,0.0,0.0,0.0,0.0,0.0,0.0,0.0,0.0,0.0,0.0,0.0,0.0,0.0,0.0,0.0,0.0,0.0,0.0,0.0,0.0,0.0,0.0,0.0,0.0,0.0,0.0,0.0,0.0,0.0,0.0,0.0,0.0,0.0,0.0,0.0,0.0,0.0,0.0,0.0,0.0,0.0,0.0,0.0,0.0,0.0,0.0,0.0,0.0,0.0,0.0,0.0,0.0,0.0,0.0,0.0,0.0,0.0,0.0,0.0,0.0,0.0,0.0,0.0,0.0,0.0,0.0,0.0,0.0,0.0,0.0,0.0,0.0,0.0,0.0,0.0,0.0,0.0,0.0,0.0,0.0,0.0,0.0,0.0,0.0,0.0,0.0,0.0,0.0,0.0,0.0,0.0,0.0,0.0,0.0,0.0,0.0,0.0,0.0,0.0,0.0,0.0,0.0,0.0,0.0,0.0,0.0,0.0,0.0,0.0,0.0,0.0,0.0,0.0,0.0,0.0,0.0,0.0,0.0,0.0,0.0,0.0,0.0,0.0,0.0,0.0,0.0,0.0,0.0,0.0,0.0,0.0,0.0,0.0,0.0,0.0,0.0,0.0,0.0,0.0,0.0,0.0,0.0,0.0,0.0,0.0,0.0,0.0,0.0,0.0,0.0,0.0,0.0,0.0,0.0,0.0,0.0,0.0,0.0,0.0,0.0,0.0,0.0,0.0,0.0,0.0,0.0,0.0,0.0,0.0,0.0,0.0,0.0,0.0,0.0,0.0,0.0,0.0,0.0,0.0,0.0,0.0,0.0,0.0,0.0,0.0,0.0,0.0,0.0,0.0,0.0,0.0,0.0,0.0,0.0,0.0,0.0,0.0,0.0,0.0,0.0,0.0,0.0,0.0,0.0,0.0,0.0,0.0,0.0,0.0,0.0,0.0,0.0,0.0,0.0,0.0,0.0,0.0,0.0,0.0,0.0,0.0,0.0,0.0,0.0,0.0,0.0,0.0,0.0,0.0,0.0,0.0,0.0,0.0,0.0,0.0,0.0,0.0,0.0,0.0,0.0,0.0,0.0,0.0,0.0,0.0,0.0,0.0,0.0,0.0,0.0,0.0,0.0,0.0,0.0,0.0,0.0,0.0,0.0,0.0,0.0,0.0,0.0,0.0,0.0,0.0,0.0,0.0,0.0,0.0,0.0,0.0,0.0,0.0,0.0,0.0,0.0,0.0,0.0,0.0,0.0,0.0,0.0,0.0,0.0,0.0,0.0,0.0,0.0,0.0,0.0,0.0,0.0,0.0,0.0,0.0,0.0,0.0,0.0,0.0,0.0,0.0,0.0,0.0,0.0,0.0,0.0,0.0,0.0,0.0,0.0,0.0,0.0,0.0,0.0,0.0,0.0,0.0,0.0,0.0,0.0,0.0,0.0,0.0,0.0,0.0,0.0,0.0,0.0,0.0,0.0,0.0,0.0,0.0,0.0,0.0,0.0,0.0,0.0,0.0,0.0,0.0,0.0,0.0,0.0,0.0,0.0,0.0,0.0,0.0,0.0,0.0,0.0,0.0,0.0,0.0,0.0,0.0,0.0,0.0,0.0,0.0,0.0,0.0,0.0,0.0,0.0,0.0,0.0,0.0,0.0,0.0,0.0,0.0,0.0,0.0,0.0,0.0,0.0,0.0,0.0,0.0,0.0,0.0,0.0,0.0,0.0,0.0,0.0,0.0,0.0,0.0,0.0,0.0,0.0,0.0,0.0,0.0,0.0,0.0,0.0,0.0,0.0,0.0,0.0,0.0,0.0,0.0,0.0,0.0,0.0,0.0,0.0,0.0,0.0,0.0,0.0,0.0,0.0,0.0,0.0,0.0,0.0,0.0,0.0,0.0,0.0,0.0,0.0,0.0,0.0,0.0,0.0,0.0,0.0,0.0,0.0,0.0,0.0,0.0,0.0,0.0,0.0,0.0,0.0,0.0,0.0,0.0,0.0,0.0,0.0,0.0,0.0,0.0,0.0,0.0,0.0,0.0,0.0,0.0,0.0,0.0,0.0,0.0,0.0,0.0,0.0,0.0,0.0,0.0,0.0,0.0,0.0,0.0,0.0,0.0,0.0,0.0,0.0,0.0,0.0,0.0,0.0,0.0,0.0,0.0,0.0,0.0,0.0,0.0,0.0,0.0,0.0,0.0,0.0,0.0,0.0,0.0,0.0,0.0,0.0,0.0,0.0,0.0,0.0,0.0,0.0,0.0,0.0,0.0,0.0,0.0,0.0,0.0,0.0,0.0,0.0,0.0,0.0,0.0,0.0,0.0,0.0,0.0,0.0,0.0,0.0,0.0,0.0,0.0,0.0,0.0,0.0,0.0,0.0,0.0,0.0,0.0,0.0,0.0,0.0,0.0,0.0,0.0,0.0,0.0,0.0,0.0,0.0,0.0,0.0,0.0,0.0,0.0,0.0,0.0,0.0,0.0,0.0,0.0,0.0,0.0,0.0,0.0,0.0,0.0,0.0,0.0,0.0,0.0,0.0,0.0,0.0,0.0,0.0,0.0,0.0,0.0,0.0,0.0,0.0,0.0,0.0,0.0,0.0,0.0,0.0,0.0,0.0,0.0,0.0,0.0,0.0,0.0,0.0,0.0,0.0,0.0,0.0,0.0,0.0,0.0,0.0,0.0,0.0,0.0,0.0,0.0,0.0,0.0,0.0,0.0,0.0,0.0,0.0,0.0,0.0,0.0,0.0,0.0,0.0,0.0,0.0,0.0,0.0,0.0,0.0,0.0,0.0,0.0,0.0,0.0,0.0,0.0,0.0,0.0,0.0,0.0,0.0,0.0,0.0,0.0,0.0,0.0,0.0,0.0,0.0,0.0,0.0,0.0,0.0,0.0,0.0,0.0,0.0,0.0,0.0,0.0,0.0,0.0,0.0,0.0,0.0,0.0,0.0,0.0,0.0,0.0,0.0,0.0,0.0,0.0,0.0,0.0,0.0,0.0,0.0,0.0,0.0,0.0,0.0,0.0,0.0,0.0,0.0,0.0,0.0,0.0,0.0,0.0,0.0,0.0,0.0,0.0,0.0,0.0,0.0,0.0,0.0,0.0,0.0,0.0,0.0,0.0,0.0,0.0,0.0,0.0,0.0,0.0,0.0,0.0,0.0,0.0,0.0,0.0,0.0,0.0,0.0,0.0,0.0,0.0,0.0,0.0,0.0,0.0,0.0,0.0,0.0,0.0,0.0,0.0,0.0,0.0,0.0,0.0,0.0,0.0,0.0,0.0,0.0,0.0,0.0,0.0,0.0,0.0,0.0,0.0,0.0,0.0,0.0,0.0,0.0,0.0,0.0,0.0,0.0,0.0,0.0,0.0,0.0,0.0,0.0,0.0,0.0,0.0,0.0,0.0,0.0,0.0,0.0,0.0,0.0,0.0,0.0,0.0,0.0,0.0,0.0,0.0,0.0,0.0,0.0,0.0,0.0,0.0,0.0,0.0,0.0,0.0,0.0,0.0,0.0,0.0,0.0,0.0,0.0,0.0,0.0,0.0,0.0,0.0,0.0,0.0,0.0,0.0,0.0,0.0,0.0,0.0,0.0,0.0,0.0,0.0,0.0,0.0,0.0,0.0,0.0,0.0,0.0,0.0,0.0,0.0,0.0,0.0,0.0,0.0,0.0,0.0,0.0,0.0,0.0,0.0,0.0,0.0,0.0,0.0,0.0,0.0,0.0,0.0,0.0,0.0,0.0,0.0,0.0,0.0,0.0,0.0,0.0,0.0,0.0,0.0,0.0,0.0,0.0,0.0,0.0,0.0,0.0,0.0,0.0,0.0,0.0,0.0,0.0,0.0,0.0,0.0,0.0,0.0,0.0,0.0,0.0,0.0,0.0,0.0,0.0,0.0,0.0,0.0,0.0,0.0,0.0,0.0,0.0,0.0,0.0,0.0,0.0,0.0,0.0,0.0,0.0,0.0,0.0,0.0,0.0,0.0,0.0,0.9377,0.0,0.0,0.0,0.0,0.0,0.0,0.0,0.0,0.0,0.0,0.0,0.0,0.0,0.0,0.0,0.0,0.0,0.0,0.0,0.0,0.0,0.0,0.0,0.0,0.0,0.0,0.0,0.0,0.0,0.0,0.0,0.0,0.0,0.0,0.0,0.0,0.0,0.0,0.0,0.0,0.0,0.0,0.0,0.0,0.0,0.0,0.0,0.0,0.0,0.0,0.0,0.0,0.0,0.0,0.0,0.0,0.0,0.0,0.0,0.0,0.0,0.0,0.0,0.0,0.0,0.0,0.0,0.0,0.0,0.0,0.0,0.0,0.0,0.0,0.0,0.0,0.0,0.0,0.0,0.0,0.0,0.0,0.0,0.0,0.0,0.0,0.0,0.0,0.0,0.0,0.0,0.0,0.0,0.0,0.0,0.0,0.0,0.0,0.0,0.0,0.0,0.0,0.0,0.0,0.0,0.0,0.0,0.0,0.0,0.0,0.834,0.859,0.8927,0.9242,0.949,0.0,0.0,0.0,0.0,0.0,0.0,0.0,0.0,0.0,0.0,0.0,0.0,0.0,0.0,0.0,0.0,0.0,0.0,0.0,0.0,0.0,0.0,0.0,0.0,0.0,0.0,0.0,0.0,0.0,0.0,0.0,0.0,0.0,0.0,0.0,0.0,0.0,0.0,0.0,0.0,0.0,0.0,0.0,0.0,0.0,0.0,0.0,0.0,0.0,0.0,0.0,0.0,0.0,0.0,0.0,0.0,0.0,0.0,0.0,0.0,0.0,0.0,0.0,0.0,0.0,0.0,0.0,0.0,0.0,0.0,0.0,0.0,0.0,0.0,0.0,0.0,0.0,0.0,0.0,0.0,0.0,0.0,0.0,0.0,0.0,0.0,0.0,0.0,0.0,0.0,0.0,0.0,0.0,0.0,0.0,0.0,0.0,0.0,0.0,0.0,0.0,0.0,0.0,0.0,0.0,0.0,0.0,0.0,0.0,0.0,0.0,0.0,0.9186,0.9472,0.967,0.0,0.0,0.0,0.0,0.0,0.0,0.0,0.0,0.0,0.0,0.0,0.0,0.0,0.0,0.0,0.0,0.0,0.0,0.0,0.0,0.0,0.0,0.0,0.0,0.0,0.0,0.0,0.0,0.0,0.0,0.0,0.0,0.0,0.0,0.0,0.0,0.0,0.0,0.0,0.0,0.0,0.0,0.0,0.0,0.0,0.0,0.0,0.0,0.0,0.0,0.0,0.0,0.0,0.0,0.0,0.0,0.0,0.0,0.0,0.0,0.0,0.0,0.0,0.0,0.0,0.0,0.0,0.0,0.0,0.0,0.0,0.0,0.0,0.0,0.0,0.0,0.0,0.0,0.0,0.0,0.0,0.0,0.0,0.0,0.0,0.0,0.0,0.0,0.0,0.0,0.0,0.0,0.0,0.0,0.0,0.0,0.0,0.0,0.0,0.0,0.0,0.0,0.0,0.0,0.0,0.0,0.0,0.0,0.0,0.0,0.8921,0.968,1.0016,0.0,1.0219,0.0,0.0,0.0,0.0,0.0,0.0,0.0,0.0,0.0,0.0,0.0,0.0,0.0,0.0,0.0,0.0,0.0,0.0,0.0,0.0,0.0,0.0,0.0,0.0,0.0,0.0,0.0,0.0,0.0,0.0,0.0,0.0,0.0,0.0,0.0,0.0,0.0,0.0,0.0,0.0,0.0,0.0,0.0,0.0,0.0,0.0,0.0,0.0,0.0,0.0,0.0,0.0,0.0,0.0,0.0,0.0,0.0,0.0,0.0,0.0,0.0,0.0,0.0,0.0,0.0,0.0,0.0,0.0,0.0,0.0,0.0,0.0,0.0,0.0,0.0,0.0,0.0,0.0,0.0,0.0,0.0,0.0,0.0,0.0,0.0,0.0,0.0,0.0,0.0,0.0,0.0,0.0,0.0,0.0,0.0,0.0,0.0,0.0,0.0,0.0,0.0,0.0,0.0,0.0,0.0,0.0,0.0,0.0,0.0,0.0,0.9307,0.9785,1.0127,1.031,0.0,0.0,0.0,0.0,0.0,0.0,0.0,0.0,0.0,0.0,0.0,0.0,0.0,0.0,0.0,0.0,0.0,0.0,0.0,0.0,0.0,0.0,0.0,0.0,0.0,0.0,0.0,0.0,0.0,0.0,0.0,0.0,0.0,0.0,0.0,0.0,0.0,0.0,0.0,0.0,0.0,0.0,0.0,0.0,0.0,0.0,0.0,0.0,0.0,0.0,0.0,0.0,0.0,0.0,0.0,0.0,0.0,0.0,0.0,0.0,0.0,0.0,0.0,0.0,0.0,0.0,0.0,0.0,0.0,0.0,0.0,0.0,0.0,0.0,0.0,0.0,0.0,0.0,0.0,0.0,0.0,0.0,0.0,0.0,0.0,0.0,0.0,0.0,0.0,0.0,0.0,0.0,0.0,0.0,0.0,0.0,0.0,0.0,0.0,0.0,0.0,0.0,0.0,0.0,0.0,0.0,0.0,0.0,0.0,0.0,0.9247,0.9709,1.0131,1.0384,1.0382,1.0106,0.0,0.0,0.0,0.0,0.0,0.0,0.0,0.0,0.0,0.0,0.0,0.0,0.0,0.0,0.0,0.0,0.0,0.0,0.0,0.0,0.0,0.0,0.0,0.0,0.0,0.0,0.0,0.0,0.0,0.0,0.0,0.0,0.0,0.0,0.0,0.0,0.0,0.0,0.0,0.0,0.0,0.0,0.0,0.0,0.0,0.0,0.0,0.0,0.0,0.0,0.0,0.0,0.0,0.0,0.0,0.0,0.0,0.0,0.0,0.0,0.0,0.0,0.0,0.0,0.0,0.0,0.0,0.0,0.0,0.0,0.0,0.0,0.0,0.0,0.0,0.0,0.0,0.0,0.0,0.0,0.0,0.0,0.0,0.0,0.0,0.0,0.0,0.0,0.0,0.0,0.0,0.0,0.0,0.0,0.0,0.0,0.0,0.0,0.0,0.0,0.0,0.0,0.0,0.0,0.0,0.0,0.0,0.0,0.0,0.9871,1.0177,1.0992,1.1055,1.0594,0.0,0.0,0.0,0.0,0.0,0.0,0.0,0.0,0.0,0.0,0.0,0.0,0.0,0.0,0.0,0.0,0.0,0.0,0.0,0.0,0.0,0.0,0.0,0.0,0.0,0.0,0.0,0.0,0.0,0.0,0.0,0.0,0.0,0.0,0.0,0.0,0.0,0.0,0.0,0.0,0.0,0.0,0.0,0.0,0.0,0.0,0.0,0.0,0.0,0.0,0.0,0.0,0.0,0.0,0.0,0.0,0.0,0.0,0.0,0.0,0.0,0.0,0.0,0.0,0.0,0.0,0.0,0.0,0.0,0.0,0.0,0.0,0.0,0.0,0.0,0.0,0.0,0.0,0.0,0.0,0.0,0.0,0.0,0.0,0.0,0.0,0.0,0.0,0.0,0.0,0.0,0.0,0.0,0.0,0.0,0.0,0.0,0.0,0.0,0.0,0.0,0.0,0.0,0.0,0.0,0.0,0.0,0.0,0.0,0.8904,0.9489,1.0366,1.152,1.0962,1.0413,0.0,0.0,0.0,0.0,0.0,0.0,0.0,0.0,0.0,0.0,0.0,0.0,0.0,0.0,0.0,0.0,0.0,0.0,0.0,0.0,0.0,0.0,0.0,0.0,0.0,0.0,0.0,0.0,0.0,0.0,0.0,0.0,0.0,0.0,0.0,0.0,0.0,0.0,0.0,0.0,0.0,0.0,0.0,0.0,0.0,0.0,0.0,0.0,0.0,0.0,0.0,0.0,0.0,0.0,0.0,0.0,0.0,0.0,0.0,0.0,0.0,0.0,0.0,0.0,0.0,0.0,0.0,0.0,0.0,0.0,0.0,0.0,0.0,0.0,0.0,0.0,0.0,0.0,0.0,0.0,0.0,0.0,0.0,0.0,0.0,0.0,0.0,0.0,0.0,0.0,0.0,0.0,0.0,0.0,0.0,0.0,0.0,0.0,0.0,0.0,0.0,0.0,0.0,0.0,0.0,0.0,0.0,0.0,0.0,0.9021,0.0,1.0896,0.0,1.0988,1.0346,0.0,0.0,0.0,0.0,0.0,0.0,0.0,0.0,0.0,0.0,0.0,0.0,0.0,0.0,0.0,0.0,0.0,0.0,0.0,0.0,0.0,0.0,0.0,0.0,0.0,0.0,0.0,0.0,0.0,0.0,0.0,0.0,0.0,0.0,0.0,0.0,0.0,0.0,0.0,0.0,0.0,0.0,0.0,0.0,0.0,0.0,0.0,0.0,0.0,0.0,0.0,0.0,0.0,0.0,0.0,0.0,0.0,0.0,0.0,0.0,0.0,0.0,0.0,0.0,0.0,0.0,0.0,0.0,0.0,0.0,0.0,0.0,0.0,0.0,0.0,0.0,0.0,0.0,0.0,0.0,0.0,0.0,0.0,0.0,0.0,0.0,0.0,0.0,0.0,0.0,0.0,0.0,0.0,0.0,0.0,0.0,0.0,0.0,0.0,0.0,0.0,0.0,0.0,0.0,0.0,0.0,0.0,0.0,0.9031,1.0697,1.1495,1.1656,1.1239,1.1178,1.0412,0.0,0.0,0.0,0.0,0.0,0.0,0.0,0.0,0.0,0.0,0.0,0.0,0.0,0.0,0.0,0.0,0.0,0.0,0.0,0.0,0.0,0.0,0.0,0.0,0.0,0.0,0.0,0.0,0.0,0.0,0.0,0.0,0.0,0.0,0.0,0.0,0.0,0.0,0.0,0.0,0.0,0.0,0.0,0.0,0.0,0.0,0.0,0.0,0.0,0.0,0.0,0.0,0.0,0.0,0.0,0.0,0.0,0.0,0.0,0.0,0.0,0.0,0.0,0.0,0.0,0.0,0.0,0.0,0.0,0.0,0.0,0.0,0.0,0.0,0.0,0.0,0.0,0.0,0.0,0.0,0.0,0.0,0.0,0.0,0.0,0.0,0.0,0.0,0.0,0.0,0.0,0.0,0.0,0.0,0.0,0.0,0.0,0.0,0.0,0.0,0.0,0.0,0.0,0.0,0.0,0.0,0.0,0.0,0.0,0.9898,1.0504,1.1175,1.1829,1.1119,1.0468,0.0,0.0,0.0,0.0,0.0,0.0,0.0,0.0,0.0,0.0,0.0,0.0,0.0,0.0,0.0,0.0,0.0,0.0,0.0,0.0,0.0,0.0,0.0,0.0,0.0,0.0,0.0,0.0,0.0,0.0,0.0,0.0,0.0,0.0,0.0,0.0,0.0,0.0,0.0,0.0,0.0,0.0,0.0,0.0,0.0,0.0,0.0,0.0,0.0,0.0,0.0,0.0,0.0,0.0,0.0,0.0,0.0,0.0,0.0,0.0,0.0,0.0,0.0,0.0,0.0,0.0,0.0,0.0,0.0,0.0,0.0,0.0,0.0,0.0,0.0,0.0,0.0,0.0,0.0,0.0,0.0,0.0,0.0,0.0,0.0,0.0,0.0,0.0,0.0,0.0,0.0,0.0,0.0,0.0,0.0,0.0,0.0,0.0,0.0,0.0,0.0,0.0,0.0,0.0,0.0,0.0,0.0,0.0,0.0,1.0461,1.0886,1.1477,1.2222,1.1337,1.0756,1.0506,0.0,0.0,0.0,0.0,0.0,0.0,0.0,0.0,0.0,0.0,0.0,0.0,0.0,0.0,0.0,0.0,0.0,0.0,0.0,0.0,0.0,0.0,0.0,0.0,0.0,0.0,0.0,0.0,0.0,0.0,0.0,0.0,0.0,0.0,0.0,0.0,0.0,0.0,0.0,0.0,0.0,0.0,0.0,0.0,0.0,0.0,0.0,0.0,0.0,0.0,0.0,0.0,0.0,0.0,0.0,0.0,0.0,0.0,0.0,0.0,0.0,0.0,0.0,0.0,0.0,0.0,0.0,0.0,0.0,0.0,0.0,0.0,0.0,0.0,0.0,0.0,0.0,0.0,0.0,0.0,0.0,0.0,0.0,0.0,0.0,0.0,0.0,0.0,0.0,0.0,0.0,0.0,0.0,0.0,0.0,0.0,0.0,0.0,0.0,0.0,0.0,0.0,0.0,0.0,0.0,0.0,0.0,0.0,1.2114,1.2422,1.2507,1.2423,1.19,1.1274,0.0,0.0,0.0,0.0,0.0,0.0,0.0,0.0,0.0,0.0,0.0,0.0,0.0,0.0,0.0,0.0,0.0,0.0,0.0,0.0,0.0,0.0,0.0,0.0,0.0,0.0,0.0,0.0,0.0,0.0,0.0,0.0,0.0,0.0,0.0,0.0,0.0,0.0,0.0,0.0,0.0,0.0,0.0,0.0,0.0,0.0,0.0,0.0,0.0,0.0,0.0,0.0,0.0,0.0,0.0,0.0,0.0,0.0,0.0,0.0,0.0,0.0,0.0,0.0,0.0,0.0,0.0,0.0,0.0,0.0,0.0,0.0,0.0,0.0,0.0,0.0,0.0,0.0,0.0,0.0,0.0,0.0,0.0,0.0,0.0,0.0,0.0,0.0,0.0,0.0,0.0,0.0,0.0,0.0,0.0,0.0,0.0,0.0,0.0,0.0,0.0,0.0,0.0,0.0,0.0,0.0,0.0,0.0,0.0,1.2617,1.3088,1.3407,1.362,1.3056,1.2313,0.0,0.0,0.0,0.0,0.0,0.0,0.0,0.0,0.0,0.0,0.0,0.0,0.0,0.0,0.0,0.0,0.0,0.0,0.0,0.0,0.0,0.0,0.0,0.0,0.0,0.0,0.0,0.0,0.0,0.0,0.0,0.0,0.0,0.0,0.0,0.0,0.0,0.0,0.0,0.0,0.0,0.0,0.0,0.0,0.0,0.0,0.0,0.0,0.0,0.0,0.0,0.0,0.0,0.0,0.0,0.0,0.0,0.0,0.0,0.0,0.0,0.0,0.0,0.0,0.0,0.0,0.0,0.0,0.0,0.0,0.0,0.0,0.0,0.0,0.0,0.0,0.0,0.0,0.0,0.0,0.0,0.0,0.0,0.0,0.0,0.0,0.0,0.0,0.0,0.0,0.0,0.0,0.0,0.0,0.0,0.0,0.0,0.0,0.0,0.0,0.0,0.0,0.0,0.0,0.0,0.0,0.0,0.0,1.1292,1.2904,1.3587,1.4114,1.4471,1.39,1.3073,0.0,0.0,0.0,0.0,0.0,0.0,0.0,0.0,0.0,0.0,0.0,0.0,0.0,0.0,0.0,0.0,0.0,0.0,0.0,0.0,0.0,0.0,0.0,0.0,0.0,0.0,0.0,0.0,0.0,0.0,0.0,0.0,0.0,0.0,0.0,0.0,0.0,0.0,0.0,0.0,0.0,0.0,0.0,0.0,0.0,0.0,0.0,0.0,0.0,0.0,0.0,0.0,0.0,0.0,0.0,0.0,0.0,0.0,0.0,0.0,0.0,0.0,0.0,0.0,0.0,0.0,0.0,0.0,0.0,0.0,0.0,0.0,0.0,0.0,0.0,0.0,0.0,0.0,0.0,0.0,0.0,0.0,0.0,0.0,0.0,0.0,0.0,0.0,0.0,0.0,0.0,0.0,0.0,0.0,0.0,0.0,0.0,0.0,0.0,0.0,0.0,0.0,0.0,0.0,0.0,0.0,0.0,0.0,1.1634,1.2988,1.3961,1.4627,1.4983,1.4496,1.3688,0.0,0.0,0.0,0.0,0.0,0.0,0.0,0.0,0.0,0.0,0.0,0.0,0.0,0.0,0.0,0.0,0.0,0.0,0.0,0.0,0.0,0.0,0.0,0.0,0.0,0.0,0.0,0.0,0.0,0.0,0.0,0.0,0.0,0.0,0.0,0.0,0.0,0.0,0.0,0.0,0.0,0.0,0.0,0.0,0.0,0.0,0.0,0.0,0.0,0.0,0.0,0.0,0.0,0.0,0.0,0.0,0.0,0.0,0.0,0.0,0.0,0.0,0.0,0.0,0.0,0.0,0.0,0.0,0.0,0.0,0.0,0.0,0.0,0.0,0.0,0.0,0.0,0.0,0.0,0.0,0.0,0.0,0.0,0.0,0.0,0.0,0.0,0.0,0.0,0.0,0.0,0.0,0.0,0.0,0.0,0.0,0.0,0.0,0.0,0.0,0.0,0.0,0.0,0.0,0.0,0.0,0.0,0.0,1.1945,1.2988,1.4286,1.4961,1.5013,1.5083,1.4467,0.0,0.0,0.0,0.0,0.0,0.0,0.0,0.0,0.0,0.0,0.0,0.0,0.0,0.0,0.0,0.0,0.0,0.0,0.0,0.0,0.0,0.0,0.0,0.0,0.0,0.0,0.0,0.0,0.0,0.0,0.0,0.0,0.0,0.0,0.0,0.0,0.0,0.0,0.0,0.0,0.0,0.0,0.0,0.0,0.0,0.0,0.0,0.0,1.3572,0.0,0.0,0.0,0.0,0.0,0.0,0.0,0.0,0.0,0.0,0.0,0.0,0.0,0.0,0.0,0.0,0.0,0.0,0.0,0.0,0.0,0.0,0.0,0.0,0.0,0.0,0.0,0.0,0.0,0.0,0.0,0.0,0.0,0.0,0.0,0.0,0.0,0.0,0.0,0.0,0.0,0.0,0.0,0.0,0.0,0.0,0.0,0.0,0.0,0.0,0.0,0.0,0.0,0.0,0.0,0.0,0.0,0.0,0.0,1.2373,1.3323,1.449,1.5194,1.5366,1.5392,1.485,0.0,0.0,0.0,0.0,0.0,0.0,0.0,0.0,0.0,0.0,0.0,0.0,0.0,0.0,0.0,0.0,0.0,0.0,0.0,0.0,0.0,0.0,0.0,0.0,0.0,0.0,0.0,0.0,0.0,0.0,0.0,0.0,0.0,0.0,0.0,0.0,0.0,0.0,0.0,0.0,0.0,0.0,0.0,0.0,0.0,0.0,0.0,0.0,0.0,0.0,0.0,0.0,0.0,0.0,0.0,0.0,0.0,0.0,0.0,0.0,0.0,0.0,0.0,0.0,0.0,0.0,0.0,0.0,0.0,0.0,0.0,0.0,0.0,0.0,0.0,0.0,0.0,0.0,0.0,0.0,0.0,0.0,0.0,0.0,0.0,0.0,0.0,0.0,0.0,0.0,0.0,0.0,0.0,0.0,0.0,0.0,0.0,0.0,0.0,0.0,0.0,0.0,0.0,0.0,0.0,0.0,0.0,1.1623,1.2715,1.3569,1.4569,1.53,1.5677,1.5545,1.5083,1.4321,0.0,0.0,0.0,0.0,0.0,0.0,0.0,0.0,0.0,0.0,0.0,0.0,0.0,0.0,0.0,0.0,0.0,0.0,0.0,0.0,0.0,0.0,0.0,0.0,0.0,0.0,0.0,0.0,0.0,0.0,0.0,0.0,0.0,0.0,0.0,0.0,0.0,0.0,1.3457,1.4554,0.0,0.0,0.0,0.0,0.0,0.0,0.0,0.0,1.5219,0.0,0.0,0.0,0.0,0.0,0.0,0.0,0.0,0.0,0.0,0.0,0.0,0.0,0.0,0.0,0.0,0.0,0.0,0.0,0.0,0.0,0.0,0.0,0.0,0.0,0.0,0.0,0.0,0.0,0.0,0.0,0.0,0.0,0.0,0.0,0.0,0.0,0.0,0.0,0.0,0.0,0.0,0.0,0.0,0.0,0.0,0.0,0.0,0.0,0.0,0.0,0.0,0.0,0.0,0.0,0.0,1.0777,1.1778,1.2547,1.3035,1.4378,1.5142,1.522,1.5496,1.5519,1.513,0.0,0.0,0.0,0.0,0.0,0.0,0.0,0.0,0.0,0.0,0.0,0.0,0.0,0.0,0.0,0.0,0.0,0.0,0.0,0.0,0.0,0.0,0.0,0.0,0.0,0.0,0.0,0.0,0.0,0.0,0.0,0.0,0.0,0.0,0.0,0.0,0.0,0.0,0.0,1.4827,1.5283,0.0,0.0,0.0,0.0,0.0,0.0,0.0,0.0,1.5787,0.0,0.0,0.0,0.0,0.0,0.0,0.0,0.0,0.0,0.0,0.0,0.0,0.0,0.0,0.0,0.0,0.0,0.0,0.0,0.0,0.0,0.0,0.0,0.0,0.0,0.0,0.0,0.0,0.0,0.0,0.0,0.0,0.0,0.0,0.0,0.0,0.0,0.0,0.0,0.0,0.0,0.0,0.0,0.0,0.0,0.0,0.0,0.0,0.0,0.0,0.0,0.0,0.0,0.0,0.0,1.1219,1.1944,1.2859,1.4008,1.4727,1.5339,1.5783,1.5218,1.5031,0.0,0.0,0.0,0.0,0.0,0.0,0.0,0.0,0.0,0.0,0.0,0.0,0.0,0.0,0.0,0.0,0.0,0.0,0.0,0.0,0.0,0.0,0.0,0.0,0.0,0.0,0.0,0.0,0.0,0.0,0.0,0.0,0.0,0.0,0.0,0.0,0.0,0.0,0.0,0.0,1.5366,1.5773,1.577,0.0,0.0,0.0,0.0,0.0,0.0,1.5875,1.5899,0.0,0.0,0.0,0.0,0.0,0.0,0.0,0.0,0.0,0.0,0.0,0.0,0.0,0.0,0.0,0.0,0.0,0.0,0.0,0.0,0.0,0.0,0.0,0.0,0.0,0.0,0.0,0.0,0.0,0.0,0.0,0.0,0.0,0.0,0.0,0.0,0.0,0.0,0.0,0.0,0.0,0.0,0.0,0.0,0.0,0.0,0.0,0.0,0.0,0.0,0.0,0.0,0.0,0.0,0.0,1.156,1.2058,1.3162,1.4875,1.5051,1.5507,1.6306,1.5116,1.4681,0.0,0.0,0.0,0.0,0.0,0.0,0.0,0.0,0.0,0.0,0.0,0.0,0.0,0.0,0.0,0.0,0.0,0.0,0.0,0.0,0.0,0.0,0.0,0.0,0.0,0.0,0.0,0.0,0.0,0.0,0.0,0.0,0.0,0.0,0.0,0.0,0.0,0.0,0.0,0.0,0.0,1.6364,1.6215,1.6325,0.0,0.0,0.0,0.0,1.5921,1.6209,0.0,0.0,0.0,0.0,0.0,0.0,0.0,0.0,0.0,0.0,0.0,0.0,0.0,0.0,0.0,0.0,0.0,0.0,0.0,0.0,0.0,0.0,0.0,0.0,0.0,0.0,0.0,0.0,0.0,0.0,0.0,0.0,0.0,0.0,0.0,0.0,0.0,0.0,0.0,0.0,0.0,0.0,0.0,0.0,0.0,0.0,0.0,0.0,0.0,0.0,0.0,0.0,0.0,0.0,0.0,0.0,1.1555,1.2063,1.3008,1.4406,1.4892,1.5333,1.5871,1.5637,1.5248,0.0,0.0,0.0,0.0,0.0,0.0,0.0,0.0,0.0,0.0,0.0,0.0,0.0,0.0,0.0,0.0,0.0,0.0,0.0,0.0,0.0,0.0,0.0,0.0,0.0,0.0,0.0,0.0,0.0,0.0,0.0,0.0,0.0,0.0,0.0,0.0,0.0,0.0,0.0,0.0,0.0,1.6868,1.6281,1.6698,1.709,0.0,0.0,1.726,1.7772,1.7636,0.0,0.0,0.0,0.0,0.0,0.0,0.0,0.0,0.0,0.0,0.0,0.0,0.0,0.0,0.0,0.0,0.0,0.0,0.0,0.0,0.0,0.0,0.0,0.0,0.0,0.0,0.0,0.0,0.0,0.0,0.0,0.0,0.0,0.0,0.0,0.0,0.0,0.0,0.0,0.0,0.0,0.0,0.0,0.0,0.0,0.0,0.0,0.0,0.0,0.0,0.0,0.0,0.0,0.0,0.0,1.0313,1.1923,1.2193,1.2991,1.4352,1.4863,1.5328,1.5776,1.5136,1.4646,0.0,0.0,0.0,0.0,0.0,0.0,0.0,0.0,0.0,0.0,0.0,0.0,0.0,0.0,0.0,0.0,0.0,0.0,0.0,0.0,0.0,0.0,0.0,0.0,0.0,0.0,0.0,0.0,0.0,0.0,0.0,0.0,0.0,0.0,0.0,0.0,0.0,0.0,0.0,0.0,0.0,0.0,1.7322,1.7574,0.0,0.0,0.0,1.7724,1.7645,0.0,0.0,0.0,0.0,0.0,0.0,0.0,0.0,0.0,0.0,0.0,0.0,0.0,0.0,0.0,0.0,0.0,0.0,0.0,0.0,0.0,0.0,0.0,0.0,0.0,0.0,0.0,0.0,0.0,0.0,0.0,0.0,0.0,0.0,0.0,0.0,0.0,0.0,0.0,0.0,0.0,0.0,0.0,0.0,0.0,0.0,0.0,0.0,0.0,0.0,0.0,0.0,0.0,0.0,0.0,0.0,0.0,1.225,1.2297,1.3047,1.4525,1.4903,1.539,1.593,1.4876,0.0,0.0,0.0,0.0,0.0,0.0,0.0,0.0,0.0,0.0,0.0,0.0,0.0,0.0,0.0,0.0,0.0,0.0,0.0,0.0,0.0,0.0,0.0,0.0,0.0,0.0,0.0,0.9729,0.0,0.0,0.0,0.0,0.0,0.0,0.0,0.0,0.0,0.0,0.0,0.0,0.0,0.0,1.7626,1.8139,1.8318,1.8433,0.0,0.0,1.8255,1.7766,1.8302,1.8288,0.0,0.0,0.0,0.0,0.0,0.0,0.0,0.0,0.0,0.0,0.0,0.0,0.0,0.0,0.0,0.0,0.0,0.0,0.0,0.0,0.0,0.0,0.0,0.0,0.0,0.0,0.0,0.0,0.0,0.0,0.0,0.0,0.0,0.0,0.0,0.0,0.0,0.0,0.0,0.0,0.0,0.0,0.0,0.0,0.0,0.0,0.0,0.0,0.0,0.0,0.0,0.0,0.0,0.0,0.0,1.2229,1.2297,1.3189,1.4977,1.5085,1.5535,1.6405,1.5407,1.4346,0.0,0.0,0.0,0.0,0.0,0.0,0.0,0.0,0.0,0.0,0.0,0.0,0.0,0.0,0.0,0.0,0.0,0.0,0.0,0.0,0.0,0.0,0.0,0.0,0.0,0.0,0.0,0.0,0.0,0.0,0.0,0.0,0.0,0.0,0.0,0.0,0.0,0.0,0.0,0.0,0.0,1.8144,1.8197,1.8676,1.9043,0.0,1.9043,1.9024,1.897,1.9023,1.8706,1.7676,0.0,0.0,0.0,0.0,0.0,0.0,0.0,0.0,0.0,0.0,0.0,0.0,0.0,0.0,0.0,0.0,0.0,0.0,0.0,0.0,0.0,0.0,0.0,0.0,0.0,0.0,0.0,0.0,0.0,0.0,0.0,0.0,0.0,0.0,0.0,0.0,0.0,0.0,0.0,0.0,0.0,0.0,0.0,0.0,0.0,0.0,0.0,0.0,0.0,0.0,0.0,0.0,0.0,1.0709,1.2266,1.255,1.3323,1.4612,1.4949,1.5406,1.6041,1.5304,1.4367,0.0,0.0,0.0,0.0,0.0,0.0,0.0,0.0,0.0,0.0,0.0,0.0,0.0,0.0,0.0,0.0,0.0,0.0,0.0,0.0,0.0,0.0,0.0,0.0,0.0,0.0,0.0,0.0,1.1766,1.2148,1.2393,0.0,0.0,0.0,0.0,0.0,0.0,0.0,0.0,0.0,0.0,1.8323,1.87,1.8947,0.0,0.0,1.9111,1.9111,1.9111,1.9311,1.914,1.8141,1.8242,0.0,0.0,0.0,0.0,0.0,0.0,0.0,0.0,0.0,0.0,0.0,0.0,0.0,0.0,0.0,0.0,0.0,0.0,0.0,0.0,0.0,0.0,0.0,0.0,0.0,0.0,0.0,0.0,0.0,0.0,0.0,0.0,0.0,0.0,0.0,0.0,0.0,0.0,0.0,0.0,0.0,0.0,0.0,0.0,0.0,0.0,0.0,0.0,0.0,0.0,0.0,0.0,1.0909,1.2281,1.2705,1.3389,1.4379,1.4852,1.5328,1.5764,1.522,1.4444,0.0,0.0,0.0,0.0,0.0,0.0,0.0,0.0,0.0,0.0,0.0,0.0,0.0,0.0,0.0,0.0,0.0,0.0,0.0,0.0,0.0,0.0,0.0,0.0,0.0,0.0,0.0,0.0,1.2584,1.2811,1.2218,0.0,0.0,0.0,0.0,0.0,0.0,0.0,0.0,0.0,0.0,1.841,1.9014,1.9111,1.9164,1.9358,1.9227,1.9197,1.9499,1.9808,1.9631,1.852,0.0,0.0,0.0,0.0,0.0,0.0,0.0,0.0,0.0,0.0,0.0,0.0,0.0,0.0,0.0,0.0,0.0,0.0,0.0,0.0,0.0,0.0,0.0,0.0,0.0,0.0,0.0,0.7705,0.0,0.0,0.7899,0.0,0.0,0.0,0.0,0.0,0.0,0.0,0.0,0.0,0.0,0.0,0.0,0.0,0.0,0.0,0.0,0.0,0.0,0.0,0.0,0.0,0.0,1.0914,1.2271,1.2715,1.3395,1.4374,1.4869,1.5316,1.577,1.5218,1.4629,1.4048,0.0,0.0,0.0,0.0,0.0,0.0,0.0,0.0,0.0,0.0,0.0,0.0,0.0,0.0,0.0,0.0,0.0,0.0,0.0,0.0,0.0,0.0,0.0,0.0,0.0,0.0,1.2776,1.3177,1.2922,0.0,0.0,0.0,0.0,0.0,0.0,0.0,0.0,0.0,0.0,1.8197,1.842,1.9029,1.9125,1.9387,1.9982,1.9532,1.9461,2.0415,2.0616,2.0232,0.0,0.0,0.0,0.0,0.0,0.0,0.0,0.0,0.0,0.0,0.0,0.0,0.0,0.0,0.0,0.0,0.0,0.0,0.0,0.0,0.0,0.0,0.0,0.0,0.0,0.0,0.0,0.8863,0.8711,0.0,0.0,0.0,0.0,0.0,0.0,0.0,0.0,0.0,0.0,0.0,1.1586,1.1612,0.0,0.0,0.0,0.0,0.0,0.0,0.0,0.0,0.0,0.0,0.0,0.0,1.1208,1.2271,1.3,1.37,1.4396,1.4857,1.5316,1.5787,1.5556,1.4661,1.3023,0.0,0.0,0.0,0.0,0.0,0.0,0.0,0.0,0.0,0.0,0.0,0.0,0.0,0.0,0.0,0.0,0.0,0.0,0.0,0.0,0.0,0.0,0.0,0.0,0.0,1.2512,0.0,0.0,0.0,0.0,0.0,0.0,0.0,0.0,0.0,0.0,0.0,1.8288,1.8734,1.9532,1.9996,1.9793,2.0103,2.0436,0.0,0.0,0.0,0.0,0.0,0.0,0.0,0.0,0.0,0.0,0.0,0.0,0.0,0.0,2.1937,1.9926,1.9785,2.0038,2.0278,0.0,0.0,0.0,0.0,0.0,0.0,0.0,0.0,0.0,0.0,0.0,0.0,0.0,0.0,0.9812,0.0,0.9708,0.0,0.0,0.0,0.0,0.0,0.0,0.0,0.0,1.1618,1.2089,1.2503,1.2503,1.2343,0.0,1.2047,1.1509,0.0,0.0,0.0,0.0,0.0,0.0,0.0,0.0,1.1514,1.2302,1.3161,1.3863,1.4385,1.4863,1.5322,1.5776,1.5729,1.4747,1.2751,1.1997,1.1318,0.0,0.0,0.0,0.0,0.0,0.0,0.0,0.0,0.0,0.0,0.0,0.0,0.0,0.0,0.0,0.0,0.0,0.0,0.0,0.0,0.0,0.0,0.0,1.3432,0.0,0.0,0.0,0.0,0.0,0.0,0.0,0.0,0.0,1.7888,1.8768,1.9522,1.9725,2.0485,2.0843,2.0465,0.0,0.0,0.0,0.0,0.0,0.0,0.0,2.2329,2.2883,2.3166,2.3337,2.3428,2.3962,2.4467,2.472,0.0,0.0,2.1858,2.1481,2.1641,2.1903,2.182,2.177,2.2021,2.2066,2.207,0.0,0.0,0.0,0.0,0.0,0.0,0.0,0.0,1.0522,1.0566,0.0,1.0681,0.0,0.0,0.0,0.0,0.0,1.1193,0.0,0.0,1.2937,1.335,1.293,1.2925,1.2914,1.2931,1.2909,1.2699,1.224,1.0951,0.0,0.0,0.0,0.0,0.0,0.0,1.1856,1.2376,1.3205,1.3899,1.4425,1.4892,1.5344,1.5809,1.5745,1.4957,1.3416,1.3756,1.3227,1.1484,1.1468,0.0,0.0,0.0,0.0,0.0,0.0,0.0,0.0,0.0,0.0,0.0,0.0,0.0,0.0,0.0,0.0,0.0,0.0,0.0,0.0,1.3749,0.0,0.0,0.0,0.0,0.0,0.0,0.0,0.0,0.0,0.0,1.9353,1.9783,2.0378,2.0944,0.0,0.0,0.0,0.0,2.151,2.2556,2.2219,2.261,2.4637,2.4964,2.4781,2.4231,0.0,0.0,2.5694,2.6016,2.6219,2.5641,2.6393,2.6551,2.4725,2.3639,2.3286,2.3877,2.331,2.2855,2.3419,2.3678,2.3667,1.4183,0.0,0.0,0.0,0.0,1.2017,1.2143,1.2756,1.2125,1.1776,1.1643,1.169,0.0,0.0,0.0,0.0,0.0,0.0,1.2244,1.2539,1.2931,1.3204,1.3408,1.3412,1.3396,1.34,1.3406,1.3169,1.2719,1.2337,1.1572,1.0525,0.0,0.0,0.0,0.0,1.2494,1.3287,1.3885,1.4408,1.4897,1.5361,1.5822,1.6276,1.5909,1.547,1.499,1.4191,1.3619,1.3308,1.2587,0.0,0.0,0.0,0.0,0.0,0.0,0.0,0.0,0.0,0.0,0.0,0.0,0.0,0.0,0.0,0.0,0.0,0.0,0.0,1.2908,1.4313,1.5065,0.0,0.0,0.0,0.0,0.0,0.0,0.0,0.0,0.0,2.1707,2.1607,2.1516,0.0,0.0,2.2354,2.2368,2.3093,2.3914,2.4635,2.4898,0.0,2.6325,2.6054,2.5934,2.6524,2.7143,2.7585,2.779,2.755,2.7439,2.7747,2.7666,2.7328,2.6878,2.6518,2.6363,2.65,2.5997,2.5535,2.5723,2.5783,2.5776,1.612,1.4786,1.4379,1.4363,1.4508,1.3964,1.4075,1.4605,1.4145,1.3647,1.3175,1.3278,1.2729,1.168,1.154,0.0,0.0,0.0,1.2767,1.3183,1.3179,1.3318,1.3604,1.3604,1.3604,1.3604,1.3604,1.3446,1.3167,1.3189,1.2682,1.1711,0.0,0.0,1.1741,1.2262,1.2928,1.368,1.4161,1.4714,1.5367,1.5844,1.6223,1.6482,1.619,1.5914,1.5691,1.5182,1.4769,1.4511,1.394,1.3357,0.0,0.0,0.0,0.0,0.0,0.0,0.0,0.0,0.0,0.0,0.0,1.2008,1.1174,0.0,0.0,0.0,1.2057,1.3139,1.4398,1.5673,0.0,0.0,0.0,0.0,0.0,0.0,0.0,2.0402,2.169,2.273,2.3229,2.3177,2.3116,2.3142,2.3438,2.3728,2.3939,0.0,2.5338,2.608,2.6471,2.6931,2.7657,2.7401,2.7432,2.8397,2.8309,2.8406,2.9081,2.887,2.8752,2.9065,2.8865,2.8584,2.8568,2.8768,2.8747,2.8255,2.805,2.7974,2.7963,2.7742,2.7537,1.752,1.7458,1.6534,1.6109,1.6012,1.5993,1.5974,1.5992,1.6128,1.5711,1.4912,1.5081,1.4384,1.305,1.268,0.0,1.3054,1.3048,1.3319,1.3722,1.3706,1.3712,1.3706,1.3675,1.366,1.3672,1.3613,1.3604,1.3604,1.3604,1.3421,1.3069,1.263,1.261,1.2976,1.3051,1.3317,1.3817,1.4281,1.4966,1.5839,1.6277,1.6518,1.6518,1.6518,1.6242,1.5749,1.6359,1.6233,1.5176,1.5181,1.4696,1.3522,0.0,0.0,0.0,0.0,0.0,0.0,0.0,0.0,0.0,0.0,0.0,0.0,0.0,0.0,0.0,1.4054,0.0,1.6221,1.744,0.0,0.0,0.0,1.9237,1.9387,2.0993,2.1884,2.1365,0.0,0.0,2.4115,2.4574,2.4985,2.5097,2.4962,2.5073,2.5606,2.5758,2.6148,2.7154,2.7306,2.7705,2.8667,2.8817,2.8989,2.9621,2.9329,2.9151,2.9707,2.9853,2.9875,2.9853,2.9902,2.9869,2.9886,3.036,3.0592,2.9324,2.9545,2.9934,2.9864,2.9405,2.8941,1.8621,1.8601,1.8349,1.7801,1.7027,1.6656,1.6568,1.6581,1.5812,1.5455,1.5456,1.5079,1.4759,1.4488,1.4393,1.4403,1.4511,1.4511,1.4556,1.4672,1.4659,1.4676,1.4645,1.4302,1.4132,1.4105,1.3758,1.3604,1.3604,1.3604,1.3935,1.4507,1.3712,1.3171,1.2976,1.4031,1.4637,1.4767,1.523,1.5756,1.6321,1.6439,1.6518,1.6518,1.6518,1.6242,1.5721,1.5481,1.5282,1.5106,1.4731,1.4409,1.4073,1.2889,0.0,0.0,0.0,0.0,0.0,0.0,0.0,0.0,0.0,1.3021,1.1648,0.0,1.3254,0.0,1.4572,1.6097,1.7158,1.7833,0.0,0.0,1.9783,2.0421,2.1827,2.2397,2.3003,2.3798,2.4453,2.4961,2.5305,2.5828,2.636,2.679,2.6023,2.5649,2.6273,2.704,2.7777,2.8464,2.8932,2.9323,2.9534,2.9643,2.9686,2.9859,2.9734,2.9707,2.9869,2.9902,2.9902,2.9902,2.9902,2.9902,2.9918,3.0868,3.1569,3.1277,3.0932,3.0651,3.0657,3.0527,3.0268,1.971,1.9698,1.9708,1.9358,1.8768,1.8031,1.7766,1.7784,1.7226,1.6828,1.6543,1.5854,1.5588,1.5663,1.5735,1.5767,1.575,1.5767,1.5626,1.5397,1.539,1.5271,1.4993,1.4751,1.4614,1.4604,1.4343,1.4219,1.4204,1.4012,1.4199,1.4732,1.4424,1.4035,1.3616,1.4369,1.4892,1.5114,1.5773,1.6239,1.6495,1.6518,1.6518,1.6518,1.6518,1.6247,1.5713,1.5609,1.5351,1.4915,1.4768,1.4513,1.4084,1.3409,1.2841,0.0,0.0,0.0,0.0,0.0,0.0,0.0,0.0,0.0,0.0,0.0,1.4391,1.4672,1.629,1.7698,1.8631,1.9426,2.0291,2.1243,2.1627,2.2303,2.3589,2.4018,2.4462,2.5156,2.551,2.5829,2.6216,2.6673,2.7121,2.747,2.7291,2.7274,2.7642,2.821,2.8755,2.9345,2.9704,2.9902,2.9902,2.9902,2.9902,2.9902,2.9902,2.9902,2.9902,2.9902,2.9902,2.9902,2.9902,3.0015,3.0317,3.1224,3.2071,3.2394,3.2411,3.2334,3.2318,3.2081,3.1731,2.0598,2.0596,2.0598,2.0596,2.0509,1.96,1.9198,1.921,1.9243,1.8738,1.7818,1.7073,1.6748,1.6755,1.6739,1.6774,1.6849,1.6792,1.6551,1.6194,1.6181,1.591,1.5394,1.5258,1.5192,1.5192,1.5051,1.5017,1.4987,1.4672,1.4537,1.4609,1.5065,1.5119,1.4805,1.4727,1.4874,1.5272,1.6081,1.6518,1.6518,1.6518,1.6518,1.6518,1.6518,1.6215,1.5633,1.6054,1.578,1.468,1.4998,1.4838,1.4024,1.3916,1.3513,0.0,1.2619,0.0,0.0,0.0,0.0,0.0,0.0,0.0,0.0,1.5558,1.5882,1.7114,1.8527,1.9624,2.0277,2.1418,2.2365,2.2963,2.3633,2.4262,2.4868,2.5458,2.584,2.5915,2.6436,2.6806,2.6886,2.731,2.7615,2.7812,2.8517,2.9026,2.9167,2.9168,2.9366,2.9842,2.9902,2.9902,2.9918,2.9977,3.0042,2.995,3.0026,2.9994,2.9902,2.9999,3.0058,3.0075,3.0188,3.0404,3.0953,3.1638,3.234,3.2925,3.3508,3.3916,3.389,3.354,3.3222,2.0596,2.0598,2.0596,2.0596,2.0584,2.0379,2.0295,2.0255,1.9815,1.9279,1.8744,1.8312,1.8112,1.8057,1.7302,1.721,1.7654,1.7269,1.7321,1.7672,1.7697,1.7629,1.7461,1.6624,1.6221,1.6168,1.54,1.5017,1.5017,1.5401,1.5788,1.6162,1.6306,1.6576,1.6866,0.0,0.0,0.0,1.6396,1.6518,1.6518,1.6518,1.6518,1.6518,1.6518,0.0,1.5132,1.556,1.5456,1.4684,1.5083,0.0,0.0,0.0,0.0,0.0,0.0,0.0,0.0,0.0,0.0,0.0,1.6955,1.6397,1.5841,1.7042,1.8337,1.9378,2.0189,2.0901,2.1579,2.2281,2.2983,2.3638,2.4318,2.4948,2.5544,2.5732,2.6,2.6546,2.6733,2.6948,2.7314,2.7827,2.8294,2.8691,2.9336,2.971,2.9737,2.971,2.9787,2.988,2.9918,2.9918,2.9902,3.0366,3.0533,3.015,3.0398,3.0474,3.0091,3.0398,3.0689,3.0699,3.1191,3.1602,3.1785,3.239,3.2957,3.3083,3.3656,3.4094,3.4094,3.401,3.3744,2.1384,2.1384,2.1384,2.1384,0.0,2.1396,2.1399,2.1333,2.0498,2.0021,1.977,1.969,1.9631,1.9593,1.8895,1.8734,1.902,1.8581,1.8417,1.8437,1.8503,1.8375,1.8086,1.7551,1.729,1.7272,1.6759,1.6536,1.6532,1.6609,1.6757,1.6996,1.7059,1.7229,1.7491,1.7427,1.7101,1.6513,1.6518,1.6518,1.6518,1.6518,1.6518,1.6518,1.6518,0.0,0.0,0.0,0.0,0.0,0.0,0.0,0.0,0.0,0.0,1.5208,1.5527,1.5889,1.6215,1.652,1.7115,1.8105,1.8458,1.827,1.7447,1.8855,2.0135,2.0949,2.1317,2.1879,2.2837,2.3203,2.3778,2.4716,2.5137,2.5602,2.6153,2.6278,2.6436,2.6705,2.68,2.6966,2.7433,2.7966,2.8507,2.9028,2.9565,2.9918,2.9902,2.9902,2.9902,2.9934,3.0204,3.0393,3.0447,3.0992,3.1353,3.1073,3.1229,3.112,3.0506,3.097,3.1335,3.1072,3.1626,3.2319,3.2767,3.3257,3.3696,3.3895,3.4289,3.4555,3.4454,3.4399,3.4256,2.219,2.219,2.219,2.219,2.219,2.219,2.219,2.2145,0.0,0.0,0.0,2.0887,2.0904,2.086,2.0376,2.0216,2.0322,1.9914,1.9511,1.914,1.9252,1.8991,1.8399,1.8296,1.8267,1.8255,1.8147,1.8093,1.8102,1.782,1.7695,1.7687,1.7843,1.7843,1.7806,1.8145,1.7834,1.6862,1.6724,1.6599,1.6518,1.6518,1.6518,1.6518,1.6518,1.6247,1.5728,1.5786,1.559,1.5072,1.5145,1.5259,1.5433,1.5831,1.6136,1.6392,1.6856,1.7175,1.7244,1.7368,1.7749,1.8473,1.9701,2.019,1.9638,2.0567,2.1458,2.2115,2.2251,2.2776,2.3807,2.4135,2.4643,2.5689,2.5907,2.6197,2.6705,2.68,2.6817,2.691,2.6948,2.7158,2.7744,2.8213,2.87,2.9323,2.9867,3.0156,3.022,3.0237,3.0156,3.0183,3.0678,3.1098,3.1195,3.1709,3.2103,3.1935,3.206,3.1919,3.1438,3.1806,3.2065,3.1751,3.2318,3.319,3.3839,3.4127,3.4406,3.4737,3.5008,3.5114,3.4888,3.4859,3.4783,2.219,2.219,2.219,2.219,2.219,2.219,2.219,2.2193,2.2037,2.1981,2.1953,2.1503,2.1325,2.126,2.0346,2.0282,2.0864,2.0464,2.0332,2.0438,2.0451,2.0143,1.9559,1.9087,1.8881,1.8829,1.8355,1.8093,1.8147,1.8564,1.8774,1.8822,1.9238,1.9233,1.8834,1.8845,1.8575,1.7972,1.7501,1.7029,1.6518,1.6518,1.6518,1.6518,1.6518,1.6242,1.5731,1.6134,1.6134,1.564,1.6032,1.6103,1.5696,1.599,1.5991,1.5666,1.6427,1.7074,1.7463,1.7984,1.8764,1.9768,2.1008,2.1685,2.1612,2.1743,2.2115,2.2722,2.3267,2.3694,2.3961,2.4876,2.555,2.5834,2.6313,2.6697,2.68,2.68,2.6955,2.7314,2.741,2.7799,2.8649,2.8932,2.9421,3.0337,3.0657,3.0963,3.1344,3.1158,3.0813,3.0845,3.1363,3.1773,3.199,3.2465,3.274,3.2081,3.2659,3.2854,3.2146,3.3016,3.3657,3.3641,3.4184,3.4845,3.5297,3.4946,3.4913,3.5144,3.5262,3.5224,3.5143,3.535,3.5481,2.219,2.219,2.219,2.219,2.219,2.219,2.219,2.219,2.219,2.219,2.2173,2.1925,2.1837,2.1773,2.1047,2.0901,2.119,2.0812,2.0655,2.0763,2.0821,2.0394,1.9602,1.9604,1.9144,1.8314,1.8718,1.8745,1.8513,1.9108,1.9428,1.9461,1.9695,1.9679,1.9447,1.9434,1.9177,1.8625,1.7815,1.7255,1.6993,1.6661,1.6518,1.6518,1.6518,1.6398,1.6152,1.6373,1.6385,1.614,1.6378,1.6398,1.6163,1.6517,1.6718,1.672,1.736,1.8112,1.8865,1.9509,2.0226,2.1065,2.1656,2.2129,2.2477,2.2475,2.2765,2.3371,2.374,2.4202,2.4853,2.5456,2.5929,2.6305,2.6625,2.6786,2.68,2.68,2.6979,2.7401,2.7502,2.8053,2.947,2.9635,3.0102,3.1204,3.1376,3.1518,3.2047,3.1851,3.1596,3.159,3.2125,3.2708,3.3091,3.3757,3.4194,3.4289,3.4603,3.4512,3.3961,3.4641,3.5007,3.4855,3.5418,3.6044,3.628,3.6072,3.5892,3.5752,3.578,3.5728,3.5566,3.5678,3.5789,2.219,2.219,2.219,2.219,2.2217,2.2341,2.2313,2.2197,2.219,2.219,2.219,2.219,2.219,2.2149,2.1772,2.1587,2.1565,2.1313,2.1105,2.1026,2.1134,2.0646,1.9755,1.9944,1.93,1.8231,1.8865,1.9056,1.8871,1.9364,1.9682,1.9785,1.9805,1.9805,1.9805,1.9805,1.9591,1.9133,1.826,1.7706,1.7562,1.7124,1.6848,1.6699,1.6699,1.6649,1.6518,1.6518,1.6518,1.6518,1.6626,1.6694,1.6728,1.7285,1.7747,1.808,1.8507,1.9174,2.0102,2.0821,2.1433,2.1951,2.212,2.2394,2.2836,2.3038,2.3337,2.3824,2.4042,2.4573,2.5535,2.595,2.6241,2.6734,2.68,2.68,2.6814,2.6889,2.71,2.7508,2.7737,2.8492,2.9755,3.0198,3.066,3.1662,3.2004,3.2195,3.265,3.2737,3.2682,3.3001,3.3303,3.3792,3.447,3.5036,3.5581,3.6241,3.6208,3.5866,3.5564,3.5995,3.6303,3.5915,3.6329,3.6849,3.7001,3.676,3.6569,3.6377,3.627,3.6105,3.5795,3.5844,3.591,2.219,2.219,2.219,2.219,2.2246,2.2686,2.2622,2.2253,2.219,2.219,2.2258,2.219,2.2209,2.2185,2.2133,2.2166,2.2269,2.2256,2.2032,2.1712,2.1717,2.1413,2.0725,1.9852,1.94,1.9222,1.8537,1.8457,1.8921,1.906,1.9317,1.9747,1.9805,1.9785,1.9798,1.9792,1.9754,1.9717,1.9146,1.8631,1.8148,1.8067,1.7808,1.7342,1.7317,1.7066,1.6606,1.6518,1.6518,1.6543,1.7047,1.7299,1.7411,1.8263,1.883,1.886,1.9316,1.9821,2.0387,2.1337,2.1946,2.2033,2.2524,2.2841,2.2957,2.3467,2.383,2.4027,2.4418,2.504,2.5726,2.6321,2.667,2.6763,2.68,2.68,2.6845,2.7184,2.7559,2.7818,2.8412,2.9348,3.0312,3.0642,3.1046,3.2184,3.2751,3.3352,3.4133,3.4072,3.4395,3.5226,3.5235,3.5089,3.578,3.6102,3.6296,3.637,3.6338,3.6361,3.6474,3.6782,3.7154,3.7038,3.7089,3.7347,3.7397,3.7105,3.654,3.6598,3.6429,3.6144,3.5997,3.5954,3.585,2.219,2.219,2.219,2.219,2.2234,2.2442,2.2578,2.2674,2.2682,2.2831,2.3115,2.3148,2.2803,2.2202,2.219,2.2232,2.2294,2.2286,2.2204,2.2043,2.2031,2.1568,2.071,2.0294,1.9627,1.87,1.8279,1.8287,1.8602,1.9027,1.9349,1.9532,1.9565,1.9558,1.9577,1.9565,1.9591,1.9656,1.9386,1.9194,1.9089,1.853,1.8109,1.7908,1.7865,1.7771,1.754,1.752,1.7496,1.7515,1.774,1.7871,1.7865,1.8294,1.8635,1.8918,1.9978,2.0811,2.1325,2.2083,2.2533,2.2519,2.3119,2.3502,2.3511,2.4068,2.459,2.4979,2.5253,2.5662,2.6284,2.6633,2.68,2.68,2.68,2.68,2.6799,2.7208,2.7659,2.8104,2.8555,2.9485,3.0885,3.1759,3.2399,3.3078,3.3511,3.404,3.4958,3.4761,3.5103,3.6197,3.5991,3.5928,3.6649,3.6881,3.7036,3.739,3.7549,3.7549,3.7526,3.7711,3.7954,3.7952,3.7813,3.7747,3.7829,3.7586,3.7159,3.6956,3.6332,3.5938,3.5889,3.5811,3.5667,2.219,2.2229,2.235,2.2333,2.2209,2.2354,2.2638,2.2979,2.3011,2.3296,2.3782,2.3806,2.3396,2.2686,2.2502,2.2502,2.2618,2.249,2.2417,2.241,2.2417,2.1908,2.1011,2.0656,1.9859,1.8686,1.8342,1.8308,1.8444,1.9053,1.9414,1.9414,1.9414,1.9414,1.9414,1.9433,1.9493,1.9591,1.9532,1.9604,1.9653,1.9051,1.8556,1.843,1.8412,1.8361,1.8192,1.8192,1.8192,1.8192,1.833,1.8424,1.8436,1.8694,1.9117,1.9763,2.0928,2.1838,2.2223,2.2644,2.2986,2.318,2.3664,2.3984,2.4213,2.4721,2.5264,2.5682,2.5958,2.6299,2.6684,2.68,2.68,2.68,2.6773,2.6719,2.6738,2.7201,2.7755,2.8262,2.8824,2.9717,3.1373,3.2626,3.3475,3.3635,3.3908,3.4443,3.5263,3.5202,3.5347,3.6787,3.6567,3.6546,3.7178,3.7284,3.763,3.7919,3.8064,3.8232,3.8411,3.8467,3.8618,3.8537,3.8348,3.8179,3.8118,3.7936,3.7834,3.7226,3.6711,3.6407,3.6593,3.622,3.6005,2.219,2.2301,2.2766,2.2662,2.2265,2.2754,2.2979,2.3071,2.3039,2.3308,2.377,2.3806,2.377,2.3637,2.3127,2.322,2.3561,2.3164,2.2923,2.2875,2.2923,2.2646,2.2068,2.1022,2.0259,1.9739,1.8852,1.8491,1.8701,1.9184,1.9414,1.9437,1.9479,1.9443,1.9431,1.9542,1.9584,1.9578,1.9643,1.9753,1.9785,1.9723,1.939,1.8983,1.8958,1.8751,1.8318,1.8217,1.8217,1.8205,1.87,1.8951,1.9026,1.991,2.0828,2.1802,2.2452,2.279,2.2815,2.2908,2.3186,2.3723,2.3967,2.4181,2.4758,2.5353,2.5751,2.5819,2.6345,2.6694,2.6745,2.6753,2.676,2.6753,2.6625,2.6545,2.656,2.7337,2.7867,2.8503,2.9419,3.051,3.1676,3.3015,3.3611,3.3779,3.4095,3.4824,3.5599,3.5634,3.6056,3.6816,3.708,3.7043,3.7302,3.738,3.7407,3.7608,3.7935,3.8263,3.8502,3.871,3.8929,3.9105,3.8936,3.8716,3.846,3.831,3.8281,3.7979,3.7749,3.7561,3.7281,3.7044,3.6834,2.2923,2.3208,2.3063,2.3079,2.3256,2.3428,2.3509,2.3497,2.3529,2.3605,2.3782,2.3806,2.3806,2.377,2.3236,2.3103,2.3292,2.3445,2.3139,2.261,2.2839,2.2706,2.217,2.1425,2.1016,2.0758,2.0057,1.972,1.9865,2.0397,2.0499,2.0214,2.0166,2.001,1.9728,1.9702,1.9623,1.9372,1.9316,1.9369,1.9556,1.9454,1.9342,1.9279,1.9433,1.9415,1.9246,1.924,1.9227,1.9208,1.9415,1.9516,1.9573,2.0192,2.0907,2.1629,2.217,2.2586,2.29,2.3302,2.3635,2.3917,2.4681,2.516,2.5462,2.5927,2.6251,2.6288,2.634,2.648,2.65,2.6552,2.6593,2.6508,2.6441,2.6565,2.7055,2.7787,2.8566,2.9281,3.0355,3.1449,3.2133,3.3027,3.3866,3.4605,3.4983,3.5451,3.6044,3.6176,3.6322,3.6638,3.6747,3.6708,3.68,3.7193,3.7394,3.7431,3.7637,3.7956,3.8228,3.8495,3.871,3.9199,3.9219,3.9105,3.8769,3.8472,3.8491,3.8727,3.8503,3.8271,3.7894,3.7731,3.7596,2.3473,2.371,2.3412,2.346,2.3782,2.3806,2.3894,2.3982,2.387,2.3894,2.3982,2.387,2.3806,2.3737,2.3412,2.3148,2.3043,2.3364,2.3148,2.2538,2.2819,2.271,2.2241,2.2005,2.1825,2.1635,2.1245,2.1054,2.1049,2.1281,2.1189,2.086,2.0704,2.0423,2.0119,2.0101,1.9958,1.9728,1.966,1.9772,1.9876,1.9828,1.9736,1.9683,1.985,1.9843,1.97,1.9714,1.9746,1.974,1.9734,1.9753,1.9849,2.0308,2.0765,2.1138,2.1787,2.2394,2.2927,2.3504,2.4015,2.4492,2.5224,2.5793,2.5991,2.628,2.6423,2.6418,2.6366,2.6293,2.6245,2.6305,2.6345,2.6335,2.643,2.679,2.7404,2.8259,2.9215,3.0219,3.1478,3.2332,3.2763,3.3566,3.4437,3.5429,3.5652,3.6045,3.6392,3.6499,3.6499,3.6499,3.6538,3.653,3.6592,3.6861,3.6998,3.7035,3.7342,3.7666,3.8048,3.8313,3.8703,3.9192,3.9375,3.9262,3.905,3.8732,3.8852,3.9199,3.9233,3.9059,3.874,3.8447,3.8334,2.3798,2.387,2.3798,2.3846,2.393,2.3942,2.4118,2.4353,2.4009,2.4058,2.4254,2.3946,2.371,2.3734,2.3557,2.3388,2.3003,2.2971,2.2939,2.2859,2.2967,2.2714,2.2221,2.2578,2.2614,2.2321,2.2242,2.2219,2.2243,2.1926,2.1661,2.1392,2.1036,2.0812,2.0601,2.0706,2.0772,2.0672,2.0695,2.0848,2.0976,2.0823,2.0583,2.0226,2.0211,2.0004,1.953,1.9569,1.9604,1.9604,1.9604,1.9669,1.9805,2.0264,2.0617,2.0825,2.1523,2.2317,2.3001,2.3517,2.4396,2.5186,2.5621,2.5894,2.6284,2.6343,2.6313,2.6292,2.633,2.6275,2.6196,2.6274,2.6307,2.6331,2.6676,2.7128,2.7857,2.8644,2.9722,3.1221,3.2502,3.3306,3.369,3.436,3.516,3.5476,3.583,3.6168,3.6292,3.633,3.6438,3.6499,3.6499,3.6499,3.6499,3.6515,3.6523,3.6608,3.7013,3.7401,3.7955,3.8318,3.8858,3.9358,3.9741,3.968,3.9667,3.9395,3.9433,3.9676,3.9726,3.9728,3.9491,3.9203,3.9079,2.4068,2.475,2.4425,2.4506,2.4807,2.4831,2.4738,2.4501,2.4338,2.4185,2.3946,2.3464,2.3236,2.3164,2.2887,2.2614,2.2446,2.2446,2.2466,2.2518,2.2807,2.2698,2.2325,2.2386,2.2762,2.3288,2.3649,2.3776,2.3716,2.3572,2.3215,2.2598,2.2313,2.1849,2.118,2.1184,2.1066,2.0718,2.0704,2.0734,2.0717,2.0734,2.0648,2.0517,2.0558,2.0494,2.0221,1.9827,1.9603,1.9615,1.9597,1.9571,1.9636,2.0035,2.054,2.1017,2.1624,2.2244,2.2911,2.3801,2.4459,2.4949,2.5577,2.6104,2.6303,2.6245,2.6179,2.6215,2.6445,2.6616,2.6659,2.7018,2.7053,2.6687,2.6792,2.7499,2.8799,3.0082,3.1369,3.2497,3.3152,3.3775,3.4505,3.5091,3.5052,3.5337,3.5337,3.5306,3.5699,3.5868,3.6053,3.6376,3.6422,3.6499,3.6499,3.6499,3.6499,3.6499,3.6777,3.7312,3.7861,3.8315,3.8883,3.9484,3.9863,4.0045,4.0039,4.002,3.9963,3.9963,3.9956,3.9988,4.0045,3.9893,3.9626,2.4463,2.5167,2.4855,2.495,2.5282,2.5294,2.5131,2.4789,2.4585,2.4317,2.3997,2.3533,2.3184,2.2979,2.2646,2.2386,2.2202,2.219,2.219,2.2221,2.2514,2.2502,2.2273,2.2422,2.2935,2.3737,2.4266,2.4501,2.4489,2.4305,2.3913,2.3352,2.2919,2.2374,2.176,2.1685,2.1492,2.1221,2.1231,2.1195,2.119,2.1199,2.1096,2.0954,2.0972,2.0897,2.0658,2.0257,2.0056,2.0021,1.9918,1.9808,1.9789,2.0085,2.042,2.089,2.151,2.2108,2.2782,2.3844,2.4651,2.4899,2.5674,2.6198,2.6192,2.6118,2.6093,2.6362,2.661,2.6905,2.7179,2.7517,2.7657,2.7565,2.7551,2.8252,2.9798,3.137,3.2456,3.3288,3.386,3.4452,3.4798,3.5144,3.4867,3.506,3.4767,3.4559,3.5067,3.536,3.5737,3.6122,3.6345,3.6407,3.6484,3.6499,3.6499,3.6499,3.6554,3.7193,3.7809,3.8174,3.8657,3.9484,4.0007,4.0064,4.007,4.0077,4.0045,4.0106,4.0106,4.0096,4.0096,4.0096,3.992,2.5007,2.518,2.521,2.5332,2.5474,2.5495,2.5483,2.5339,2.4886,2.4681,2.4525,2.4058,2.3593,2.3188,2.3011,2.2694,2.2325,2.219,2.219,2.219,2.2258,2.2221,2.2246,2.2682,2.3164,2.3689,2.4173,2.4405,2.4365,2.4062,2.3782,2.3545,2.2778,2.2241,2.2133,2.2193,2.2106,2.2041,2.2097,2.2077,2.2077,2.2121,2.1921,2.1468,2.1455,2.1314,2.1044,2.0937,2.0842,2.0747,2.0372,2.0234,2.0343,2.0277,2.0322,2.0627,2.1226,2.1933,2.2709,2.371,2.4539,2.5052,2.5652,2.6091,2.607,2.6101,2.6279,2.668,2.6947,2.7256,2.772,2.8009,2.8247,2.869,2.8841,2.9545,3.0874,3.2399,3.3238,3.3646,3.4568,3.5237,3.4651,3.4959,3.4813,3.4552,3.4297,3.4198,3.4444,3.4759,3.5283,3.5691,3.6061,3.6315,3.6376,3.6499,3.6499,3.6499,3.6499,3.6937,3.7621,3.8003,3.8691,3.9503,4.002,4.007,4.0106,4.0106,4.0106,4.0106,4.0106,4.0106,4.0106,4.0106,4.0106,2.6019,2.6224,2.6366,2.6449,2.6474,2.6486,2.6462,2.6412,2.5883,2.5628,2.5471,2.4702,2.4245,2.4029,2.33,2.2911,2.2698,2.2362,2.219,2.219,2.219,2.219,2.2294,2.2742,2.3043,2.328,2.3709,2.3973,2.3982,2.3834,2.3597,2.3216,2.2899,2.255,2.2277,2.219,2.219,2.219,2.219,2.219,2.219,2.219,2.2137,2.2017,2.1977,2.1912,2.183,2.183,2.1467,2.0833,2.0626,2.0507,2.0566,2.054,2.0716,2.1198,2.1469,2.1852,2.2563,2.3612,2.43,2.4449,2.546,2.5927,2.5969,2.6336,2.6603,2.6961,2.7565,2.8226,2.8486,2.8851,2.935,2.9928,3.0172,3.0731,3.1648,3.2678,3.3583,3.4151,3.4566,3.4628,3.4482,3.419,3.399,3.3698,3.3412,3.325,3.3643,3.3959,3.439,3.5229,3.5722,3.6053,3.6284,3.6438,3.6499,3.6499,3.6507,3.6561,3.7215,3.7751,3.8716,3.975,3.9995,4.0106,4.0106,4.0106,4.0106,4.0106,4.0106,4.0106,4.0106,4.0106,4.0106,2.6155,2.6377,2.6565,2.6697,2.6782,2.6848,2.6885,2.6847,2.6592,2.6279,2.5988,2.5492,2.4918,2.445,2.3685,2.3216,2.2935,2.2442,2.2202,2.219,2.219,2.219,2.227,2.2546,2.267,2.273,2.3212,2.3424,2.346,2.3469,2.328,2.3019,2.2759,2.2494,2.2221,2.219,2.219,2.219,2.219,2.219,2.219,2.219,2.219,2.2185,2.219,2.219,2.2185,2.2178,2.1919,2.1445,2.1128,2.0954,2.1015,2.0971,2.1141,2.1585,2.1742,2.2022,2.2445,2.3466,2.4077,2.4319,2.5353,2.6155,2.6406,2.6849,2.7256,2.7706,2.8338,2.8738,2.9139,2.9623,3.0092,3.0471,3.1287,3.1964,3.2385,3.3289,3.3972,3.4359,3.4482,3.4336,3.4121,3.3629,3.3306,3.3013,3.2736,3.2752,3.2936,3.3198,3.3598,3.4421,3.5291,3.5706,3.6076,3.6276,3.6484,3.6499,3.6499,3.6515,3.702,3.7642,3.8657,3.9562,3.9869,4.0106,4.0106,4.0106,4.0106,4.0106,4.0106,4.0106,4.0106,4.0106,4.0106,2.5958,2.6097,2.6372,2.6566,2.6804,2.6961,2.7114,2.7059,2.7018,2.6739,2.6337,2.6105,2.5384,2.4532,2.3865,2.3421,2.2967,2.2446,2.2246,2.219,2.219,2.219,2.2202,2.2238,2.2294,2.235,2.2726,2.2883,2.2923,2.2931,2.2931,2.2766,2.2402,2.2238,2.219,2.219,2.219,2.219,2.219,2.219,2.219,2.219,2.219,2.219,2.219,2.219,2.219,2.219,2.2137,2.2173,2.1748,2.1565,2.1613,2.1536,2.1555,2.1707,2.1973,2.2165,2.2389,2.3325,2.4086,2.4407,2.5798,2.6842,2.6989,2.7502,2.8044,2.8408,2.871,2.9117,2.9637,3.0183,3.0576,3.0985,3.215,3.2862,3.3252,3.3925,3.4474,3.439,3.4359,3.4013,3.3559,3.326,3.3075,3.2743,3.2482,3.2543,3.2651,3.2844,3.3167,3.3614,3.4483,3.5375,3.5745,3.6099,3.6338,3.6499,3.6499,3.6608,3.7081,3.7736,3.8608,3.9325,3.976,4.0014,4.0106,4.0106,4.0106,4.0106,4.0106,4.0106,4.0106,4.0106,4.0106,2.6926,2.6672,2.7296,2.757,2.7661,2.7826,2.7889,2.7861,2.7606,2.739,2.7085,2.6081,2.542,2.5075,2.3917,2.3091,2.3007,2.2526,2.219,2.219,2.219,2.2197,2.2217,2.2234,2.2202,2.2261,2.2309,2.2386,2.2398,2.2442,2.2381,2.2354,2.2306,2.219,2.219,2.219,2.219,2.219,2.219,2.219,2.219,2.219,2.219,2.219,2.219,2.219,2.219,2.219,2.219,2.2161,2.2085,2.198,2.2011,2.2012,2.1992,2.2031,2.2123,2.2197,2.2414,2.3303,2.4243,2.4851,2.6004,2.7017,2.7594,2.8149,2.8536,2.8795,2.9125,2.9651,3.0233,3.0399,3.0969,3.1782,3.2505,3.3166,3.3634,3.4144,3.4193,3.3859,3.3651,3.3398,3.2752,3.2712,3.2574,3.2427,3.2411,3.2411,3.2482,3.2589,3.2921,3.3306,3.4121,3.5052,3.5637,3.6014,3.6353,3.6499,3.6499,3.6523,3.6997,3.7599,3.8379,3.9089,3.9728,3.9925,4.0077,4.0106,4.0106,4.0106,4.0106,4.0106,4.0106,4.0106,4.0106,2.6505,2.6348,2.6817,2.7003,2.7042,2.7227,2.7494,2.7747,2.7654,2.761,2.7411,2.6241,2.582,2.5904,2.4465,2.3725,2.3444,2.2638,2.219,2.219,2.2202,2.2337,2.2574,2.2542,2.2474,2.227,2.219,2.219,2.219,2.2214,2.2221,2.219,2.2202,2.219,2.219,2.2214,2.219,2.219,2.219,2.219,2.219,2.219,2.219,2.219,2.219,2.219,2.219,2.219,2.219,2.219,2.219,2.219,2.219,2.219,2.2197,2.219,2.219,2.2362,2.2739,2.3425,2.4367,2.5352,2.6488,2.7397,2.8149,2.8774,2.909,2.9251,2.9679,3.0261,3.0887,3.13,3.1814,3.2216,3.2815,3.3211,3.3429,3.3759,3.3882,3.3413,3.3136,3.2866,3.2528,3.2442,3.2411,3.2411,3.2411,3.2411,3.2411,3.2543,3.2859,3.3328,3.4035,3.4782,3.5452,3.5953,3.6392,3.6499,3.6499,3.6499,3.6693,3.7342,3.8025,3.8726,3.9408,3.9944,4.0106,4.0106,4.0106,4.0106,4.0106,4.0106,4.0106,4.0106,4.0106,2.566,2.561,2.5839,2.595,2.601,2.6349,2.6857,2.7336,2.7519,2.7691,2.7488,2.6625,2.6373,2.634,2.5237,2.4633,2.4153,2.338,2.2779,2.2618,2.2622,2.2815,2.3055,2.3087,2.2959,2.2485,2.2574,2.2554,2.2534,2.2434,2.2554,2.2402,2.2478,2.2518,2.239,2.2434,2.2494,2.2426,2.2402,2.2294,2.2202,2.219,2.219,2.219,2.219,2.219,2.219,2.219,2.219,2.219,2.219,2.219,2.219,2.2197,2.2289,2.2294,2.2378,2.2744,2.3322,2.3881,2.4638,2.5942,2.6949,2.7944,2.8695,2.9342,2.9665,2.9932,3.0289,3.0921,3.1564,3.1921,3.2235,3.2472,3.2818,3.291,3.284,3.2989,3.3054,3.3159,3.2851,3.2543,3.2466,3.2411,3.2411,3.2427,3.2427,3.2466,3.2497,3.2689,3.3097,3.3651,3.442,3.5129,3.5799,3.603,3.6438,3.6499,3.6499,3.6499,3.6554,3.7141,3.7825,3.8404,3.9045,3.9608,4.0033,4.0106,4.0106,4.0106,4.0106,4.0106,4.0106,4.0106,4.0106,2.5442,2.5084,2.5559,2.5743,2.5868,2.6586,2.6991,2.7268,2.7909,2.8064,2.764,2.7039,2.6532,2.6207,2.5571,2.4966,2.463,2.3984,2.3697,2.346,2.34,2.3512,2.3597,2.3653,2.3597,2.3577,2.3521,2.3512,2.3436,2.3521,2.3176,2.3027,2.3236,2.326,2.3075,2.322,2.3184,2.2891,2.2863,2.2706,2.2446,2.2354,2.2354,2.2366,2.2398,2.2342,2.2289,2.2234,2.219,2.219,2.219,2.2226,2.2306,2.2306,2.2474,2.271,2.2851,2.3256,2.411,2.446,2.5561,2.6866,2.7504,2.8228,2.9194,2.9974,3.0275,3.0592,3.0993,3.1583,3.2196,3.2356,3.2376,3.2433,3.2279,3.2266,3.2121,3.2072,3.2239,3.2507,3.2407,3.2411,3.2411,3.2411,3.2411,3.2482,3.2589,3.2789,3.2982,3.3236,3.3612,3.4244,3.4929,3.5614,3.6268,3.633,3.6499,3.6499,3.6499,3.6499,3.6647,3.7065,3.7621,3.8117,3.876,3.9431,3.976,3.9976,4.0106,4.0106,4.0106,4.0083,4.0106,4.0106,4.0106,2.4994,2.4593,2.5065,2.5293,2.5442,2.6178,2.6767,2.7162,2.7697,2.8005,2.7846,2.7325,2.7111,2.7036,2.646,2.5847,2.5294,2.4377,2.4054,2.3818,2.3806,2.3949,2.4121,2.4166,2.4358,2.4491,2.4563,2.4234,2.3862,2.3782,2.3669,2.3565,2.3701,2.3653,2.3517,2.3617,2.3665,2.3428,2.3388,2.33,2.3047,2.3015,2.3015,2.3027,2.3015,2.3019,2.3019,2.3027,2.3051,2.3055,2.3035,2.3031,2.3015,2.3015,2.2999,2.3071,2.326,2.3744,2.4476,2.4673,2.5489,2.7224,2.7578,2.8389,2.9579,3.0359,3.0814,3.1393,3.1682,3.2216,3.2797,3.2586,3.2432,3.2269,3.183,3.151,3.1429,3.1195,3.1491,3.1957,3.2217,3.2335,3.2411,3.2411,3.2411,3.2528,3.2728,3.3106,3.349,3.3836,3.4213,3.486,3.5498,3.5891,3.6407,3.6453,3.6499,3.6499,3.6499,3.6499,3.6561,3.6876,3.7246,3.7681,3.8388,3.9095,3.9503,3.9728,3.9912,4.0052,4.0001,3.9969,4.0052,4.0106,3.9969,2.4824,2.4533,2.4788,2.496,2.5149,2.5736,2.6424,2.7062,2.7478,2.7877,2.8168,2.7649,2.7661,2.7972,2.7565,2.6868,2.6192,2.4936,2.4547,2.4219,2.4219,2.435,2.4549,2.4705,2.4825,2.5063,2.5155,2.487,2.4358,2.4234,2.4078,2.403,2.4014,2.4014,2.4002,2.415,2.405,2.3958,2.3954,2.3922,2.383,2.3806,2.3806,2.3806,2.3806,2.3737,2.3673,2.3661,2.3673,2.3685,2.3722,2.3758,2.3814,2.3886,2.3733,2.3456,2.3717,2.4204,2.4752,2.4743,2.565,2.7616,2.7687,2.8737,2.9995,3.0843,3.1412,3.2306,3.26,3.2727,3.3069,3.2859,3.2488,3.2025,3.1375,3.0761,3.084,3.0843,3.1043,3.1502,3.1986,3.2312,3.2441,3.2759,3.2836,3.3051,3.3267,3.3867,3.4252,3.4498,3.4906,3.5529,3.603,3.6253,3.6484,3.6469,3.6499,3.6499,3.6499,3.6499,3.6499,3.6577,3.6922,3.7268,3.7875,3.8539,3.9014,3.9372,3.9444,3.9536,3.9685,3.976,3.9709,3.9529,3.9329,2.558,2.5488,2.5063,2.5167,2.5618,2.5921,2.6445,2.7156,2.781,2.7963,2.7972,2.8128,2.808,2.7947,2.813,2.7613,2.6895,2.6258,2.5591,2.5011,2.4963,2.499,2.515,2.5216,2.5159,2.5294,2.5294,2.5255,2.4975,2.4975,2.481,2.457,2.4759,2.4903,2.4494,2.4735,2.487,2.4501,2.4425,2.425,2.3962,2.3902,2.3914,2.389,2.3902,2.395,2.399,2.4002,2.3954,2.391,2.387,2.383,2.3866,2.4218,2.4357,2.4345,2.4509,2.4899,2.5658,2.5538,2.6058,2.7777,2.8297,2.9105,3.0403,3.1609,3.2353,3.3055,3.3168,3.3083,3.3154,3.3111,3.26,3.1926,3.1218,3.0734,3.0565,3.0394,3.0604,3.1375,3.1966,3.2328,3.2553,3.2963,3.3321,3.3559,3.3867,3.4483,3.496,3.5183,3.5429,3.5984,3.623,3.6438,3.6499,3.6499,3.6499,3.6499,3.6499,3.6499,3.6499,3.6499,3.6499,3.6907,3.7482,3.7854,3.8174,3.849,3.8774,3.8971,3.9099,3.9176,3.9209,3.8984,3.8757,2.6224,2.5673,2.5444,2.567,2.6145,2.6373,2.687,2.7545,2.8002,2.818,2.8182,2.8368,2.8356,2.8152,2.7866,2.7337,2.6825,2.6345,2.579,2.5414,2.5315,2.5294,2.5282,2.5303,2.5294,2.5294,2.5294,2.5294,2.5294,2.5291,2.5135,2.5039,2.5159,2.5204,2.491,2.5183,2.5147,2.4994,2.4934,2.4867,2.4699,2.4647,2.4635,2.4623,2.4632,2.4607,2.4599,2.4659,2.4656,2.4647,2.4656,2.4659,2.4683,2.4855,2.4946,2.4934,2.4934,2.5211,2.565,2.5821,2.6866,2.8046,2.8904,2.9816,3.1266,3.232,3.2943,3.3252,3.3285,3.3154,3.2788,3.2474,3.182,3.1216,3.0853,3.0471,3.0145,3.0069,3.0223,3.1099,3.1975,3.2468,3.2941,3.3394,3.3844,3.4182,3.4514,3.5037,3.5483,3.5783,3.6022,3.633,3.6438,3.6484,3.6499,3.6499,3.6499,3.6499,3.6499,3.6499,3.6499,3.6499,3.6499,3.6499,3.6846,3.7163,3.7371,3.783,3.8337,3.8449,3.8497,3.8546,3.8595,3.8595,3.8327,2.655,2.6063,2.5957,2.6196,2.6674,2.6779,2.7199,2.7876,2.8109,2.8309,2.8451,2.85,2.85,2.838,2.7769,2.7409,2.7066,2.6114,2.5676,2.5519,2.5363,2.5294,2.5294,2.5294,2.5294,2.5306,2.5294,2.5294,2.5294,2.5303,2.5291,2.5294,2.5267,2.5279,2.5291,2.5291,2.5255,2.5255,2.5234,2.5231,2.5219,2.5231,2.5243,2.5267,2.5294,2.5294,2.5294,2.5255,2.5252,2.524,2.5204,2.5159,2.5195,2.5183,2.5231,2.5267,2.5339,2.5525,2.576,2.6092,2.7121,2.8364,2.9755,3.1022,3.2227,3.3083,3.3294,3.3294,3.3055,3.2803,3.2418,3.1921,3.1345,3.0803,3.0275,2.9904,2.9681,2.9852,3.022,3.1043,3.1995,3.2991,3.347,3.3892,3.433,3.4752,3.5183,3.5622,3.593,3.6207,3.633,3.6499,3.6499,3.6499,3.6499,3.6499,3.6499,3.6499,3.6499,3.6499,3.6499,3.6499,3.6499,3.6499,3.6499,3.6623,3.6944,3.7445,3.7888,3.7881,3.7874,3.791,3.7946,3.7974,3.7838,2.6369,2.7041,2.6619,2.6711,2.7115,2.6908,2.722,2.793,2.8119,2.8299,2.848,2.85,2.85,2.8428,2.826,2.7902,2.7589,2.7042,2.6484,2.5985,2.5612,2.5507,2.5519,2.5522,2.5438,2.5426,2.5534,2.551,2.5378,2.5574,2.5438,2.5294,2.5363,2.5327,2.5363,2.5447,2.5495,2.5495,2.5471,2.5408,2.5396,2.5387,2.5366,2.5375,2.5339,2.5294,2.5318,2.545,2.551,2.551,2.5534,2.5534,2.5595,2.5571,2.5583,2.5652,2.5877,2.6048,2.6236,2.6444,2.7308,2.9034,3.0744,3.2096,3.2959,3.3182,3.3294,3.3182,3.2853,3.246,3.2174,3.1822,3.1078,3.0696,3.0331,3.0283,3.0094,2.999,3.0419,3.11,3.2039,3.3115,3.3972,3.4402,3.4925,3.5354,3.5691,3.6115,3.6176,3.6392,3.6422,3.6499,3.6499,3.6499,3.6499,3.6499,3.6499,3.6499,3.6499,3.6499,3.6499,3.6499,3.6499,3.6499,3.6499,3.6499,3.6523,3.6922,3.7215,3.7237,3.7267,3.7312,3.7282,3.726,3.7096,2.6859,2.7177,2.7003,2.7107,2.7357,2.6959,2.73,2.8011,2.8169,2.8319,2.85,2.85,2.85,2.8428,2.8118,2.7914,2.7628,2.7138,2.682,2.664,2.6388,2.6291,2.6279,2.6231,2.6316,2.6234,2.6246,2.6291,2.6328,2.6162,2.6249,2.615,2.57,2.5612,2.5661,2.582,2.5952,2.6096,2.5961,2.5802,2.5793,2.5793,2.5784,2.5802,2.6205,2.6246,2.6297,2.6303,2.6291,2.6255,2.6222,2.6186,2.6162,2.6174,2.6183,2.6207,2.646,2.6688,2.7021,2.7268,2.8247,3.0051,3.1537,3.2485,3.3075,3.3262,3.3041,3.2811,3.2539,3.2188,3.128,3.1027,3.0718,3.0562,3.0534,3.0578,3.0586,3.0502,3.0936,3.1767,3.2527,3.3414,3.4182,3.4884,3.5447,3.5976,3.6283,3.6499,3.6499,3.6499,3.6499,3.6499,3.6499,3.6499,3.6499,3.6499,3.6499,3.6499,3.6499,3.6499,3.6499,3.6499,3.6499,3.6499,3.6499,3.6499,3.6499,3.6499,3.6616,3.6815,3.6816,3.6723,3.667,3.6662,3.6592,2.719,2.719,2.719,2.7271,2.7364,2.7202,2.7488,2.8041,2.8261,2.8349,2.85,2.85,2.85,2.838,2.8164,2.7974,2.7832,2.7459,2.7231,2.7051,2.6943,2.691,2.6885,2.6837,2.6751,2.6885,2.6885,2.6835,2.6787,2.6861,2.6934,2.6751,2.6318,2.618,2.6229,2.6373,2.6553,2.67,2.6601,2.6346,2.6337,2.6325,2.6337,2.637,2.6652,2.6763,2.6753,2.6739,2.6775,2.6775,2.6789,2.6837,2.6861,2.6885,2.6885,2.6946,2.709,2.7318,2.7663,2.8401,2.9135,3.033,3.1559,3.2198,3.2599,3.2851,3.2704,3.2216,3.2089,3.1744,3.0766,3.0965,3.0999,3.0963,3.0957,3.1016,3.1156,3.1178,3.1794,3.2483,3.3088,3.3494,3.4088,3.4761,3.5258,3.5729,3.597,3.625,3.6499,3.6499,3.6499,3.6499,3.6499,3.6499,3.6499,3.6499,3.6499,3.6499,3.6499,3.6499,3.6499,3.6499,3.6499,3.6499,3.6499,3.6499,3.6499,3.6499,3.6499,3.653,3.6515,3.653,3.6538,3.6577,3.6554,2.719,2.719,2.719,2.72,2.7282,2.7677,2.7878,2.8042,2.8321,2.848,2.85,2.85,2.85,2.8488,2.838,2.8356,2.8262,2.789,2.7685,2.7604,2.7363,2.7063,2.7039,2.7099,2.7231,2.6967,2.7087,2.7183,2.7042,2.7162,2.7342,2.7471,2.7181,2.6868,2.6898,2.6885,2.6898,2.691,2.6943,2.6895,2.6883,2.6871,2.6892,2.6919,2.7087,2.7207,2.7219,2.7219,2.7231,2.721,2.7186,2.7195,2.7171,2.7147,2.7123,2.7123,2.7483,2.7688,2.7804,2.8939,2.9535,2.9967,3.1029,3.1635,3.1569,3.1851,3.2151,3.1587,3.1592,3.1541,3.1387,3.1423,3.1359,3.1471,3.1479,3.1606,3.1774,3.1929,3.2509,3.2826,3.3082,3.3427,3.3976,3.4512,3.4985,3.536,3.5623,3.5926,3.6258,3.6375,3.6312,3.6499,3.6499,3.6499,3.6499,3.6499,3.6499,3.6499,3.6499,3.6499,3.6499,3.6499,3.6499,3.6499,3.6499,3.6499,3.6499,3.6499,3.6499,3.6499,3.6499,3.6507,3.6499,3.6499,3.6499,2.719,2.719,2.719,2.719,2.7262,2.7699,2.8042,2.8303,2.8453,2.85,2.85,2.85,2.85,2.85,2.85,2.85,2.8452,2.8416,2.8214,2.8178,2.7938,2.7986,2.7926,2.7842,2.7902,2.795,2.795,2.7868,2.7988,2.7844,2.7952,2.8106,2.7938,2.7781,2.7532,2.7459,2.7565,2.7818,2.7664,2.7423,2.7423,2.7423,2.7435,2.7447,2.7721,2.7854,2.7842,2.7818,2.7818,2.7808,2.7818,2.7842,2.7854,2.7863,2.7899,2.7914,2.82,2.8214,2.8268,2.8782,2.9128,2.964,3.0129,3.0781,3.1114,3.1369,3.1273,3.1156,3.1306,3.1222,3.0921,3.1316,3.1491,3.1982,3.2159,3.2404,3.26,3.2727,3.3018,3.3105,3.3305,3.3308,3.365,3.3919,3.4347,3.4675,3.4882,3.5405,3.5807,3.595,3.599,3.6352,3.6499,3.6499,3.6492,3.6468,3.6484,3.6499,3.6499,3.6499,3.6499,3.6499,3.6499,3.6499,3.6499,3.6499,3.6499,3.6499,3.6499,3.6499,3.6499,3.6499,3.6499,3.6499,3.6499,2.719,2.719,2.719,2.7302,2.7477,2.777,2.8132,2.8461,2.85,2.85,2.85,2.85,2.85,2.85,2.85,2.85,2.85,2.8488,2.8488,2.85,2.8488,2.8416,2.8428,2.85,2.8368,2.85,2.85,2.8464,2.8382,2.8464,2.8464,2.844,2.85,2.8258,2.8044,2.8032,2.8104,2.8262,2.8072,2.7964,2.7964,2.7974,2.7984,2.8068,2.8248,2.8452,2.8476,2.85,2.85,2.85,2.85,2.85,2.85,2.85,2.85,2.85,2.85,2.8488,2.8496,2.8496,2.8767,2.8874,2.9207,2.961,3.0147,3.0292,3.0385,3.0475,3.1017,3.1289,3.1278,3.1665,3.2137,3.2643,3.2741,3.2971,3.3027,3.314,3.3168,3.3275,3.3303,3.3294,3.3294,3.3373,3.3632,3.3877,3.4133,3.4708,3.5275,3.5421,3.5559,3.5879,3.6163,3.6147,3.6234,3.6414,3.6437,3.6492,3.6468,3.6429,3.6499,3.6499,3.6499,3.6499,3.6499,3.6499,3.6499,3.6499,3.6499,3.6499,3.6499,3.6499,3.6499,3.6499,3.6499,2.719,2.719,2.719,2.7455,2.782,2.7901,2.8153,2.849,2.85,2.85,2.85,2.85,2.85,2.85,2.85,2.85,2.85,2.85,2.85,2.85,2.85,2.85,2.85,2.85,2.85,2.85,2.85,2.85,2.85,2.85,2.85,2.85,2.85,2.8438,2.8402,2.838,2.8416,2.843,2.8406,2.8322,2.831,2.8392,2.8356,2.8404,2.8464,2.85,2.85,2.85,2.85,2.85,2.85,2.85,2.85,2.85,2.85,2.85,2.8488,2.8392,2.8356,2.8332,2.8077,2.8028,2.8307,2.835,2.8564,2.9079,2.9476,3.0047,3.0724,3.1556,3.2154,3.2597,3.3041,3.3168,3.3168,3.3238,3.3252,3.328,3.3266,3.3294,3.3294,3.3294,3.3294,3.332,3.3347,3.3455,3.3727,3.3985,3.4497,3.4824,3.4967,3.5203,3.5455,3.5655,3.5823,3.5958,3.6155,3.6124,3.6281,3.6289,3.639,3.6484,3.6499,3.6499,3.6499,3.6499,3.6499,3.6499,3.6499,3.6499,3.6499,3.6499,3.6499,3.6499,3.6499,2.719,2.719,2.719,2.7362,2.7645,2.7968,2.8271,2.848,2.85,2.85,2.85,2.85,2.85,2.85,2.85,2.85,2.85,2.85,2.85,2.85,2.85,2.85,2.85,2.85,2.85,2.85,2.85,2.85,2.85,2.85,2.85,2.85,2.85,2.85,2.85,2.85,2.85,2.85,2.85,2.85,2.85,2.85,2.85,2.85,2.85,2.85,2.85,2.85,2.85,2.85,2.85,2.85,2.85,2.85,2.85,2.843,2.8202,2.7914,2.7866,2.758,2.7315,2.7123,2.7156,2.7191,2.7442,2.805,2.8773,2.9696,3.0622,3.1526,3.2362,3.292,3.3238,3.3294,3.3294,3.3294,3.3294,3.3294,3.3294,3.3294,3.3294,3.3294,3.3294,3.3294,3.3312,3.3294,3.3382,3.3591,3.3793,3.4142,3.4373,3.4599,3.4876,3.5113,3.5154,3.5268,3.5567,3.5784,3.5887,3.6077,3.6297,3.6406,3.6468,3.6499,3.6499,3.6499,3.6499,3.6499,3.6499,3.6499,3.6499,3.6499,3.6499,3.6499,3.6499,2.719,2.719,2.719,2.7362,2.7706,2.8139,2.8389,2.849,2.85,2.85,2.85,2.85,2.85,2.85,2.85,2.85,2.85,2.85,2.85,2.85,2.85,2.85,2.85,2.85,2.85,2.85,2.85,2.85,2.85,2.85,2.85,2.85,2.85,2.85,2.85,2.85,2.85,2.85,2.85,2.85,2.85,2.85,2.85,2.8476,2.8476,2.8476,2.8464,2.8452,2.8476,2.85,2.85,2.85,2.85,2.85,2.8308,2.819,2.7938,2.7613,2.7421,2.7157,2.6856,2.664,2.6481,2.6602,2.6862,2.736,2.8492,2.9609,3.0625,3.1584,3.2369,3.3041,3.3182,3.3294,3.3294,3.3294,3.3294,3.3294,3.3294,3.3294,3.3294,3.3294,3.3294,3.3308,3.3294,3.3294,3.3294,3.3364,3.3486,3.3623,3.3813,3.3968,3.4288,3.4585,3.4602,3.47,3.5039,3.5285,3.5335,3.5584,3.6006,3.6248,3.6263,3.6374,3.6499,3.653,3.6576,3.6522,3.6499,3.6576,3.6669,3.6607,3.6576,3.6499,3.6499,2.721,2.723,2.726,2.7557,2.7931,2.8321,2.849,2.85,2.85,2.85,2.85,2.85,2.85,2.85,2.85,2.85,2.85,2.85,2.85,2.85,2.85,2.85,2.85,2.85,2.85,2.85,2.85,2.85,2.85,2.85,2.85,2.85,2.85,2.85,2.85,2.8344,2.8344,2.8476,2.8298,2.819,2.8394,2.8454,2.843,2.8404,2.838,2.8368,2.8332,2.8356,2.8406,2.838,2.8332,2.8272,2.8236,2.82,2.795,2.7709,2.7445,2.7169,2.6928,2.6736,2.6541,2.6469,2.6574,2.6702,2.6947,2.7198,2.8299,2.9425,3.0433,3.1491,3.2345,3.2964,3.3252,3.3294,3.3294,3.3294,3.3294,3.3327,3.3398,3.3398,3.3369,3.3383,3.3538,3.3566,3.3482,3.3398,3.3308,3.3308,3.3377,3.3415,3.3533,3.3615,3.3776,3.4065,3.4085,3.4235,3.4574,3.476,3.4898,3.5266,3.5839,3.5981,3.602,3.6271,3.6538,3.6636,3.6668,3.673,3.6876,3.7069,3.7069,3.6823,3.6746,3.6838,3.6607,2.7291,2.7473,2.7817,2.8028,2.8149,2.8391,2.85,2.85,2.85,2.85,2.85,2.85,2.85,2.85,2.85,2.85,2.85,2.85,2.85,2.85,2.85,2.85,2.85,2.85,2.85,2.85,2.85,2.85,2.85,2.85,2.85,2.85,2.85,2.8488,2.8392,2.8176,2.8082,2.8226,2.7796,2.7844,2.825,2.8046,2.7899,2.789,2.7878,2.7676,2.7661,2.7712,2.7546,2.7387,2.7313,2.7267,2.7258,2.7294,2.7222,2.7051,2.6784,2.6553,2.6397,2.6337,2.6262,2.6373,2.658,2.6988,2.7281,2.7474,2.8084,2.9197,3.0262,3.1331,3.2254,3.2832,3.3294,3.3294,3.3341,3.3341,3.3341,3.344,3.3538,3.3524,3.3496,3.3608,3.3791,3.3819,3.3692,3.3552,3.3383,3.335,3.3471,3.3549,3.3675,3.3709,3.3449,3.3585,3.3682,3.4015,3.4491,3.4683,3.4836,3.5219,3.5697,3.604,3.6329,3.6427,3.6602,3.6806,3.7038,3.7245,3.7422,3.76,3.7715,3.7562,3.7692,3.7815,3.7269,2.7018,2.727,2.7914,2.8199,2.8239,2.8421,2.85,2.85,2.85,2.85,2.85,2.85,2.85,2.85,2.85,2.85,2.85,2.85,2.85,2.85,2.85,2.85,2.85,2.85,2.85,2.85,2.85,2.85,2.85,2.85,2.85,2.8476,2.8464,2.8356,2.8188,2.7854,2.7673,2.7743,2.7135,2.7279,2.7796,2.7517,2.7361,2.7351,2.7277,2.7099,2.7126,2.721,2.7114,2.6982,2.6979,2.6967,2.6982,2.6982,2.6799,2.6568,2.6289,2.6006,2.5898,2.597,2.6093,2.6313,2.6895,2.7423,2.7577,2.7813,2.845,2.9504,3.0304,3.1343,3.2132,3.2775,3.3148,3.3294,3.3608,3.3819,3.3819,3.3852,3.3908,3.3922,3.3973,3.4137,3.4328,3.4585,3.4487,3.4473,3.4206,3.407,3.4065,3.3896,3.3967,3.4014,3.3893,3.3748,3.392,3.4245,3.4616,3.4756,3.4855,3.5334,3.5869,3.6347,3.6697,3.6698,3.6844,3.7187,3.7426,3.7679,3.7936,3.813,3.8277,3.8369,3.8554,3.8677,3.8185,2.6614,2.6998,2.7782,2.8179,2.8259,2.8421,2.85,2.85,2.85,2.85,2.85,2.85,2.85,2.85,2.85,2.85,2.85,2.85,2.85,2.85,2.85,2.85,2.85,2.85,2.85,2.85,2.85,2.85,2.85,2.85,2.8476,2.845,2.8296,2.814,2.7745,2.7469,2.7289,2.7073,2.6763,2.6679,2.6763,2.6827,2.6902,2.6902,2.6834,2.6819,2.6832,2.6812,2.681,2.6631,2.6511,2.6486,2.6474,2.6426,2.6301,2.6057,2.5949,2.5685,2.5603,2.5997,2.6154,2.6481,2.7291,2.7772,2.7926,2.8258,2.889,2.9459,3.0272,3.1104,3.1905,3.2709,3.3079,3.3505,3.3903,3.4254,3.4268,3.4161,3.409,3.4133,3.4254,3.4417,3.4702,3.4983,3.5105,3.5147,3.5203,3.5189,3.5077,3.4758,3.4622,3.4721,3.4726,3.4595,3.4417,3.4594,3.4977,3.5047,3.5215,3.5602,3.6033,3.6534,3.6834,3.6822,3.7036,3.7318,3.7784,3.8118,3.8372,3.8681,3.9061,3.9269,3.9223,3.9284,3.9061,2.6553,2.732,2.7671,2.8023,2.8393,2.8466,2.85,2.85,2.85,2.85,2.85,2.85,2.85,2.85,2.85,2.85,2.85,2.85,2.85,2.85,2.85,2.85,2.85,2.85,2.85,2.85,2.85,2.8488,2.8356,2.8392,2.825,2.7878,2.7854,2.7577,2.7073,2.6832,2.6613,2.6466,2.6236,2.6052,2.6293,2.6442,2.6678,2.6651,2.6551,2.6478,2.6418,2.6311,2.6006,2.576,2.5691,2.5739,2.5775,2.5811,2.57,2.5688,2.5579,2.5555,2.5628,2.6217,2.6505,2.6844,2.7592,2.8214,2.8308,2.833,2.8774,2.8961,2.9761,3.0669,3.1544,3.2671,3.3275,3.3825,3.4305,3.4539,3.466,3.4179,3.3805,3.3847,3.3931,3.417,3.4474,3.4716,3.4918,3.5039,3.5316,3.5344,3.5517,3.54,3.5259,3.5391,3.5494,3.5334,3.5128,3.5156,3.539,3.5442,3.563,3.6071,3.6458,3.6758,3.694,3.6747,3.6983,3.7309,3.781,3.8327,3.8987,3.9355,3.9917,4.019,4.0014,3.9814,3.9537]}]]